GFSGBSN_prec_precacc_060.txt.gz
Total_Precipitation_Accumulation
0.04 0.05 0.04 0.04 0.04 0.03 0.02 0.03 0.03 0.02 0.02 0.02 0.01 0.01 0.01 0.02 0.02 0.02 0.01 0.01 0.01 0.01 0.01 0.01 0.01 0.01 0.00 0.00 0.00 0.00 0.00 0.00 0.00 0.00 0.00 0.00 0.00 0.00 0.00 0.00 0.00 0.00 0.00 0.00 0.00 0.00 0.03
0.06 0.05 0.05 0.04 0.03 0.02 0.03 0.04 0.04 0.03 0.02 0.02 0.01 0.02 0.01 0.02 0.02 0.02 0.01 0.01 0.01 0.01 0.01 0.01 0.01 0.01 0.00 0.00 0.00 0.00 0.00 0.00 0.00 0.00 0.00 0.00 0.00 0.00 0.00 0.00 0.00 0.00 0.00 0.00 0.00 0.00 0.01
0.06 0.06 0.06 0.06 0.04 0.04 0.04 0.03 0.03 0.02 0.02 0.02 0.03 0.02 0.02 0.02 0.02 0.01 0.01 0.01 0.01 0.01 0.01 0.01 0.01 0.01 0.00 0.00 0.00 0.00 0.00 0.00 0.00 0.00 0.00 0.00 0.00 0.00 0.00 0.00 0.00 0.00 0.00 0.00 0.00 0.00 0.02
0.06 0.06 0.05 0.06 0.06 0.06 0.04 0.03 0.02 0.03 0.03 0.02 0.02 0.02 0.02 0.01 0.01 0.01 0.01 0.01 0.01 0.01 0.01 0.01 0.01 0.01 0.00 0.00 0.00 0.00 0.00 0.00 0.00 0.00 0.00 0.00 0.00 0.00 0.00 0.00 0.00 0.00 0.00 0.01 0.01 0.00 0.01
0.06 0.06 0.06 0.08 0.07 0.06 0.05 0.03 0.03 0.03 0.03 0.03 0.02 0.02 0.02 0.01 0.02 0.02 0.01 0.01 0.01 0.01 0.01 0.01 0.00 0.00 0.00 0.00 0.00 0.00 0.00 0.00 0.00 0.00 0.00 0.00 0.00 0.00 0.00 0.00 0.00 0.00 0.00 0.00 0.01 0.01 0.01
0.08 0.08 0.08 0.08 0.07 0.06 0.06 0.05 0.04 0.03 0.03 0.02 0.02 0.02 0.02 0.03 0.03 0.02 0.01 0.01 0.01 0.01 0.01 0.00 0.00 0.00 0.00 0.00 0.00 0.00 0.00 0.00 0.00 0.00 0.00 0.00 0.00 0.00 0.00 0.00 0.00 0.00 0.00 0.00 0.00 0.00 0.00
0.10 0.09 0.09 0.08 0.07 0.06 0.06 0.07 0.07 0.06 0.04 0.03 0.02 0.02 0.02 0.03 0.04 0.02 0.00 0.00 0.00 0.00 0.00 0.00 0.00 0.00 0.00 0.00 0.00 0.00 0.00 0.00 0.00 0.01 0.00 0.00 0.00 0.00 0.00 0.00 0.00 0.00 0.00 0.00 0.00 0.00 0.00
0.09 0.07 0.07 0.09 0.08 0.07 0.07 0.09 0.07 0.07 0.05 0.04 0.03 0.02 0.02 0.04 0.05 0.02 0.01 0.00 0.00 0.00 0.00 0.00 0.00 0.00 0.00 0.00 0.00 0.00 0.00 0.00 0.01 0.05 0.02 0.00 0.00 0.00 0.00 0.00 0.00 0.00 0.00 0.00 0.00 0.00 0.00
0.11 0.09 0.08 0.08 0.09 0.08 0.07 0.08 0.07 0.06 0.05 0.04 0.03 0.02 0.03 0.05 0.04 0.01 0.00 0.00 0.00 0.00 0.01 0.00 0.00 0.00 0.00 0.00 0.00 0.00 0.00 0.00 0.00 0.01 0.05 0.01 0.00 0.00 0.00 0.00 0.00 0.00 0.00 0.00 0.00 0.00 0.00
0.12 0.13 0.11 0.09 0.10 0.08 0.08 0.08 0.06 0.05 0.05 0.06 0.04 0.03 0.04 0.06 0.01 0.00 0.00 0.00 0.00 0.00 0.01 0.00 0.00 0.00 0.00 0.00 0.00 0.00 0.00 0.00 0.00 0.01 0.04 0.03 0.00 0.00 0.00 0.00 0.00 0.00 0.00 0.00 0.00 0.00 0.00
0.14 0.13 0.13 0.11 0.09 0.09 0.08 0.08 0.06 0.06 0.06 0.06 0.05 0.05 0.07 0.06 0.02 0.01 0.00 0.00 0.00 0.01 0.01 0.00 0.00 0.00 0.00 0.00 0.00 0.00 0.00 0.00 0.00 0.00 0.04 0.05 0.01 0.00 0.00 0.00 0.00 0.01 0.00 0.00 0.00 0.00 0.01
0.18 0.16 0.15 0.12 0.10 0.09 0.10 0.10 0.10 0.10 0.09 0.09 0.08 0.09 0.14 0.08 0.04 0.01 0.01 0.02 0.08 0.04 0.00 0.00 0.00 0.00 0.00 0.00 0.00 0.00 0.00 0.00 0.00 0.00 0.00 0.00 0.00 0.00 0.00 0.00 0.00 0.00 0.00 0.00 0.00 0.00 0.01
0.24 0.18 0.15 0.13 0.12 0.10 0.10 0.11 0.12 0.12 0.12 0.12 0.10 0.13 0.15 0.06 0.03 0.01 0.02 0.18 0.21 0.03 0.00 0.00 0.00 0.00 0.00 0.00 0.00 0.00 0.00 0.00 0.00 0.00 0.00 0.00 0.00 0.00 0.00 0.00 0.00 0.00 0.00 0.00 0.02 0.00 0.00
0.30 0.25 0.19 0.15 0.13 0.13 0.13 0.13 0.13 0.14 0.14 0.18 0.15 0.21 0.15 0.07 0.03 0.06 0.15 0.33 0.11 0.00 0.00 0.00 0.00 0.00 0.00 0.00 0.00 0.00 0.00 0.00 0.00 0.00 0.00 0.01 0.01 0.00 0.00 0.00 0.00 0.00 0.00 0.00 0.08 0.06 0.05
0.28 0.31 0.27 0.21 0.16 0.13 0.13 0.16 0.15 0.15 0.19 0.24 0.31 0.29 0.22 0.07 0.03 0.10 0.38 0.43 0.04 0.01 0.00 0.00 0.00 0.00 0.00 0.00 0.00 0.00 0.00 0.00 0.00 0.00 0.01 0.02 0.00 0.00 0.00 0.00 0.00 0.00 0.00 0.00 0.01 0.02 0.05
0.37 0.32 0.31 0.28 0.26 0.19 0.17 0.17 0.24 0.23 0.25 0.36 0.47 0.46 0.16 0.06 0.12 0.39 0.62 0.25 0.00 0.00 0.00 0.00 0.00 0.00 0.00 0.00 0.00 0.00 0.00 0.00 0.00 0.00 0.00 0.04 0.08 0.01 0.00 0.00 0.00 0.00 0.00 0.00 0.00 0.03 0.04
0.61 0.40 0.33 0.31 0.33 0.32 0.27 0.24 0.25 0.34 0.33 0.55 1.00 0.90 0.18 0.10 0.57 0.86 0.57 0.09 0.00 0.00 0.00 0.00 0.00 0.00 0.00 0.00 0.00 0.00 0.01 0.01 0.00 0.00 0.00 0.00 0.03 0.05 0.00 0.00 0.00 0.00 0.00 0.00 0.00 0.00 0.01
0.75 0.70 0.58 0.47 0.34 0.35 0.41 0.41 0.37 0.42 0.60 1.09 1.68 1.13 0.26 0.30 0.81 0.57 0.20 0.02 0.00 0.00 0.00 0.00 0.00 0.00 0.00 0.00 0.00 0.00 0.00 0.00 0.00 0.01 0.02 0.00 0.00 0.01 0.00 0.00 0.00 0.00 0.00 0.00 0.01 0.01 0.01
0.70 0.61 0.64 0.82 0.71 0.58 0.57 0.64 0.54 0.53 0.83 1.42 2.07 1.05 0.82 0.61 0.53 0.23 0.09 0.04 0.01 0.00 0.00 0.00 0.00 0.00 0.00 0.00 0.01 0.01 0.00 0.00 0.00 0.01 0.01 0.01 0.00 0.00 0.01 0.02 0.01 0.00 0.00 0.00 0.00 0.03 0.06
0.69 0.52 0.43 0.62 0.72 0.80 0.87 0.83 0.79 0.74 1.02 1.82 2.52 1.75 1.85 1.20 0.24 0.11 0.15 0.09 0.02 0.00 0.00 0.00 0.00 0.00 0.01 0.06 0.01 0.01 0.00 0.01 0.00 0.01 0.01 0.02 0.01 0.00 0.02 0.05 0.02 0.01 0.00 0.00 0.00 0.06 0.04
0.75 0.63 0.46 0.54 0.61 0.78 0.88 1.08 1.09 1.09 1.34 2.86 3.61 1.42 0.78 0.78 0.29 0.14 0.15 0.16 0.05 0.01 0.00 0.00 0.01 0.00 0.01 0.04 0.06 0.04 0.04 0.02 0.05 0.01 0.01 0.07 0.08 0.03 0.00 0.00 0.00 0.01 0.01 0.00 0.01 0.02 0.03
0.81 0.68 0.53 0.53 0.53 0.73 0.95 0.99 1.16 1.39 1.96 3.99 3.54 0.90 0.28 0.16 0.15 0.18 0.23 0.13 0.05 0.05 0.03 0.02 0.00 0.01 0.03 0.03 0.06 0.10 0.13 0.13 0.15 0.11 0.03 0.05 0.11 0.01 0.00 0.00 0.00 0.00 0.00 0.04 0.00 0.00 0.00
0.79 0.67 0.59 0.52 0.47 0.58 0.91 1.03 1.12 1.48 2.93 4.89 2.82 0.65 0.50 0.31 0.16 0.26 0.18 0.06 0.03 0.03 0.06 0.04 0.04 0.05 0.04 0.05 0.09 0.16 0.11 0.14 0.18 0.22 0.21 0.11 0.15 0.12 0.04 0.00 0.00 0.00 0.00 0.00 0.01 0.00 0.00
0.63 0.62 0.61 0.56 0.49 0.49 0.70 1.00 1.07 1.46 2.50 3.04 2.09 0.82 1.07 0.81 0.26 0.13 0.07 0.07 0.06 0.04 0.04 0.05 0.08 0.12 0.10 0.02 0.07 0.13 0.21 0.16 0.20 0.21 0.21 0.26 0.18 0.17 0.11 0.04 0.06 0.02 0.00 0.00 0.00 0.00 0.00
0.54 0.54 0.66 0.68 0.60 0.53 0.58 0.87 0.99 1.21 1.57 1.80 1.70 1.33 1.29 0.83 0.21 0.10 0.08 0.11 0.10 0.11 0.12 0.10 0.06 0.12 0.15 0.11 0.21 0.24 0.16 0.18 0.18 0.20 0.21 0.23 0.23 0.25 0.17 0.13 0.06 0.01 0.00 0.00 0.00 0.00 0.00
0.55 0.58 0.64 0.71 0.64 0.58 0.55 0.77 0.96 0.95 1.09 1.43 1.40 1.34 2.03 1.43 0.49 0.10 0.15 0.14 0.19 0.21 0.22 0.17 0.19 0.16 0.15 0.19 0.30 0.31 0.24 0.13 0.13 0.15 0.14 0.28 0.27 0.35 0.21 0.18 0.10 0.01 0.00 0.00 0.00 0.01 0.00
0.69 0.66 0.71 0.74 0.62 0.58 0.54 0.68 0.85 0.73 0.78 1.17 1.33 1.24 2.17 2.14 0.59 0.24 0.25 0.25 0.27 0.22 0.28 0.22 0.31 0.33 0.29 0.38 0.33 0.22 0.18 0.13 0.17 0.21 0.17 0.22 0.25 0.27 0.22 0.22 0.06 0.01 0.01 0.00 0.04 0.08 0.00
0.76 0.76 0.82 0.87 0.78 0.56 0.55 0.52 0.73 0.67 0.75 1.09 1.11 1.21 1.89 1.87 0.66 0.46 0.28 0.19 0.16 0.26 0.39 0.29 0.63 0.56 0.53 0.39 0.22 0.15 0.13 0.09 0.07 0.15 0.16 0.17 0.22 0.22 0.24 0.23 0.07 0.02 0.06 0.11 0.13 0.02 0.00
0.63 0.66 0.75 0.68 0.77 0.53 0.50 0.45 0.62 0.78 0.92 1.07 1.24 1.02 1.42 2.01 1.12 0.47 0.25 0.15 0.07 0.05 0.17 0.31 0.30 0.29 0.25 0.24 0.12 0.16 0.13 0.08 0.04 0.09 0.13 0.15 0.13 0.14 0.10 0.07 0.02 0.03 0.07 0.06 0.01 0.02 0.01

GFSGBSN_prec_precacc_063.txt.gz
Total_Precipitation_Accumulation
0.04 0.05 0.04 0.04 0.04 0.03 0.02 0.03 0.04 0.02 0.02 0.02 0.01 0.01 0.01 0.02 0.02 0.02 0.01 0.01 0.01 0.01 0.01 0.01 0.01 0.01 0.00 0.00 0.00 0.00 0.00 0.00 0.00 0.00 0.00 0.00 0.00 0.00 0.00 0.00 0.00 0.00 0.00 0.00 0.00 0.00 0.03
0.06 0.05 0.05 0.04 0.03 0.02 0.03 0.04 0.04 0.03 0.02 0.02 0.01 0.02 0.01 0.02 0.02 0.02 0.01 0.01 0.01 0.01 0.01 0.01 0.01 0.01 0.00 0.00 0.00 0.00 0.00 0.00 0.00 0.00 0.00 0.00 0.00 0.00 0.00 0.00 0.00 0.00 0.00 0.00 0.00 0.00 0.01
0.06 0.06 0.06 0.06 0.04 0.04 0.04 0.03 0.03 0.02 0.02 0.02 0.03 0.02 0.02 0.02 0.02 0.01 0.01 0.01 0.01 0.01 0.01 0.01 0.01 0.02 0.00 0.00 0.00 0.00 0.00 0.00 0.00 0.00 0.00 0.00 0.00 0.00 0.00 0.00 0.00 0.00 0.00 0.00 0.00 0.00 0.02
0.06 0.06 0.06 0.07 0.07 0.07 0.05 0.03 0.02 0.03 0.03 0.03 0.02 0.02 0.02 0.01 0.01 0.01 0.01 0.01 0.01 0.01 0.01 0.01 0.01 0.01 0.00 0.00 0.00 0.00 0.00 0.00 0.00 0.00 0.00 0.00 0.00 0.00 0.00 0.00 0.00 0.00 0.00 0.01 0.01 0.00 0.01
0.07 0.06 0.06 0.08 0.08 0.06 0.05 0.03 0.03 0.03 0.03 0.03 0.02 0.02 0.02 0.01 0.02 0.02 0.01 0.01 0.01 0.01 0.01 0.01 0.00 0.00 0.00 0.00 0.00 0.00 0.00 0.00 0.00 0.00 0.00 0.00 0.00 0.00 0.00 0.00 0.00 0.00 0.00 0.00 0.01 0.01 0.01
0.08 0.08 0.08 0.09 0.07 0.06 0.06 0.06 0.05 0.04 0.03 0.03 0.02 0.02 0.02 0.03 0.03 0.02 0.01 0.01 0.01 0.01 0.01 0.00 0.00 0.00 0.00 0.00 0.00 0.00 0.00 0.00 0.00 0.00 0.00 0.00 0.00 0.00 0.00 0.00 0.00 0.00 0.00 0.00 0.00 0.00 0.00
0.10 0.09 0.10 0.09 0.07 0.06 0.06 0.07 0.07 0.06 0.04 0.03 0.02 0.02 0.02 0.03 0.04 0.02 0.00 0.00 0.00 0.00 0.00 0.00 0.00 0.00 0.00 0.00 0.00 0.00 0.00 0.00 0.00 0.01 0.00 0.00 0.00 0.00 0.00 0.00 0.00 0.00 0.00 0.00 0.00 0.00 0.00
0.09 0.07 0.07 0.09 0.08 0.07 0.07 0.09 0.08 0.07 0.05 0.04 0.03 0.02 0.02 0.04 0.05 0.02 0.01 0.00 0.00 0.00 0.00 0.00 0.00 0.00 0.00 0.00 0.00 0.00 0.00 0.00 0.01 0.05 0.03 0.00 0.00 0.00 0.00 0.00 0.00 0.00 0.00 0.00 0.00 0.00 0.00
0.11 0.10 0.08 0.08 0.09 0.08 0.07 0.09 0.08 0.07 0.05 0.04 0.03 0.02 0.03 0.05 0.04 0.01 0.00 0.00 0.00 0.00 0.01 0.00 0.00 0.00 0.00 0.00 0.00 0.00 0.00 0.00 0.00 0.02 0.07 0.02 0.00 0.00 0.00 0.00 0.00 0.00 0.00 0.00 0.00 0.00 0.00
0.13 0.14 0.12 0.10 0.11 0.08 0.08 0.08 0.06 0.05 0.06 0.06 0.04 0.03 0.04 0.06 0.01 0.00 0.00 0.00 0.00 0.00 0.01 0.00 0.00 0.00 0.00 0.00 0.00 0.00 0.00 0.00 0.00 0.01 0.06 0.08 0.00 0.00 0.00 0.00 0.00 0.00 0.00 0.00 0.00 0.00 0.00
0.15 0.14 0.13 0.12 0.10 0.10 0.09 0.08 0.06 0.06 0.06 0.06 0.05 0.05 0.07 0.06 0.02 0.01 0.00 0.00 0.00 0.01 0.01 0.00 0.00 0.00 0.00 0.00 0.00 0.00 0.00 0.00 0.00 0.00 0.05 0.06 0.02 0.02 0.00 0.00 0.00 0.01 0.00 0.00 0.00 0.00 0.01
0.18 0.17 0.15 0.13 0.11 0.10 0.10 0.11 0.10 0.10 0.09 0.09 0.08 0.09 0.14 0.08 0.04 0.01 0.01 0.02 0.09 0.05 0.00 0.00 0.00 0.00 0.00 0.00 0.00 0.00 0.00 0.00 0.00 0.00 0.00 0.00 0.01 0.01 0.00 0.00 0.00 0.00 0.00 0.00 0.00 0.00 0.01
0.24 0.18 0.15 0.13 0.12 0.10 0.10 0.12 0.13 0.12 0.12 0.12 0.10 0.13 0.15 0.06 0.03 0.01 0.02 0.18 0.22 0.03 0.00 0.00 0.00 0.00 0.00 0.00 0.00 0.00 0.00 0.00 0.00 0.00 0.00 0.00 0.00 0.00 0.00 0.00 0.00 0.00 0.01 0.00 0.02 0.00 0.00
0.30 0.25 0.19 0.15 0.13 0.13 0.13 0.13 0.13 0.14 0.15 0.18 0.15 0.21 0.15 0.07 0.03 0.06 0.15 0.34 0.12 0.00 0.00 0.00 0.00 0.00 0.00 0.00 0.00 0.00 0.00 0.00 0.00 0.00 0.00 0.01 0.02 0.00 0.00 0.00 0.00 0.00 0.00 0.01 0.08 0.07 0.05
0.29 0.32 0.27 0.22 0.16 0.14 0.13 0.16 0.16 0.16 0.19 0.24 0.31 0.29 0.22 0.07 0.03 0.10 0.39 0.44 0.04 0.01 0.00 0.00 0.00 0.00 0.00 0.00 0.00 0.00 0.00 0.00 0.00 0.00 0.01 0.02 0.00 0.00 0.00 0.00 0.00 0.01 0.00 0.00 0.02 0.04 0.05
0.38 0.32 0.32 0.29 0.26 0.19 0.17 0.18 0.24 0.24 0.26 0.36 0.47 0.46 0.16 0.06 0.12 0.40 0.65 0.26 0.00 0.00 0.00 0.00 0.00 0.00 0.00 0.00 0.00 0.00 0.00 0.01 0.01 0.00 0.00 0.04 0.08 0.01 0.00 0.00 0.00 0.00 0.00 0.05 0.07 0.04 0.05
0.61 0.40 0.33 0.31 0.33 0.32 0.27 0.24 0.26 0.36 0.34 0.56 1.00 0.91 0.18 0.10 0.58 0.90 0.60 0.10 0.00 0.00 0.00 0.00 0.00 0.00 0.00 0.00 0.00 0.00 0.01 0.04 0.00 0.00 0.00 0.00 0.03 0.05 0.00 0.00 0.00 0.00 0.01 0.08 0.04 0.00 0.01
0.75 0.71 0.59 0.47 0.35 0.36 0.41 0.41 0.38 0.43 0.61 1.09 1.70 1.15 0.27 0.32 0.83 0.58 0.20 0.02 0.00 0.00 0.00 0.00 0.00 0.00 0.00 0.00 0.00 0.00 0.00 0.01 0.00 0.01 0.02 0.00 0.00 0.01 0.00 0.00 0.00 0.00 0.00 0.01 0.05 0.03 0.01
0.70 0.61 0.64 0.83 0.73 0.60 0.57 0.65 0.55 0.55 0.86 1.45 2.10 1.05 0.83 0.71 0.70 0.24 0.09 0.04 0.01 0.00 0.00 0.00 0.00 0.00 0.00 0.00 0.01 0.01 0.00 0.00 0.00 0.01 0.01 0.01 0.00 0.00 0.01 0.03 0.01 0.00 0.00 0.00 0.00 0.06 0.13
0.69 0.52 0.44 0.62 0.73 0.80 0.87 0.84 0.82 0.78 1.06 1.87 2.56 1.79 1.86 1.22 0.28 0.16 0.18 0.12 0.02 0.00 0.00 0.00 0.00 0.00 0.01 0.06 0.01 0.01 0.00 0.01 0.00 0.01 0.01 0.02 0.01 0.00 0.02 0.06 0.08 0.03 0.00 0.00 0.01 0.13 0.10
0.75 0.63 0.47 0.54 0.62 0.78 0.89 1.10 1.12 1.13 1.40 2.91 3.65 1.45 0.80 0.84 0.32 0.15 0.16 0.19 0.09 0.05 0.01 0.00 0.01 0.00 0.01 0.04 0.06 0.04 0.04 0.02 0.05 0.01 0.01 0.07 0.08 0.03 0.00 0.00 0.03 0.04 0.01 0.01 0.02 0.03 0.09
0.82 0.69 0.55 0.54 0.54 0.75 0.97 1.01 1.18 1.41 2.03 4.04 3.56 0.92 0.29 0.16 0.17 0.25 0.31 0.15 0.05 0.06 0.07 0.03 0.01 0.01 0.03 0.03 0.06 0.10 0.13 0.13 0.15 0.11 0.04 0.06 0.12 0.01 0.00 0.00 0.00 0.00 0.01 0.06 0.03 0.01 0.03
0.79 0.68 0.61 0.53 0.47 0.58 0.91 1.06 1.15 1.52 2.99 4.92 2.83 0.66 0.56 0.34 0.16 0.27 0.20 0.10 0.04 0.03 0.06 0.06 0.07 0.06 0.05 0.07 0.10 0.16 0.11 0.14 0.18 0.22 0.21 0.12 0.16 0.13 0.06 0.00 0.00 0.00 0.00 0.01 0.06 0.03 0.02
0.64 0.63 0.62 0.57 0.50 0.51 0.71 1.01 1.08 1.52 2.57 3.06 2.11 0.87 1.13 0.82 0.26 0.13 0.07 0.08 0.10 0.06 0.05 0.05 0.09 0.18 0.16 0.04 0.07 0.13 0.21 0.16 0.20 0.21 0.21 0.26 0.18 0.19 0.13 0.05 0.07 0.02 0.00 0.00 0.00 0.02 0.00
0.54 0.55 0.67 0.69 0.61 0.55 0.60 0.89 0.99 1.23 1.63 1.84 1.73 1.38 1.36 0.86 0.21 0.10 0.09 0.12 0.12 0.18 0.15 0.11 0.08 0.15 0.17 0.14 0.24 0.25 0.16 0.18 0.18 0.20 0.21 0.23 0.23 0.26 0.19 0.17 0.07 0.01 0.00 0.00 0.00 0.00 0.00
0.55 0.58 0.65 0.72 0.64 0.59 0.56 0.78 0.96 0.96 1.13 1.47 1.42 1.40 2.08 1.52 0.51 0.10 0.15 0.16 0.21 0.22 0.31 0.21 0.27 0.17 0.15 0.20 0.32 0.32 0.24 0.14 0.13 0.15 0.14 0.28 0.27 0.35 0.22 0.20 0.11 0.02 0.00 0.00 0.00 0.02 0.00
0.69 0.66 0.72 0.75 0.64 0.59 0.55 0.68 0.86 0.73 0.80 1.22 1.35 1.29 2.28 2.27 0.63 0.26 0.29 0.28 0.35 0.33 0.34 0.28 0.42 0.36 0.29 0.38 0.33 0.22 0.18 0.14 0.19 0.23 0.20 0.22 0.26 0.27 0.23 0.23 0.07 0.01 0.01 0.00 0.04 0.09 0.00
0.77 0.77 0.82 0.89 0.84 0.66 0.64 0.57 0.74 0.67 0.75 1.13 1.14 1.25 1.96 1.93 0.66 0.47 0.29 0.20 0.17 0.29 0.48 0.41 0.71 0.62 0.53 0.39 0.22 0.15 0.14 0.11 0.10 0.21 0.27 0.21 0.23 0.24 0.26 0.24 0.07 0.02 0.06 0.12 0.14 0.03 0.00
0.64 0.67 0.76 0.70 0.82 0.65 0.67 0.64 0.69 0.79 0.93 1.10 1.26 1.04 1.48 2.05 1.12 0.47 0.25 0.15 0.07 0.06 0.19 0.42 0.50 0.37 0.27 0.26 0.15 0.19 0.16 0.13 0.09 0.14 0.19 0.25 0.16 0.16 0.10 0.07 0.04 0.05 0.09 0.08 0.03 0.02 0.01

GFSGBSN_prec_precacc_069.txt.gz
Total_Precipitation_Accumulation
0.04 0.05 0.04 0.04 0.04 0.03 0.02 0.03 0.04 0.02 0.02 0.02 0.02 0.02 0.01 0.02 0.02 0.02 0.01 0.01 0.01 0.01 0.01 0.01 0.01 0.02 0.00 0.00 0.00 0.00 0.00 0.00 0.00 0.00 0.00 0.00 0.00 0.00 0.00 0.00 0.00 0.00 0.00 0.00 0.00 0.00 0.03
0.06 0.06 0.05 0.04 0.04 0.02 0.03 0.04 0.04 0.03 0.02 0.02 0.02 0.02 0.01 0.02 0.02 0.02 0.01 0.01 0.01 0.01 0.01 0.01 0.01 0.02 0.00 0.00 0.00 0.00 0.00 0.00 0.00 0.00 0.00 0.00 0.00 0.00 0.00 0.00 0.00 0.00 0.00 0.00 0.00 0.00 0.01
0.07 0.06 0.07 0.07 0.05 0.05 0.04 0.03 0.03 0.02 0.02 0.02 0.03 0.02 0.02 0.02 0.02 0.01 0.01 0.01 0.01 0.01 0.01 0.01 0.01 0.02 0.00 0.00 0.00 0.00 0.00 0.00 0.00 0.00 0.00 0.00 0.00 0.00 0.00 0.00 0.00 0.00 0.00 0.00 0.00 0.00 0.02
0.07 0.07 0.06 0.07 0.07 0.07 0.05 0.03 0.03 0.03 0.03 0.03 0.02 0.02 0.02 0.01 0.01 0.01 0.01 0.01 0.01 0.01 0.01 0.01 0.01 0.01 0.00 0.00 0.00 0.00 0.00 0.00 0.00 0.00 0.00 0.00 0.00 0.00 0.00 0.00 0.00 0.00 0.00 0.01 0.01 0.00 0.01
0.07 0.07 0.07 0.09 0.09 0.07 0.06 0.04 0.04 0.03 0.04 0.03 0.02 0.02 0.02 0.01 0.02 0.02 0.01 0.01 0.01 0.01 0.01 0.01 0.00 0.00 0.00 0.00 0.00 0.00 0.00 0.00 0.00 0.00 0.00 0.00 0.00 0.00 0.00 0.00 0.00 0.00 0.00 0.00 0.01 0.01 0.01
0.08 0.08 0.08 0.09 0.08 0.06 0.07 0.06 0.05 0.04 0.03 0.03 0.02 0.02 0.02 0.03 0.03 0.02 0.01 0.01 0.01 0.01 0.01 0.00 0.00 0.00 0.00 0.00 0.00 0.00 0.00 0.00 0.00 0.00 0.00 0.00 0.00 0.00 0.00 0.00 0.00 0.00 0.00 0.00 0.00 0.00 0.00
0.10 0.10 0.10 0.09 0.07 0.06 0.06 0.07 0.07 0.07 0.05 0.03 0.02 0.02 0.02 0.03 0.04 0.02 0.00 0.00 0.00 0.00 0.00 0.00 0.00 0.00 0.00 0.00 0.00 0.00 0.00 0.00 0.00 0.01 0.00 0.00 0.00 0.00 0.00 0.00 0.00 0.00 0.00 0.00 0.00 0.00 0.00
0.10 0.08 0.08 0.09 0.09 0.07 0.07 0.10 0.08 0.08 0.05 0.04 0.03 0.02 0.02 0.04 0.05 0.02 0.01 0.00 0.00 0.00 0.00 0.00 0.00 0.00 0.00 0.00 0.00 0.00 0.00 0.00 0.01 0.05 0.03 0.00 0.00 0.00 0.00 0.00 0.00 0.00 0.00 0.00 0.00 0.00 0.00
0.12 0.10 0.09 0.09 0.10 0.09 0.08 0.09 0.08 0.07 0.05 0.04 0.03 0.02 0.03 0.05 0.04 0.01 0.00 0.00 0.00 0.00 0.01 0.00 0.00 0.00 0.00 0.00 0.00 0.00 0.00 0.00 0.00 0.02 0.07 0.02 0.00 0.00 0.00 0.00 0.00 0.00 0.00 0.00 0.00 0.00 0.00
0.13 0.14 0.12 0.11 0.12 0.09 0.08 0.08 0.06 0.05 0.06 0.06 0.04 0.03 0.04 0.06 0.01 0.00 0.00 0.00 0.00 0.00 0.01 0.00 0.00 0.00 0.00 0.00 0.00 0.00 0.00 0.00 0.00 0.01 0.06 0.08 0.00 0.00 0.00 0.00 0.00 0.00 0.00 0.00 0.00 0.00 0.00
0.15 0.14 0.14 0.12 0.10 0.10 0.09 0.09 0.07 0.06 0.06 0.06 0.05 0.05 0.07 0.06 0.02 0.01 0.00 0.00 0.00 0.02 0.01 0.00 0.00 0.00 0.00 0.00 0.00 0.00 0.00 0.00 0.00 0.00 0.05 0.06 0.03 0.02 0.00 0.00 0.00 0.01 0.00 0.00 0.00 0.00 0.01
0.18 0.17 0.15 0.13 0.11 0.10 0.11 0.11 0.10 0.10 0.09 0.10 0.08 0.09 0.14 0.08 0.04 0.01 0.01 0.02 0.09 0.05 0.00 0.00 0.00 0.00 0.00 0.00 0.00 0.00 0.00 0.00 0.00 0.00 0.00 0.00 0.01 0.01 0.01 0.00 0.01 0.00 0.01 0.00 0.00 0.00 0.01
0.24 0.18 0.15 0.13 0.12 0.10 0.10 0.12 0.13 0.12 0.12 0.13 0.10 0.13 0.16 0.06 0.03 0.01 0.02 0.18 0.22 0.03 0.00 0.00 0.00 0.00 0.00 0.00 0.00 0.00 0.00 0.00 0.00 0.00 0.00 0.00 0.00 0.00 0.00 0.00 0.01 0.02 0.05 0.03 0.04 0.00 0.00
0.30 0.26 0.20 0.15 0.14 0.14 0.13 0.13 0.14 0.14 0.15 0.19 0.15 0.21 0.15 0.07 0.03 0.06 0.15 0.34 0.12 0.00 0.00 0.00 0.00 0.00 0.00 0.00 0.00 0.00 0.00 0.00 0.00 0.00 0.00 0.01 0.02 0.00 0.00 0.00 0.01 0.01 0.04 0.05 0.11 0.07 0.05
0.29 0.32 0.28 0.22 0.17 0.15 0.14 0.16 0.16 0.16 0.19 0.24 0.32 0.29 0.22 0.07 0.03 0.10 0.39 0.44 0.04 0.01 0.00 0.00 0.00 0.00 0.00 0.00 0.00 0.00 0.00 0.00 0.00 0.00 0.01 0.02 0.00 0.00 0.00 0.00 0.02 0.06 0.07 0.04 0.07 0.07 0.05
0.38 0.33 0.33 0.30 0.27 0.19 0.17 0.18 0.24 0.25 0.26 0.38 0.47 0.46 0.16 0.06 0.12 0.41 0.66 0.26 0.00 0.00 0.00 0.00 0.00 0.00 0.00 0.00 0.00 0.00 0.01 0.01 0.02 0.00 0.00 0.04 0.08 0.01 0.00 0.00 0.00 0.05 0.11 0.24 0.21 0.15 0.07
0.62 0.41 0.34 0.31 0.33 0.32 0.27 0.24 0.26 0.36 0.36 0.57 1.00 0.92 0.18 0.10 0.58 0.93 0.62 0.10 0.00 0.00 0.00 0.00 0.00 0.00 0.00 0.00 0.00 0.00 0.04 0.09 0.03 0.01 0.00 0.00 0.03 0.05 0.00 0.00 0.01 0.05 0.18 0.26 0.15 0.02 0.03
0.76 0.71 0.59 0.48 0.35 0.36 0.42 0.42 0.38 0.44 0.64 1.10 1.70 1.16 0.28 0.34 0.87 0.61 0.21 0.02 0.00 0.00 0.00 0.00 0.00 0.00 0.00 0.00 0.00 0.00 0.00 0.02 0.00 0.01 0.03 0.00 0.00 0.01 0.00 0.00 0.00 0.01 0.03 0.08 0.18 0.10 0.02
0.70 0.62 0.65 0.84 0.73 0.61 0.59 0.65 0.55 0.56 0.90 1.46 2.11 1.05 0.83 0.78 1.00 0.31 0.10 0.04 0.01 0.00 0.00 0.00 0.00 0.00 0.00 0.00 0.02 0.01 0.00 0.00 0.00 0.01 0.01 0.01 0.00 0.01 0.01 0.03 0.02 0.01 0.02 0.03 0.07 0.17 0.17
0.70 0.53 0.44 0.62 0.74 0.81 0.88 0.85 0.83 0.81 1.13 1.92 2.62 1.80 1.86 1.22 0.30 0.35 0.46 0.23 0.06 0.03 0.03 0.02 0.00 0.00 0.01 0.06 0.02 0.01 0.00 0.01 0.00 0.01 0.01 0.02 0.01 0.01 0.03 0.08 0.10 0.06 0.04 0.03 0.10 0.29 0.14
0.75 0.63 0.47 0.54 0.62 0.78 0.89 1.11 1.13 1.17 1.46 2.99 3.76 1.48 0.80 0.88 0.39 0.21 0.28 0.29 0.16 0.14 0.07 0.02 0.02 0.02 0.02 0.05 0.07 0.04 0.04 0.02 0.05 0.01 0.01 0.07 0.08 0.03 0.00 0.00 0.03 0.08 0.08 0.06 0.07 0.05 0.12
0.82 0.69 0.55 0.55 0.56 0.77 0.99 1.03 1.22 1.45 2.11 4.14 3.61 0.92 0.29 0.16 0.19 0.28 0.34 0.19 0.08 0.11 0.13 0.11 0.05 0.03 0.04 0.05 0.07 0.10 0.14 0.13 0.16 0.13 0.05 0.06 0.12 0.02 0.00 0.00 0.00 0.01 0.01 0.11 0.12 0.06 0.06
0.81 0.70 0.62 0.56 0.51 0.61 0.93 1.06 1.17 1.58 3.09 5.01 2.90 0.67 0.58 0.35 0.17 0.28 0.21 0.14 0.12 0.06 0.11 0.13 0.20 0.13 0.06 0.11 0.14 0.19 0.14 0.15 0.18 0.23 0.23 0.14 0.18 0.13 0.06 0.00 0.00 0.00 0.00 0.03 0.10 0.13 0.22
0.65 0.64 0.62 0.57 0.51 0.52 0.73 1.02 1.09 1.58 2.67 3.08 2.12 0.88 1.17 0.84 0.26 0.13 0.07 0.08 0.11 0.09 0.10 0.06 0.16 0.41 0.22 0.05 0.10 0.15 0.23 0.17 0.20 0.21 0.21 0.26 0.18 0.19 0.13 0.05 0.07 0.02 0.00 0.00 0.02 0.06 0.08
0.54 0.55 0.68 0.70 0.62 0.56 0.62 0.92 1.04 1.30 1.74 1.87 1.73 1.40 1.41 0.91 0.22 0.10 0.09 0.12 0.12 0.19 0.17 0.11 0.09 0.21 0.24 0.16 0.27 0.26 0.16 0.18 0.18 0.20 0.21 0.23 0.23 0.26 0.19 0.17 0.08 0.01 0.00 0.00 0.03 0.04 0.04
0.58 0.61 0.68 0.75 0.67 0.60 0.57 0.82 1.02 1.02 1.25 1.52 1.43 1.43 2.23 1.58 0.51 0.10 0.15 0.16 0.22 0.24 0.32 0.21 0.33 0.31 0.26 0.32 0.34 0.33 0.25 0.14 0.13 0.15 0.14 0.28 0.27 0.35 0.23 0.21 0.12 0.02 0.00 0.00 0.01 0.06 0.01
0.69 0.66 0.72 0.76 0.64 0.60 0.56 0.69 0.86 0.74 0.85 1.28 1.36 1.29 2.42 2.44 0.64 0.26 0.29 0.31 0.38 0.37 0.38 0.39 0.55 0.45 0.36 0.39 0.33 0.22 0.18 0.14 0.19 0.23 0.20 0.22 0.26 0.27 0.23 0.23 0.07 0.01 0.01 0.01 0.08 0.15 0.01
0.77 0.77 0.83 0.90 0.85 0.67 0.64 0.58 0.75 0.69 0.77 1.18 1.15 1.26 2.01 2.03 0.67 0.47 0.29 0.23 0.25 0.33 0.57 0.55 0.87 0.82 0.57 0.40 0.22 0.15 0.14 0.11 0.10 0.22 0.28 0.24 0.24 0.24 0.27 0.25 0.07 0.02 0.06 0.14 0.19 0.05 0.02
0.65 0.67 0.77 0.71 0.84 0.67 0.69 0.67 0.78 0.87 0.97 1.16 1.27 1.05 1.49 2.09 1.13 0.47 0.25 0.15 0.07 0.06 0.19 0.43 0.62 0.62 0.63 0.38 0.20 0.19 0.17 0.14 0.10 0.16 0.27 0.48 0.30 0.18 0.11 0.07 0.08 0.09 0.11 0.10 0.04 0.11 0.07

GFSGBSN_prec_precacc_075.txt.gz
Total_Precipitation_Accumulation
0.04 0.05 0.04 0.04 0.04 0.03 0.02 0.03 0.04 0.02 0.02 0.02 0.02 0.02 0.01 0.02 0.02 0.02 0.01 0.01 0.01 0.01 0.01 0.01 0.01 0.02 0.00 0.00 0.00 0.00 0.00 0.00 0.00 0.00 0.00 0.00 0.00 0.00 0.00 0.00 0.00 0.00 0.00 0.00 0.00 0.00 0.03
0.06 0.06 0.05 0.04 0.04 0.03 0.03 0.04 0.04 0.03 0.02 0.02 0.02 0.02 0.01 0.02 0.02 0.02 0.01 0.01 0.01 0.01 0.01 0.01 0.01 0.02 0.00 0.00 0.00 0.00 0.00 0.00 0.00 0.00 0.00 0.00 0.00 0.00 0.00 0.00 0.00 0.00 0.00 0.00 0.00 0.00 0.01
0.07 0.07 0.08 0.08 0.05 0.05 0.04 0.04 0.03 0.03 0.02 0.02 0.03 0.02 0.02 0.02 0.02 0.01 0.01 0.01 0.01 0.01 0.01 0.01 0.01 0.02 0.00 0.00 0.00 0.00 0.00 0.00 0.00 0.00 0.00 0.00 0.00 0.00 0.00 0.00 0.00 0.00 0.00 0.00 0.00 0.00 0.02
0.07 0.07 0.07 0.08 0.08 0.08 0.06 0.04 0.04 0.03 0.03 0.03 0.02 0.02 0.02 0.01 0.01 0.01 0.01 0.01 0.01 0.01 0.01 0.01 0.01 0.01 0.00 0.00 0.00 0.00 0.00 0.00 0.00 0.00 0.00 0.00 0.00 0.00 0.00 0.00 0.00 0.00 0.00 0.01 0.01 0.00 0.01
0.08 0.07 0.07 0.09 0.09 0.08 0.06 0.05 0.05 0.04 0.04 0.03 0.02 0.02 0.02 0.01 0.02 0.02 0.01 0.01 0.01 0.01 0.01 0.01 0.00 0.00 0.00 0.00 0.00 0.00 0.00 0.00 0.00 0.00 0.00 0.00 0.00 0.00 0.00 0.00 0.00 0.00 0.00 0.00 0.01 0.01 0.01
0.09 0.08 0.08 0.09 0.08 0.07 0.07 0.06 0.05 0.04 0.03 0.03 0.02 0.02 0.02 0.03 0.03 0.02 0.01 0.01 0.01 0.01 0.01 0.00 0.00 0.00 0.00 0.00 0.00 0.00 0.00 0.00 0.00 0.00 0.00 0.00 0.00 0.00 0.00 0.00 0.00 0.00 0.00 0.00 0.00 0.00 0.00
0.11 0.10 0.10 0.09 0.07 0.06 0.06 0.08 0.08 0.07 0.05 0.03 0.02 0.02 0.02 0.03 0.04 0.02 0.00 0.00 0.00 0.00 0.00 0.00 0.00 0.00 0.00 0.00 0.00 0.00 0.00 0.00 0.00 0.01 0.00 0.00 0.00 0.00 0.00 0.00 0.00 0.00 0.00 0.00 0.00 0.00 0.00
0.10 0.08 0.09 0.10 0.10 0.08 0.09 0.12 0.09 0.08 0.05 0.04 0.03 0.02 0.02 0.04 0.05 0.02 0.01 0.00 0.00 0.00 0.00 0.00 0.00 0.00 0.00 0.00 0.00 0.00 0.00 0.00 0.01 0.05 0.03 0.00 0.00 0.00 0.00 0.00 0.00 0.00 0.00 0.00 0.00 0.00 0.00
0.12 0.10 0.09 0.10 0.10 0.09 0.08 0.09 0.09 0.07 0.05 0.04 0.03 0.02 0.03 0.05 0.04 0.01 0.00 0.00 0.00 0.00 0.01 0.00 0.00 0.00 0.00 0.00 0.00 0.00 0.00 0.00 0.00 0.02 0.07 0.02 0.00 0.00 0.00 0.00 0.00 0.00 0.00 0.00 0.00 0.00 0.00
0.14 0.14 0.13 0.11 0.12 0.09 0.08 0.08 0.07 0.05 0.06 0.06 0.04 0.03 0.04 0.06 0.01 0.00 0.00 0.00 0.00 0.00 0.01 0.00 0.00 0.00 0.00 0.00 0.00 0.00 0.00 0.00 0.00 0.01 0.06 0.08 0.00 0.00 0.00 0.00 0.00 0.00 0.00 0.00 0.00 0.00 0.00
0.16 0.14 0.14 0.12 0.10 0.10 0.09 0.09 0.07 0.06 0.06 0.06 0.05 0.05 0.07 0.06 0.02 0.01 0.00 0.00 0.00 0.02 0.01 0.00 0.00 0.00 0.00 0.00 0.00 0.00 0.00 0.00 0.00 0.00 0.05 0.06 0.03 0.02 0.00 0.00 0.00 0.01 0.00 0.00 0.00 0.00 0.01
0.18 0.17 0.15 0.13 0.11 0.10 0.11 0.11 0.10 0.10 0.09 0.10 0.08 0.09 0.14 0.08 0.04 0.01 0.01 0.02 0.09 0.05 0.00 0.00 0.00 0.00 0.00 0.00 0.00 0.00 0.00 0.00 0.00 0.00 0.00 0.00 0.01 0.01 0.01 0.00 0.01 0.00 0.01 0.00 0.00 0.00 0.02
0.24 0.18 0.15 0.13 0.12 0.11 0.10 0.12 0.13 0.12 0.12 0.13 0.10 0.13 0.16 0.06 0.03 0.01 0.02 0.18 0.22 0.03 0.00 0.00 0.00 0.00 0.00 0.00 0.00 0.00 0.00 0.00 0.00 0.00 0.00 0.00 0.00 0.00 0.00 0.00 0.01 0.02 0.07 0.05 0.06 0.02 0.01
0.30 0.26 0.20 0.16 0.14 0.15 0.14 0.14 0.14 0.14 0.15 0.19 0.15 0.21 0.15 0.07 0.03 0.06 0.15 0.34 0.12 0.00 0.00 0.00 0.00 0.00 0.00 0.00 0.00 0.00 0.00 0.00 0.00 0.00 0.00 0.01 0.02 0.00 0.00 0.00 0.01 0.01 0.05 0.08 0.13 0.08 0.05
0.29 0.32 0.28 0.23 0.17 0.15 0.14 0.16 0.16 0.16 0.19 0.24 0.32 0.29 0.22 0.07 0.03 0.10 0.39 0.44 0.04 0.01 0.00 0.00 0.00 0.00 0.00 0.00 0.00 0.00 0.00 0.00 0.00 0.00 0.01 0.02 0.00 0.00 0.00 0.00 0.02 0.07 0.09 0.07 0.16 0.11 0.08
0.38 0.33 0.33 0.31 0.28 0.19 0.17 0.18 0.24 0.25 0.26 0.38 0.47 0.46 0.16 0.06 0.12 0.41 0.66 0.26 0.00 0.00 0.00 0.00 0.00 0.00 0.00 0.00 0.00 0.00 0.01 0.02 0.02 0.00 0.00 0.04 0.08 0.01 0.00 0.00 0.00 0.06 0.17 0.35 0.33 0.25 0.11
0.62 0.41 0.34 0.31 0.34 0.33 0.28 0.25 0.26 0.37 0.36 0.57 1.00 0.92 0.18 0.10 0.58 0.93 0.62 0.10 0.00 0.00 0.00 0.00 0.00 0.00 0.00 0.00 0.00 0.00 0.04 0.12 0.07 0.03 0.00 0.00 0.03 0.05 0.00 0.00 0.01 0.06 0.24 0.43 0.30 0.05 0.09
0.76 0.71 0.59 0.48 0.36 0.37 0.42 0.42 0.38 0.45 0.64 1.10 1.70 1.16 0.28 0.34 0.88 0.62 0.21 0.02 0.00 0.00 0.00 0.00 0.00 0.00 0.00 0.00 0.00 0.00 0.00 0.02 0.02 0.03 0.05 0.01 0.01 0.01 0.00 0.00 0.00 0.02 0.05 0.15 0.40 0.24 0.09
0.72 0.62 0.65 0.84 0.74 0.61 0.59 0.65 0.55 0.57 0.91 1.46 2.11 1.05 0.83 0.78 1.00 0.32 0.11 0.05 0.01 0.00 0.00 0.01 0.00 0.00 0.00 0.00 0.02 0.01 0.01 0.01 0.01 0.02 0.03 0.02 0.07 0.06 0.03 0.05 0.02 0.02 0.07 0.14 0.25 0.35 0.28
0.74 0.53 0.44 0.63 0.74 0.82 0.88 0.85 0.83 0.82 1.14 1.92 2.62 1.80 1.86 1.22 0.31 0.36 0.47 0.24 0.06 0.05 0.07 0.08 0.01 0.01 0.03 0.06 0.02 0.02 0.02 0.03 0.04 0.04 0.02 0.03 0.02 0.03 0.04 0.09 0.10 0.06 0.04 0.10 0.38 0.59 0.31
0.76 0.64 0.47 0.55 0.62 0.79 0.89 1.11 1.13 1.18 1.48 2.99 3.77 1.48 0.80 0.88 0.41 0.21 0.29 0.31 0.18 0.21 0.16 0.08 0.16 0.20 0.16 0.12 0.09 0.05 0.05 0.06 0.10 0.07 0.07 0.10 0.09 0.04 0.00 0.00 0.03 0.08 0.08 0.07 0.16 0.23 0.32
0.83 0.70 0.55 0.55 0.57 0.77 0.99 1.03 1.22 1.48 2.13 4.15 3.63 0.92 0.29 0.16 0.19 0.28 0.35 0.19 0.10 0.13 0.14 0.20 0.27 0.09 0.07 0.11 0.10 0.14 0.16 0.17 0.22 0.21 0.14 0.14 0.13 0.02 0.00 0.00 0.00 0.01 0.01 0.11 0.13 0.08 0.09
0.82 0.71 0.63 0.56 0.51 0.61 0.94 1.07 1.18 1.60 3.09 5.02 2.91 0.71 0.59 0.36 0.17 0.28 0.21 0.14 0.13 0.07 0.11 0.14 0.21 0.13 0.06 0.13 0.16 0.21 0.16 0.19 0.23 0.30 0.34 0.21 0.21 0.14 0.06 0.00 0.00 0.00 0.00 0.03 0.10 0.14 0.23
0.66 0.65 0.64 0.59 0.51 0.52 0.73 1.04 1.12 1.61 2.68 3.08 2.12 0.91 1.22 0.85 0.26 0.13 0.07 0.08 0.11 0.09 0.10 0.06 0.16 0.43 0.24 0.07 0.10 0.16 0.24 0.19 0.21 0.23 0.25 0.31 0.20 0.19 0.13 0.05 0.07 0.02 0.00 0.00 0.03 0.07 0.08
0.56 0.57 0.70 0.72 0.63 0.56 0.62 0.92 1.04 1.33 1.77 1.87 1.73 1.40 1.41 0.92 0.22 0.10 0.09 0.12 0.12 0.19 0.17 0.11 0.09 0.22 0.24 0.20 0.31 0.28 0.18 0.21 0.18 0.20 0.21 0.24 0.25 0.26 0.19 0.17 0.08 0.01 0.00 0.00 0.03 0.04 0.04
0.59 0.63 0.70 0.77 0.68 0.62 0.58 0.82 1.04 1.05 1.31 1.52 1.43 1.43 2.25 1.61 0.52 0.10 0.15 0.16 0.22 0.24 0.32 0.21 0.34 0.31 0.32 0.56 0.63 0.46 0.26 0.14 0.14 0.16 0.15 0.28 0.27 0.35 0.23 0.21 0.12 0.02 0.00 0.00 0.01 0.06 0.01
0.71 0.69 0.74 0.77 0.66 0.61 0.57 0.71 0.89 0.78 0.92 1.29 1.36 1.29 2.43 2.46 0.64 0.26 0.29 0.31 0.38 0.37 0.38 0.40 0.55 0.46 0.53 0.75 0.82 0.52 0.21 0.16 0.19 0.25 0.22 0.23 0.26 0.27 0.23 0.23 0.07 0.01 0.01 0.01 0.08 0.15 0.01
0.79 0.79 0.85 0.91 0.85 0.67 0.65 0.58 0.76 0.70 0.82 1.20 1.15 1.26 2.01 2.03 0.67 0.47 0.29 0.23 0.25 0.33 0.57 0.55 0.88 0.83 0.62 0.55 0.32 0.24 0.15 0.13 0.11 0.22 0.29 0.25 0.24 0.24 0.27 0.26 0.08 0.02 0.06 0.14 0.20 0.06 0.02
0.67 0.70 0.78 0.72 0.84 0.67 0.69 0.68 0.78 0.87 1.01 1.23 1.28 1.05 1.49 2.10 1.13 0.47 0.25 0.15 0.07 0.06 0.19 0.43 0.63 0.67 0.72 0.51 0.28 0.23 0.19 0.15 0.11 0.17 0.31 0.49 0.30 0.19 0.11 0.07 0.08 0.09 0.11 0.10 0.05 0.12 0.11

GFSGBSN_prec_precacc_078.txt.gz
Total_Precipitation_Accumulation
0.04 0.05 0.04 0.04 0.04 0.03 0.02 0.03 0.04 0.02 0.02 0.02 0.02 0.02 0.01 0.02 0.02 0.02 0.01 0.01 0.01 0.01 0.01 0.01 0.01 0.02 0.00 0.00 0.00 0.00 0.00 0.00 0.00 0.00 0.00 0.00 0.00 0.00 0.00 0.00 0.00 0.00 0.00 0.00 0.00 0.00 0.03
0.06 0.06 0.05 0.04 0.04 0.03 0.03 0.04 0.04 0.03 0.02 0.02 0.02 0.02 0.01 0.02 0.02 0.02 0.01 0.01 0.01 0.01 0.01 0.01 0.01 0.02 0.00 0.00 0.00 0.00 0.00 0.00 0.00 0.00 0.00 0.00 0.00 0.00 0.00 0.00 0.00 0.00 0.00 0.00 0.00 0.00 0.01
0.08 0.07 0.08 0.08 0.05 0.05 0.04 0.04 0.03 0.03 0.02 0.02 0.03 0.02 0.02 0.02 0.02 0.01 0.01 0.01 0.01 0.01 0.01 0.01 0.01 0.02 0.00 0.00 0.00 0.00 0.00 0.00 0.00 0.00 0.00 0.00 0.00 0.00 0.00 0.00 0.00 0.00 0.00 0.00 0.00 0.00 0.02
0.08 0.08 0.08 0.08 0.08 0.08 0.06 0.04 0.04 0.03 0.03 0.03 0.02 0.02 0.02 0.01 0.01 0.01 0.01 0.01 0.01 0.01 0.01 0.01 0.01 0.01 0.00 0.00 0.00 0.00 0.00 0.00 0.00 0.00 0.00 0.00 0.00 0.00 0.00 0.00 0.00 0.00 0.00 0.01 0.01 0.00 0.01
0.09 0.07 0.07 0.09 0.09 0.08 0.06 0.05 0.05 0.04 0.04 0.03 0.02 0.02 0.02 0.01 0.02 0.02 0.01 0.01 0.01 0.01 0.01 0.01 0.00 0.00 0.00 0.00 0.00 0.00 0.00 0.00 0.00 0.00 0.00 0.00 0.00 0.00 0.00 0.00 0.00 0.00 0.00 0.00 0.01 0.01 0.01
0.15 0.11 0.09 0.09 0.08 0.07 0.07 0.06 0.05 0.04 0.03 0.03 0.02 0.02 0.02 0.03 0.03 0.02 0.01 0.01 0.01 0.01 0.01 0.00 0.00 0.00 0.00 0.00 0.00 0.00 0.00 0.00 0.00 0.00 0.00 0.00 0.00 0.00 0.00 0.00 0.01 0.00 0.00 0.00 0.00 0.00 0.00
0.25 0.15 0.11 0.09 0.07 0.06 0.06 0.08 0.08 0.07 0.05 0.03 0.02 0.02 0.02 0.03 0.04 0.02 0.00 0.00 0.00 0.00 0.00 0.00 0.00 0.00 0.00 0.00 0.00 0.00 0.00 0.00 0.00 0.01 0.00 0.00 0.00 0.00 0.00 0.00 0.00 0.00 0.00 0.00 0.00 0.00 0.00
0.24 0.12 0.10 0.11 0.10 0.08 0.10 0.13 0.10 0.08 0.05 0.04 0.03 0.02 0.02 0.04 0.05 0.02 0.01 0.00 0.00 0.00 0.00 0.00 0.00 0.00 0.00 0.00 0.00 0.00 0.00 0.00 0.01 0.05 0.03 0.00 0.00 0.00 0.00 0.00 0.00 0.00 0.00 0.00 0.00 0.00 0.00
0.21 0.14 0.10 0.10 0.10 0.09 0.08 0.09 0.09 0.07 0.05 0.04 0.03 0.02 0.03 0.05 0.04 0.01 0.00 0.00 0.00 0.00 0.01 0.00 0.00 0.00 0.00 0.00 0.00 0.00 0.00 0.00 0.00 0.02 0.07 0.02 0.00 0.00 0.00 0.00 0.00 0.00 0.00 0.00 0.00 0.00 0.00
0.20 0.17 0.14 0.12 0.12 0.09 0.08 0.08 0.07 0.05 0.06 0.06 0.04 0.03 0.04 0.06 0.01 0.00 0.00 0.00 0.00 0.00 0.01 0.00 0.00 0.00 0.00 0.00 0.00 0.00 0.00 0.00 0.00 0.01 0.06 0.08 0.00 0.00 0.00 0.00 0.00 0.00 0.00 0.00 0.00 0.00 0.00
0.22 0.18 0.14 0.12 0.10 0.10 0.09 0.09 0.07 0.06 0.06 0.06 0.05 0.05 0.07 0.06 0.02 0.01 0.00 0.00 0.00 0.02 0.01 0.00 0.00 0.00 0.00 0.00 0.00 0.00 0.00 0.00 0.00 0.00 0.05 0.06 0.03 0.02 0.00 0.00 0.00 0.01 0.00 0.00 0.00 0.00 0.01
0.22 0.18 0.15 0.13 0.11 0.10 0.11 0.11 0.10 0.10 0.09 0.10 0.08 0.09 0.14 0.08 0.04 0.01 0.01 0.02 0.09 0.05 0.00 0.00 0.00 0.00 0.00 0.00 0.00 0.00 0.00 0.00 0.00 0.00 0.00 0.00 0.01 0.01 0.01 0.00 0.01 0.00 0.01 0.00 0.00 0.00 0.02
0.26 0.18 0.15 0.13 0.12 0.11 0.11 0.12 0.13 0.12 0.12 0.13 0.10 0.13 0.16 0.06 0.03 0.01 0.02 0.18 0.22 0.03 0.00 0.00 0.00 0.00 0.00 0.00 0.00 0.00 0.00 0.00 0.00 0.00 0.00 0.00 0.00 0.00 0.00 0.00 0.01 0.02 0.07 0.05 0.06 0.02 0.01
0.30 0.26 0.20 0.16 0.15 0.16 0.15 0.14 0.14 0.14 0.15 0.19 0.15 0.21 0.15 0.07 0.03 0.06 0.15 0.34 0.12 0.00 0.00 0.00 0.00 0.00 0.00 0.00 0.00 0.00 0.00 0.00 0.00 0.00 0.00 0.01 0.02 0.00 0.00 0.00 0.01 0.01 0.05 0.08 0.14 0.08 0.05
0.30 0.32 0.28 0.23 0.18 0.16 0.15 0.16 0.16 0.16 0.19 0.24 0.32 0.29 0.22 0.07 0.03 0.10 0.39 0.44 0.04 0.01 0.00 0.00 0.00 0.00 0.00 0.00 0.00 0.00 0.00 0.00 0.00 0.00 0.01 0.02 0.00 0.00 0.00 0.00 0.02 0.07 0.10 0.07 0.17 0.11 0.08
0.38 0.33 0.33 0.31 0.28 0.19 0.17 0.18 0.24 0.25 0.26 0.38 0.47 0.46 0.16 0.06 0.12 0.41 0.66 0.26 0.00 0.00 0.00 0.00 0.00 0.00 0.00 0.00 0.00 0.00 0.01 0.02 0.02 0.00 0.00 0.04 0.08 0.01 0.00 0.00 0.00 0.07 0.17 0.37 0.36 0.26 0.12
0.62 0.41 0.34 0.32 0.34 0.33 0.28 0.25 0.26 0.37 0.36 0.57 1.00 0.92 0.18 0.10 0.58 0.93 0.62 0.10 0.00 0.00 0.00 0.00 0.00 0.00 0.00 0.00 0.00 0.00 0.04 0.13 0.07 0.03 0.00 0.00 0.03 0.05 0.01 0.01 0.02 0.07 0.25 0.43 0.34 0.07 0.11
0.76 0.71 0.59 0.48 0.37 0.38 0.43 0.42 0.38 0.45 0.64 1.10 1.70 1.16 0.28 0.34 0.88 0.62 0.21 0.02 0.00 0.00 0.00 0.00 0.00 0.00 0.00 0.00 0.00 0.00 0.00 0.03 0.02 0.03 0.07 0.03 0.03 0.01 0.00 0.00 0.00 0.03 0.07 0.17 0.42 0.26 0.13
0.72 0.62 0.65 0.84 0.75 0.62 0.59 0.66 0.55 0.57 0.91 1.46 2.11 1.05 0.83 0.78 1.00 0.32 0.11 0.05 0.01 0.00 0.00 0.01 0.00 0.00 0.01 0.00 0.03 0.01 0.01 0.01 0.01 0.03 0.05 0.04 0.11 0.09 0.06 0.08 0.04 0.05 0.09 0.16 0.28 0.38 0.31
0.76 0.54 0.44 0.63 0.74 0.82 0.89 0.85 0.83 0.82 1.14 1.92 2.62 1.80 1.86 1.22 0.31 0.36 0.47 0.24 0.06 0.05 0.08 0.09 0.02 0.04 0.05 0.07 0.03 0.02 0.02 0.03 0.05 0.06 0.08 0.07 0.03 0.05 0.10 0.12 0.12 0.07 0.05 0.10 0.39 0.61 0.34
0.78 0.65 0.47 0.55 0.62 0.79 0.89 1.11 1.13 1.18 1.48 2.99 3.77 1.48 0.80 0.88 0.41 0.21 0.29 0.31 0.18 0.21 0.16 0.08 0.21 0.25 0.20 0.15 0.12 0.07 0.06 0.06 0.10 0.08 0.17 0.24 0.13 0.05 0.01 0.02 0.03 0.08 0.08 0.07 0.16 0.23 0.32
0.83 0.70 0.56 0.55 0.57 0.78 1.00 1.03 1.22 1.48 2.13 4.15 3.63 0.92 0.29 0.16 0.19 0.28 0.35 0.19 0.10 0.13 0.14 0.20 0.27 0.10 0.07 0.13 0.13 0.19 0.21 0.21 0.25 0.24 0.24 0.37 0.24 0.04 0.01 0.01 0.01 0.01 0.01 0.11 0.13 0.08 0.09
0.82 0.71 0.63 0.56 0.52 0.62 0.94 1.08 1.18 1.60 3.09 5.02 2.91 0.71 0.59 0.36 0.17 0.28 0.21 0.14 0.13 0.07 0.11 0.14 0.21 0.13 0.06 0.17 0.18 0.22 0.17 0.20 0.24 0.32 0.43 0.40 0.44 0.17 0.07 0.00 0.00 0.00 0.00 0.03 0.10 0.14 0.23
0.67 0.66 0.64 0.59 0.52 0.53 0.74 1.05 1.13 1.62 2.68 3.08 2.12 0.91 1.22 0.85 0.26 0.13 0.07 0.08 0.11 0.09 0.10 0.06 0.16 0.43 0.24 0.07 0.10 0.16 0.24 0.19 0.21 0.24 0.31 0.47 0.34 0.22 0.13 0.05 0.07 0.02 0.00 0.00 0.03 0.07 0.08
0.56 0.57 0.70 0.73 0.65 0.57 0.62 0.93 1.05 1.34 1.77 1.87 1.73 1.40 1.41 0.92 0.22 0.10 0.09 0.12 0.12 0.19 0.17 0.11 0.09 0.22 0.24 0.20 0.32 0.29 0.22 0.23 0.19 0.21 0.23 0.28 0.33 0.30 0.19 0.17 0.08 0.01 0.00 0.00 0.03 0.04 0.04
0.60 0.63 0.70 0.78 0.71 0.62 0.58 0.83 1.04 1.06 1.31 1.52 1.43 1.43 2.25 1.61 0.52 0.10 0.15 0.16 0.22 0.24 0.32 0.21 0.34 0.31 0.32 0.56 0.66 0.50 0.30 0.16 0.14 0.17 0.16 0.28 0.30 0.39 0.24 0.21 0.12 0.02 0.00 0.00 0.01 0.06 0.01
0.72 0.69 0.75 0.78 0.67 0.62 0.57 0.72 0.89 0.79 0.93 1.29 1.36 1.29 2.43 2.47 0.64 0.26 0.29 0.31 0.38 0.37 0.38 0.40 0.55 0.46 0.53 0.76 0.88 0.77 0.36 0.18 0.21 0.27 0.25 0.24 0.28 0.29 0.24 0.24 0.07 0.01 0.01 0.01 0.08 0.15 0.01
0.80 0.80 0.86 0.92 0.86 0.67 0.65 0.59 0.76 0.72 0.83 1.20 1.15 1.26 2.01 2.03 0.67 0.47 0.29 0.23 0.25 0.34 0.57 0.55 0.88 0.83 0.62 0.57 0.38 0.47 0.32 0.15 0.15 0.26 0.33 0.29 0.27 0.25 0.28 0.26 0.08 0.02 0.06 0.14 0.20 0.06 0.02
0.68 0.71 0.81 0.73 0.86 0.68 0.69 0.68 0.78 0.88 1.02 1.23 1.29 1.05 1.50 2.10 1.13 0.47 0.25 0.15 0.07 0.06 0.19 0.43 0.63 0.67 0.73 0.55 0.30 0.27 0.25 0.16 0.13 0.22 0.36 0.52 0.33 0.23 0.12 0.08 0.08 0.09 0.11 0.10 0.06 0.12 0.11

GFSGBSN_prec_precacc_084.txt.gz
Total_Precipitation_Accumulation
0.07 0.07 0.06 0.04 0.04 0.03 0.02 0.03 0.04 0.02 0.02 0.02 0.02 0.02 0.01 0.02 0.02 0.02 0.01 0.01 0.01 0.01 0.01 0.01 0.01 0.02 0.00 0.00 0.00 0.00 0.00 0.00 0.00 0.00 0.00 0.00 0.00 0.00 0.00 0.00 0.00 0.00 0.00 0.00 0.00 0.00 0.03
0.12 0.10 0.07 0.05 0.05 0.03 0.03 0.04 0.04 0.03 0.02 0.02 0.02 0.02 0.01 0.02 0.02 0.02 0.01 0.01 0.01 0.01 0.01 0.01 0.01 0.02 0.00 0.00 0.00 0.00 0.00 0.00 0.00 0.00 0.00 0.00 0.00 0.00 0.00 0.00 0.00 0.00 0.00 0.00 0.00 0.00 0.01
0.17 0.14 0.13 0.11 0.07 0.06 0.05 0.04 0.03 0.03 0.02 0.02 0.03 0.02 0.02 0.02 0.02 0.01 0.01 0.01 0.01 0.01 0.01 0.01 0.01 0.02 0.00 0.00 0.00 0.00 0.00 0.00 0.00 0.00 0.00 0.00 0.00 0.00 0.00 0.00 0.00 0.00 0.00 0.00 0.00 0.00 0.02
0.28 0.24 0.19 0.15 0.13 0.11 0.08 0.05 0.04 0.03 0.03 0.03 0.02 0.02 0.02 0.01 0.01 0.01 0.01 0.01 0.01 0.01 0.01 0.01 0.01 0.01 0.00 0.00 0.00 0.00 0.00 0.00 0.00 0.00 0.00 0.00 0.00 0.00 0.00 0.00 0.00 0.00 0.00 0.01 0.01 0.00 0.01
0.37 0.27 0.21 0.19 0.17 0.13 0.10 0.06 0.05 0.04 0.04 0.03 0.02 0.02 0.02 0.01 0.02 0.02 0.01 0.01 0.01 0.01 0.01 0.01 0.00 0.00 0.00 0.00 0.00 0.00 0.00 0.00 0.00 0.00 0.00 0.00 0.00 0.00 0.00 0.00 0.00 0.00 0.00 0.00 0.01 0.01 0.01
0.52 0.37 0.27 0.24 0.20 0.16 0.12 0.09 0.06 0.05 0.03 0.03 0.02 0.02 0.02 0.03 0.03 0.02 0.01 0.01 0.01 0.01 0.01 0.00 0.00 0.00 0.00 0.00 0.00 0.00 0.00 0.00 0.00 0.00 0.00 0.00 0.00 0.00 0.00 0.00 0.01 0.00 0.00 0.00 0.00 0.00 0.00
0.59 0.43 0.30 0.23 0.17 0.13 0.10 0.10 0.09 0.07 0.05 0.03 0.02 0.02 0.02 0.03 0.04 0.02 0.00 0.00 0.00 0.00 0.00 0.00 0.00 0.00 0.00 0.00 0.00 0.00 0.00 0.00 0.00 0.01 0.00 0.00 0.00 0.00 0.00 0.00 0.00 0.00 0.00 0.00 0.00 0.00 0.00
0.66 0.42 0.29 0.23 0.17 0.12 0.12 0.14 0.10 0.09 0.05 0.04 0.03 0.02 0.02 0.04 0.05 0.02 0.01 0.00 0.00 0.00 0.00 0.00 0.00 0.00 0.00 0.00 0.00 0.00 0.00 0.00 0.01 0.05 0.03 0.00 0.00 0.00 0.00 0.00 0.00 0.00 0.00 0.00 0.00 0.00 0.00
0.64 0.43 0.31 0.26 0.20 0.15 0.12 0.12 0.10 0.07 0.05 0.04 0.03 0.02 0.03 0.05 0.04 0.01 0.00 0.00 0.00 0.00 0.01 0.00 0.00 0.00 0.00 0.00 0.00 0.00 0.00 0.00 0.00 0.02 0.07 0.02 0.00 0.00 0.00 0.00 0.00 0.00 0.00 0.00 0.00 0.00 0.00
0.60 0.42 0.34 0.31 0.26 0.17 0.13 0.11 0.07 0.05 0.06 0.06 0.04 0.03 0.04 0.06 0.01 0.00 0.00 0.00 0.00 0.00 0.01 0.00 0.00 0.00 0.00 0.00 0.00 0.00 0.00 0.00 0.00 0.01 0.06 0.08 0.00 0.00 0.00 0.00 0.00 0.00 0.00 0.00 0.00 0.00 0.00
0.70 0.53 0.40 0.35 0.26 0.17 0.13 0.10 0.07 0.06 0.06 0.06 0.05 0.05 0.07 0.06 0.02 0.01 0.00 0.00 0.00 0.02 0.01 0.00 0.00 0.00 0.00 0.00 0.00 0.00 0.00 0.00 0.00 0.00 0.05 0.06 0.03 0.02 0.00 0.00 0.00 0.01 0.00 0.00 0.00 0.00 0.01
0.57 0.47 0.39 0.33 0.23 0.17 0.14 0.11 0.10 0.10 0.09 0.10 0.08 0.09 0.14 0.08 0.04 0.01 0.01 0.02 0.09 0.05 0.00 0.00 0.00 0.00 0.00 0.00 0.00 0.00 0.00 0.00 0.00 0.00 0.00 0.00 0.01 0.01 0.01 0.00 0.01 0.00 0.01 0.00 0.00 0.00 0.02
0.49 0.41 0.31 0.24 0.18 0.15 0.13 0.14 0.13 0.12 0.12 0.13 0.10 0.13 0.16 0.06 0.03 0.01 0.02 0.18 0.22 0.03 0.00 0.00 0.00 0.00 0.00 0.00 0.00 0.00 0.00 0.00 0.00 0.00 0.00 0.00 0.00 0.00 0.00 0.00 0.01 0.02 0.07 0.06 0.06 0.03 0.01
0.42 0.39 0.30 0.23 0.19 0.19 0.17 0.15 0.14 0.14 0.15 0.19 0.15 0.21 0.15 0.07 0.03 0.06 0.15 0.34 0.12 0.00 0.00 0.00 0.00 0.00 0.00 0.00 0.00 0.00 0.00 0.00 0.00 0.00 0.00 0.01 0.02 0.00 0.00 0.00 0.01 0.01 0.05 0.09 0.14 0.09 0.06
0.36 0.39 0.32 0.26 0.20 0.18 0.16 0.17 0.16 0.16 0.19 0.24 0.32 0.29 0.22 0.07 0.03 0.10 0.39 0.44 0.04 0.01 0.00 0.00 0.00 0.00 0.00 0.00 0.00 0.00 0.00 0.00 0.00 0.00 0.01 0.02 0.00 0.00 0.00 0.00 0.02 0.09 0.10 0.07 0.18 0.11 0.09
0.43 0.36 0.35 0.32 0.30 0.21 0.18 0.18 0.24 0.25 0.26 0.38 0.47 0.46 0.16 0.06 0.12 0.41 0.66 0.26 0.00 0.00 0.00 0.00 0.00 0.00 0.00 0.00 0.00 0.00 0.01 0.02 0.03 0.01 0.00 0.04 0.08 0.01 0.00 0.00 0.00 0.08 0.20 0.46 0.50 0.30 0.15
0.63 0.41 0.34 0.33 0.35 0.33 0.28 0.25 0.26 0.37 0.36 0.57 1.00 0.92 0.18 0.10 0.58 0.93 0.62 0.10 0.00 0.00 0.00 0.00 0.00 0.00 0.00 0.00 0.00 0.00 0.04 0.13 0.08 0.06 0.02 0.02 0.05 0.06 0.04 0.02 0.03 0.09 0.27 0.47 0.40 0.12 0.19
0.76 0.71 0.59 0.48 0.37 0.38 0.43 0.42 0.38 0.45 0.64 1.10 1.70 1.16 0.28 0.34 0.88 0.62 0.21 0.02 0.00 0.00 0.00 0.00 0.00 0.00 0.00 0.00 0.00 0.00 0.00 0.03 0.02 0.04 0.10 0.14 0.12 0.05 0.01 0.00 0.00 0.04 0.09 0.24 0.51 0.33 0.20
0.72 0.62 0.65 0.84 0.76 0.62 0.59 0.66 0.55 0.57 0.91 1.46 2.11 1.05 0.83 0.78 1.00 0.32 0.11 0.05 0.01 0.00 0.00 0.01 0.00 0.01 0.01 0.00 0.03 0.01 0.01 0.01 0.01 0.04 0.10 0.07 0.19 0.17 0.09 0.11 0.06 0.06 0.11 0.20 0.35 0.44 0.34
0.77 0.54 0.44 0.63 0.74 0.83 0.89 0.85 0.83 0.82 1.14 1.92 2.62 1.80 1.86 1.22 0.31 0.36 0.47 0.24 0.06 0.05 0.09 0.09 0.03 0.05 0.05 0.07 0.05 0.04 0.02 0.03 0.05 0.06 0.12 0.14 0.07 0.10 0.13 0.21 0.25 0.17 0.12 0.15 0.46 0.66 0.38
0.80 0.65 0.47 0.55 0.62 0.79 0.89 1.11 1.13 1.18 1.48 2.99 3.77 1.48 0.80 0.88 0.41 0.21 0.29 0.31 0.18 0.21 0.16 0.08 0.21 0.26 0.20 0.15 0.13 0.10 0.11 0.09 0.10 0.09 0.20 0.31 0.20 0.08 0.04 0.02 0.08 0.17 0.17 0.13 0.22 0.27 0.34
0.85 0.71 0.56 0.55 0.57 0.78 1.00 1.03 1.22 1.48 2.13 4.15 3.63 0.92 0.29 0.16 0.19 0.28 0.35 0.19 0.10 0.13 0.14 0.20 0.27 0.10 0.07 0.13 0.14 0.21 0.24 0.26 0.30 0.31 0.37 0.53 0.35 0.10 0.06 0.03 0.03 0.03 0.04 0.18 0.21 0.14 0.12
0.83 0.71 0.63 0.56 0.52 0.62 0.94 1.08 1.18 1.60 3.09 5.02 2.91 0.71 0.59 0.36 0.17 0.28 0.21 0.14 0.13 0.07 0.11 0.14 0.21 0.13 0.07 0.17 0.18 0.22 0.17 0.20 0.25 0.35 0.48 0.52 0.65 0.41 0.17 0.05 0.05 0.02 0.00 0.03 0.11 0.16 0.24
0.67 0.66 0.65 0.59 0.52 0.53 0.74 1.05 1.13 1.62 2.68 3.08 2.12 0.91 1.22 0.86 0.26 0.13 0.07 0.08 0.11 0.09 0.10 0.06 0.16 0.43 0.24 0.07 0.10 0.16 0.25 0.20 0.22 0.24 0.34 0.56 0.49 0.53 0.35 0.15 0.22 0.03 0.00 0.00 0.03 0.10 0.12
0.56 0.57 0.70 0.74 0.66 0.57 0.63 0.93 1.05 1.34 1.77 1.87 1.73 1.40 1.42 0.92 0.22 0.10 0.09 0.12 0.12 0.19 0.17 0.11 0.09 0.22 0.24 0.20 0.33 0.29 0.23 0.29 0.22 0.22 0.25 0.32 0.48 0.56 0.49 0.45 0.19 0.02 0.00 0.00 0.05 0.18 0.05
0.60 0.64 0.70 0.78 0.71 0.64 0.58 0.83 1.04 1.06 1.31 1.53 1.43 1.43 2.25 1.63 0.52 0.10 0.15 0.16 0.22 0.24 0.33 0.22 0.34 0.31 0.33 0.58 0.69 0.53 0.35 0.23 0.22 0.23 0.17 0.31 0.38 0.65 0.41 0.56 0.34 0.18 0.01 0.00 0.01 0.14 0.02
0.73 0.70 0.76 0.79 0.68 0.64 0.58 0.72 0.89 0.79 0.93 1.30 1.37 1.29 2.44 2.48 0.64 0.26 0.29 0.31 0.38 0.38 0.39 0.42 0.56 0.46 0.54 0.79 0.94 0.90 0.53 0.22 0.31 0.32 0.29 0.27 0.31 0.37 0.38 0.48 0.33 0.12 0.02 0.01 0.08 0.18 0.01
0.80 0.81 0.88 0.93 0.88 0.70 0.66 0.59 0.76 0.73 0.84 1.22 1.18 1.26 2.02 2.04 0.68 0.47 0.29 0.23 0.25 0.34 0.59 0.58 0.91 0.89 0.64 0.63 0.49 0.59 0.70 0.36 0.31 0.34 0.40 0.37 0.35 0.31 0.36 0.38 0.17 0.02 0.07 0.14 0.21 0.07 0.02
0.68 0.72 0.83 0.75 0.88 0.71 0.71 0.69 0.78 0.89 1.03 1.25 1.34 1.06 1.50 2.11 1.14 0.47 0.25 0.15 0.07 0.06 0.19 0.44 0.64 0.69 0.76 0.61 0.35 0.35 0.42 0.34 0.35 0.48 0.50 0.66 0.44 0.55 0.31 0.26 0.11 0.09 0.11 0.10 0.06 0.12 0.11

GFSGBSN_prec_precacc_087.txt.gz
Total_Precipitation_Accumulation
0.08 0.08 0.07 0.06 0.04 0.03 0.02 0.03 0.04 0.02 0.02 0.02 0.02 0.02 0.01 0.02 0.02 0.02 0.01 0.01 0.01 0.01 0.01 0.01 0.01 0.02 0.00 0.00 0.00 0.00 0.00 0.00 0.00 0.00 0.00 0.00 0.00 0.00 0.00 0.00 0.00 0.00 0.00 0.00 0.00 0.00 0.03
0.16 0.13 0.10 0.08 0.07 0.03 0.04 0.04 0.04 0.03 0.02 0.02 0.02 0.02 0.01 0.02 0.02 0.02 0.01 0.01 0.01 0.01 0.01 0.01 0.01 0.02 0.00 0.00 0.00 0.00 0.00 0.00 0.00 0.00 0.00 0.00 0.00 0.00 0.00 0.00 0.00 0.00 0.00 0.00 0.00 0.00 0.01
0.22 0.18 0.17 0.16 0.13 0.09 0.06 0.05 0.04 0.03 0.02 0.02 0.03 0.02 0.02 0.02 0.02 0.01 0.01 0.01 0.01 0.01 0.01 0.01 0.01 0.02 0.00 0.00 0.00 0.00 0.00 0.00 0.00 0.00 0.00 0.00 0.00 0.00 0.00 0.00 0.00 0.00 0.00 0.00 0.00 0.00 0.02
0.35 0.33 0.31 0.29 0.25 0.19 0.13 0.10 0.08 0.05 0.03 0.03 0.02 0.02 0.02 0.01 0.01 0.01 0.01 0.01 0.01 0.01 0.01 0.01 0.01 0.01 0.00 0.00 0.00 0.00 0.00 0.00 0.00 0.00 0.00 0.00 0.00 0.00 0.00 0.00 0.00 0.00 0.00 0.01 0.01 0.00 0.01
0.44 0.37 0.31 0.31 0.27 0.22 0.16 0.12 0.11 0.07 0.05 0.04 0.02 0.02 0.02 0.01 0.02 0.02 0.01 0.01 0.01 0.01 0.01 0.01 0.00 0.00 0.00 0.00 0.00 0.00 0.00 0.00 0.00 0.00 0.00 0.00 0.00 0.00 0.00 0.00 0.00 0.00 0.00 0.00 0.01 0.01 0.01
0.59 0.48 0.40 0.37 0.30 0.25 0.21 0.18 0.15 0.11 0.10 0.07 0.04 0.02 0.02 0.03 0.03 0.02 0.01 0.01 0.01 0.01 0.01 0.00 0.00 0.00 0.00 0.00 0.00 0.00 0.00 0.00 0.00 0.00 0.00 0.00 0.00 0.00 0.00 0.00 0.01 0.00 0.00 0.00 0.00 0.00 0.00
0.69 0.55 0.45 0.38 0.27 0.21 0.17 0.17 0.14 0.11 0.08 0.06 0.03 0.02 0.02 0.03 0.04 0.02 0.00 0.00 0.00 0.00 0.00 0.00 0.00 0.00 0.00 0.00 0.00 0.00 0.00 0.00 0.00 0.01 0.00 0.00 0.00 0.00 0.00 0.00 0.00 0.00 0.00 0.00 0.00 0.00 0.00
0.79 0.59 0.46 0.36 0.27 0.22 0.18 0.17 0.12 0.09 0.06 0.05 0.03 0.02 0.02 0.04 0.05 0.02 0.01 0.00 0.00 0.00 0.00 0.00 0.00 0.00 0.00 0.00 0.00 0.00 0.00 0.00 0.01 0.05 0.03 0.00 0.00 0.00 0.00 0.00 0.00 0.00 0.00 0.00 0.00 0.00 0.00
0.76 0.57 0.45 0.40 0.32 0.25 0.18 0.16 0.13 0.09 0.06 0.04 0.03 0.02 0.03 0.05 0.04 0.01 0.00 0.00 0.00 0.00 0.01 0.00 0.00 0.00 0.00 0.00 0.00 0.00 0.00 0.00 0.00 0.02 0.07 0.02 0.00 0.00 0.00 0.00 0.00 0.00 0.00 0.00 0.00 0.00 0.00
0.91 0.72 0.57 0.49 0.39 0.27 0.23 0.20 0.14 0.09 0.07 0.06 0.04 0.03 0.04 0.06 0.01 0.00 0.00 0.00 0.00 0.00 0.01 0.00 0.00 0.00 0.00 0.00 0.00 0.00 0.00 0.00 0.00 0.01 0.06 0.08 0.00 0.00 0.00 0.00 0.00 0.00 0.00 0.00 0.00 0.00 0.00
0.92 0.77 0.63 0.55 0.41 0.31 0.24 0.20 0.13 0.08 0.06 0.06 0.05 0.05 0.07 0.06 0.02 0.01 0.00 0.00 0.00 0.02 0.01 0.00 0.00 0.00 0.00 0.00 0.00 0.00 0.00 0.00 0.00 0.00 0.05 0.06 0.03 0.02 0.00 0.00 0.00 0.01 0.00 0.00 0.00 0.00 0.01
0.74 0.63 0.57 0.53 0.40 0.29 0.23 0.17 0.12 0.10 0.09 0.10 0.08 0.09 0.14 0.08 0.04 0.01 0.01 0.02 0.09 0.05 0.00 0.00 0.00 0.00 0.00 0.00 0.00 0.00 0.00 0.00 0.00 0.00 0.00 0.00 0.01 0.01 0.01 0.00 0.01 0.00 0.01 0.00 0.00 0.00 0.02
0.77 0.67 0.52 0.39 0.30 0.24 0.22 0.19 0.16 0.13 0.12 0.13 0.10 0.13 0.16 0.06 0.03 0.01 0.02 0.18 0.22 0.03 0.00 0.00 0.00 0.00 0.00 0.00 0.00 0.00 0.00 0.00 0.00 0.00 0.00 0.00 0.00 0.00 0.00 0.00 0.01 0.02 0.07 0.06 0.06 0.03 0.01
0.60 0.54 0.40 0.30 0.25 0.24 0.24 0.21 0.17 0.16 0.15 0.19 0.15 0.21 0.15 0.07 0.03 0.06 0.15 0.34 0.12 0.00 0.00 0.00 0.00 0.00 0.00 0.00 0.00 0.00 0.00 0.00 0.00 0.00 0.00 0.01 0.02 0.00 0.00 0.00 0.01 0.01 0.05 0.09 0.14 0.09 0.06
0.43 0.45 0.38 0.31 0.25 0.23 0.21 0.19 0.17 0.17 0.20 0.25 0.32 0.29 0.22 0.07 0.03 0.10 0.39 0.44 0.04 0.01 0.00 0.00 0.00 0.00 0.00 0.00 0.00 0.00 0.00 0.00 0.00 0.00 0.01 0.02 0.00 0.00 0.00 0.00 0.02 0.09 0.10 0.07 0.18 0.11 0.09
0.47 0.40 0.37 0.34 0.33 0.23 0.19 0.19 0.25 0.25 0.27 0.38 0.48 0.46 0.16 0.06 0.12 0.41 0.66 0.26 0.00 0.00 0.00 0.00 0.00 0.00 0.00 0.00 0.00 0.00 0.01 0.02 0.03 0.01 0.00 0.04 0.08 0.01 0.00 0.01 0.00 0.08 0.20 0.47 0.54 0.34 0.16
0.64 0.42 0.35 0.35 0.37 0.34 0.28 0.25 0.26 0.37 0.36 0.57 1.00 0.92 0.18 0.10 0.58 0.93 0.62 0.10 0.00 0.00 0.00 0.00 0.00 0.00 0.00 0.00 0.00 0.00 0.04 0.13 0.08 0.06 0.02 0.02 0.06 0.06 0.04 0.03 0.04 0.10 0.28 0.47 0.43 0.16 0.21
0.77 0.71 0.59 0.49 0.37 0.38 0.43 0.42 0.38 0.45 0.64 1.10 1.70 1.16 0.28 0.34 0.88 0.62 0.21 0.02 0.00 0.00 0.00 0.00 0.00 0.00 0.00 0.00 0.00 0.00 0.00 0.03 0.02 0.04 0.10 0.14 0.12 0.05 0.01 0.00 0.00 0.06 0.12 0.27 0.54 0.34 0.22
0.73 0.62 0.65 0.85 0.76 0.62 0.60 0.66 0.55 0.57 0.91 1.46 2.11 1.05 0.83 0.78 1.00 0.32 0.11 0.05 0.01 0.00 0.00 0.01 0.00 0.01 0.01 0.00 0.03 0.01 0.01 0.01 0.01 0.04 0.10 0.08 0.19 0.17 0.09 0.11 0.08 0.09 0.16 0.24 0.40 0.51 0.41
0.77 0.54 0.44 0.63 0.75 0.83 0.89 0.85 0.83 0.82 1.14 1.92 2.62 1.80 1.86 1.22 0.31 0.36 0.47 0.24 0.06 0.05 0.09 0.09 0.03 0.05 0.05 0.07 0.05 0.04 0.02 0.03 0.05 0.06 0.12 0.14 0.08 0.10 0.13 0.22 0.29 0.20 0.14 0.19 0.57 0.81 0.49
0.80 0.65 0.47 0.55 0.62 0.79 0.89 1.11 1.13 1.18 1.48 2.99 3.77 1.48 0.80 0.88 0.41 0.21 0.29 0.31 0.18 0.21 0.16 0.08 0.21 0.26 0.20 0.15 0.13 0.10 0.11 0.09 0.10 0.09 0.20 0.32 0.20 0.08 0.04 0.02 0.10 0.19 0.18 0.16 0.26 0.31 0.41
0.85 0.71 0.56 0.55 0.57 0.78 1.00 1.03 1.22 1.48 2.13 4.15 3.63 0.92 0.29 0.16 0.19 0.28 0.35 0.19 0.10 0.13 0.14 0.20 0.27 0.10 0.07 0.13 0.14 0.21 0.24 0.26 0.30 0.31 0.37 0.54 0.38 0.14 0.07 0.03 0.03 0.03 0.04 0.20 0.22 0.16 0.18
0.83 0.71 0.63 0.56 0.52 0.62 0.94 1.08 1.18 1.60 3.09 5.02 2.91 0.71 0.59 0.36 0.17 0.28 0.21 0.14 0.13 0.07 0.11 0.14 0.21 0.13 0.07 0.17 0.18 0.22 0.17 0.20 0.25 0.35 0.48 0.52 0.67 0.47 0.21 0.06 0.05 0.03 0.00 0.04 0.12 0.19 0.31
0.68 0.66 0.65 0.59 0.52 0.53 0.74 1.05 1.13 1.62 2.68 3.08 2.12 0.91 1.22 0.86 0.26 0.13 0.07 0.08 0.11 0.09 0.10 0.06 0.16 0.43 0.24 0.07 0.10 0.16 0.25 0.20 0.22 0.24 0.34 0.56 0.50 0.56 0.37 0.16 0.23 0.03 0.00 0.01 0.09 0.18 0.24
0.57 0.57 0.70 0.74 0.66 0.57 0.63 0.93 1.05 1.34 1.77 1.87 1.73 1.40 1.42 0.92 0.22 0.10 0.09 0.12 0.12 0.19 0.17 0.11 0.09 0.22 0.24 0.20 0.33 0.29 0.23 0.29 0.22 0.22 0.25 0.33 0.49 0.59 0.54 0.48 0.21 0.08 0.07 0.06 0.08 0.20 0.06
0.60 0.64 0.70 0.79 0.71 0.64 0.58 0.83 1.04 1.06 1.31 1.53 1.43 1.43 2.25 1.63 0.52 0.10 0.15 0.16 0.22 0.24 0.33 0.22 0.34 0.31 0.33 0.59 0.70 0.54 0.35 0.23 0.23 0.26 0.18 0.31 0.40 0.67 0.45 0.63 0.52 0.65 0.21 0.04 0.04 0.16 0.03
0.73 0.70 0.76 0.79 0.68 0.65 0.58 0.72 0.89 0.79 0.93 1.30 1.37 1.29 2.44 2.48 0.64 0.26 0.29 0.31 0.38 0.38 0.39 0.42 0.56 0.46 0.55 0.79 0.95 0.95 0.54 0.23 0.35 0.45 0.30 0.27 0.32 0.38 0.39 0.55 0.54 0.37 0.11 0.01 0.11 0.26 0.02
0.80 0.81 0.88 0.94 0.88 0.71 0.66 0.59 0.76 0.73 0.84 1.22 1.19 1.26 2.02 2.04 0.68 0.47 0.29 0.23 0.25 0.34 0.59 0.58 0.91 0.89 0.64 0.63 0.53 0.61 0.71 0.37 0.51 0.69 0.42 0.38 0.36 0.35 0.44 0.62 0.48 0.04 0.07 0.16 0.26 0.08 0.02
0.68 0.72 0.83 0.76 0.88 0.72 0.72 0.69 0.78 0.89 1.03 1.25 1.35 1.06 1.50 2.11 1.14 0.47 0.25 0.15 0.07 0.06 0.19 0.44 0.65 0.70 0.76 0.61 0.36 0.35 0.42 0.45 0.53 0.61 0.61 0.97 0.65 0.81 0.51 0.47 0.20 0.10 0.12 0.12 0.07 0.13 0.12

GFSGBSN_prec_precacc_090.txt.gz
Total_Precipitation_Accumulation
0.08 0.08 0.07 0.06 0.04 0.04 0.02 0.03 0.04 0.02 0.02 0.02 0.02 0.02 0.01 0.02 0.02 0.02 0.01 0.01 0.01 0.01 0.01 0.01 0.01 0.02 0.00 0.00 0.00 0.00 0.00 0.00 0.00 0.00 0.00 0.00 0.00 0.00 0.00 0.00 0.00 0.00 0.00 0.00 0.00 0.00 0.03
0.17 0.14 0.11 0.09 0.08 0.06 0.06 0.07 0.05 0.04 0.03 0.03 0.02 0.02 0.01 0.02 0.02 0.02 0.01 0.01 0.01 0.01 0.01 0.01 0.01 0.02 0.00 0.00 0.00 0.00 0.00 0.00 0.00 0.00 0.00 0.00 0.00 0.00 0.00 0.00 0.00 0.00 0.00 0.00 0.00 0.00 0.01
0.23 0.19 0.19 0.18 0.15 0.14 0.12 0.11 0.08 0.06 0.04 0.04 0.03 0.02 0.02 0.02 0.02 0.01 0.01 0.01 0.01 0.01 0.01 0.01 0.01 0.02 0.00 0.00 0.00 0.00 0.00 0.00 0.00 0.00 0.00 0.00 0.00 0.00 0.00 0.00 0.00 0.00 0.00 0.00 0.00 0.00 0.02
0.36 0.34 0.33 0.32 0.31 0.29 0.25 0.21 0.19 0.16 0.12 0.09 0.06 0.03 0.02 0.01 0.01 0.01 0.01 0.01 0.01 0.01 0.01 0.01 0.02 0.01 0.00 0.00 0.00 0.00 0.00 0.00 0.00 0.00 0.00 0.00 0.00 0.00 0.00 0.00 0.00 0.00 0.00 0.01 0.01 0.00 0.01
0.44 0.37 0.33 0.33 0.32 0.28 0.27 0.24 0.21 0.16 0.13 0.10 0.06 0.03 0.02 0.01 0.02 0.02 0.01 0.01 0.01 0.01 0.01 0.01 0.01 0.00 0.00 0.00 0.00 0.00 0.00 0.00 0.00 0.00 0.00 0.00 0.00 0.00 0.00 0.00 0.00 0.00 0.00 0.00 0.01 0.01 0.01
0.60 0.49 0.42 0.40 0.37 0.34 0.31 0.28 0.23 0.19 0.16 0.12 0.08 0.05 0.03 0.03 0.03 0.02 0.01 0.01 0.01 0.01 0.01 0.00 0.00 0.00 0.00 0.00 0.00 0.00 0.00 0.00 0.00 0.00 0.00 0.00 0.00 0.00 0.00 0.00 0.01 0.00 0.00 0.00 0.00 0.00 0.00
0.70 0.56 0.47 0.42 0.34 0.29 0.25 0.22 0.19 0.15 0.11 0.07 0.05 0.04 0.03 0.04 0.04 0.02 0.00 0.00 0.00 0.00 0.00 0.00 0.00 0.00 0.00 0.00 0.00 0.00 0.00 0.00 0.00 0.01 0.00 0.00 0.00 0.00 0.00 0.00 0.00 0.00 0.00 0.00 0.00 0.00 0.00
0.81 0.61 0.51 0.45 0.37 0.31 0.25 0.26 0.20 0.14 0.08 0.06 0.04 0.03 0.03 0.04 0.05 0.02 0.01 0.00 0.00 0.00 0.00 0.00 0.00 0.00 0.00 0.00 0.00 0.00 0.00 0.00 0.01 0.05 0.03 0.00 0.00 0.00 0.00 0.00 0.00 0.00 0.00 0.00 0.00 0.00 0.00
0.78 0.61 0.54 0.52 0.44 0.39 0.35 0.32 0.24 0.14 0.09 0.06 0.04 0.02 0.03 0.05 0.04 0.01 0.00 0.00 0.00 0.00 0.01 0.00 0.00 0.00 0.00 0.00 0.00 0.00 0.00 0.00 0.00 0.02 0.07 0.02 0.00 0.00 0.00 0.00 0.00 0.00 0.00 0.00 0.00 0.00 0.00
1.02 0.92 0.80 0.72 0.60 0.48 0.42 0.33 0.22 0.15 0.11 0.07 0.04 0.03 0.04 0.06 0.01 0.00 0.00 0.00 0.00 0.00 0.01 0.00 0.00 0.00 0.00 0.00 0.00 0.00 0.00 0.00 0.00 0.01 0.06 0.08 0.00 0.00 0.00 0.00 0.00 0.00 0.00 0.00 0.00 0.00 0.00
1.24 1.17 1.01 0.88 0.71 0.53 0.42 0.34 0.25 0.15 0.08 0.06 0.05 0.05 0.07 0.06 0.02 0.01 0.00 0.00 0.00 0.02 0.01 0.00 0.00 0.00 0.00 0.00 0.00 0.00 0.00 0.00 0.00 0.00 0.05 0.06 0.03 0.02 0.00 0.00 0.00 0.01 0.00 0.00 0.00 0.00 0.01
0.96 0.93 0.92 0.81 0.66 0.55 0.46 0.35 0.21 0.12 0.10 0.10 0.08 0.09 0.14 0.08 0.04 0.01 0.01 0.02 0.09 0.05 0.00 0.00 0.00 0.00 0.00 0.00 0.00 0.00 0.00 0.00 0.00 0.00 0.00 0.00 0.01 0.01 0.01 0.00 0.01 0.00 0.01 0.00 0.00 0.00 0.02
0.95 0.94 0.83 0.65 0.51 0.46 0.41 0.31 0.22 0.15 0.13 0.13 0.10 0.13 0.16 0.06 0.03 0.01 0.02 0.18 0.22 0.04 0.00 0.00 0.00 0.00 0.00 0.00 0.00 0.00 0.00 0.00 0.00 0.00 0.00 0.00 0.00 0.00 0.00 0.00 0.01 0.02 0.07 0.06 0.06 0.03 0.01
0.66 0.63 0.51 0.42 0.36 0.33 0.28 0.23 0.18 0.16 0.15 0.19 0.15 0.21 0.15 0.07 0.03 0.06 0.15 0.34 0.12 0.00 0.00 0.00 0.00 0.00 0.00 0.00 0.00 0.00 0.00 0.00 0.00 0.00 0.00 0.01 0.02 0.00 0.00 0.00 0.01 0.01 0.05 0.09 0.14 0.09 0.06
0.44 0.48 0.42 0.34 0.28 0.26 0.23 0.22 0.17 0.18 0.20 0.25 0.33 0.29 0.22 0.08 0.03 0.10 0.39 0.44 0.04 0.01 0.00 0.00 0.00 0.00 0.00 0.00 0.00 0.00 0.00 0.00 0.00 0.00 0.01 0.02 0.00 0.00 0.00 0.00 0.02 0.09 0.10 0.07 0.18 0.11 0.09
0.47 0.41 0.38 0.35 0.35 0.24 0.20 0.19 0.25 0.25 0.28 0.39 0.49 0.47 0.17 0.06 0.12 0.41 0.66 0.26 0.00 0.00 0.00 0.00 0.00 0.00 0.00 0.00 0.00 0.00 0.01 0.02 0.03 0.01 0.00 0.04 0.08 0.01 0.00 0.01 0.01 0.08 0.21 0.49 0.55 0.35 0.16
0.64 0.43 0.36 0.37 0.40 0.35 0.29 0.25 0.26 0.37 0.37 0.58 1.01 0.92 0.18 0.10 0.58 0.93 0.62 0.10 0.00 0.00 0.00 0.00 0.00 0.00 0.00 0.00 0.00 0.00 0.04 0.13 0.08 0.06 0.02 0.02 0.06 0.06 0.04 0.03 0.04 0.10 0.28 0.49 0.45 0.17 0.21
0.77 0.71 0.60 0.51 0.38 0.38 0.43 0.42 0.38 0.45 0.64 1.10 1.70 1.16 0.28 0.34 0.88 0.62 0.22 0.02 0.00 0.00 0.00 0.00 0.00 0.00 0.00 0.00 0.00 0.00 0.00 0.03 0.02 0.04 0.10 0.14 0.12 0.05 0.01 0.00 0.00 0.07 0.15 0.33 0.62 0.38 0.23
0.73 0.62 0.65 0.85 0.76 0.62 0.60 0.66 0.55 0.57 0.91 1.46 2.11 1.05 0.83 0.78 1.00 0.32 0.11 0.05 0.01 0.00 0.00 0.01 0.00 0.01 0.01 0.00 0.03 0.01 0.01 0.01 0.01 0.04 0.10 0.08 0.19 0.17 0.09 0.11 0.08 0.09 0.17 0.29 0.46 0.56 0.45
0.77 0.54 0.45 0.64 0.75 0.83 0.89 0.85 0.83 0.82 1.14 1.92 2.62 1.80 1.86 1.22 0.31 0.36 0.47 0.24 0.06 0.05 0.09 0.09 0.03 0.05 0.05 0.07 0.05 0.04 0.02 0.03 0.05 0.06 0.12 0.14 0.08 0.11 0.13 0.22 0.29 0.20 0.14 0.21 0.69 0.98 0.60
0.80 0.65 0.47 0.55 0.62 0.79 0.89 1.11 1.13 1.18 1.48 2.99 3.77 1.48 0.80 0.88 0.41 0.21 0.29 0.31 0.18 0.21 0.16 0.08 0.21 0.26 0.20 0.15 0.13 0.10 0.11 0.09 0.10 0.09 0.20 0.32 0.20 0.08 0.04 0.02 0.10 0.19 0.18 0.16 0.26 0.34 0.51
0.85 0.71 0.56 0.55 0.57 0.78 1.00 1.03 1.22 1.48 2.13 4.15 3.63 0.92 0.29 0.16 0.19 0.28 0.35 0.19 0.10 0.13 0.14 0.20 0.27 0.10 0.07 0.13 0.14 0.21 0.24 0.26 0.30 0.31 0.37 0.54 0.38 0.14 0.07 0.03 0.03 0.03 0.04 0.20 0.22 0.17 0.20
0.83 0.71 0.63 0.57 0.52 0.62 0.94 1.08 1.18 1.60 3.09 5.02 2.91 0.71 0.59 0.36 0.17 0.28 0.21 0.14 0.13 0.07 0.11 0.14 0.21 0.13 0.07 0.17 0.18 0.22 0.17 0.20 0.25 0.35 0.48 0.52 0.67 0.47 0.21 0.06 0.06 0.03 0.01 0.04 0.12 0.22 0.33
0.68 0.66 0.65 0.59 0.52 0.53 0.74 1.05 1.13 1.62 2.68 3.08 2.12 0.91 1.22 0.86 0.26 0.13 0.07 0.08 0.11 0.09 0.10 0.06 0.16 0.43 0.24 0.07 0.10 0.16 0.25 0.20 0.22 0.24 0.34 0.56 0.50 0.56 0.38 0.17 0.23 0.06 0.06 0.05 0.13 0.33 0.40
0.58 0.57 0.70 0.74 0.66 0.57 0.63 0.93 1.05 1.34 1.77 1.87 1.73 1.40 1.42 0.92 0.22 0.10 0.09 0.12 0.12 0.19 0.17 0.11 0.09 0.22 0.24 0.20 0.33 0.29 0.23 0.29 0.22 0.22 0.25 0.33 0.49 0.61 0.54 0.50 0.22 0.11 0.14 0.28 0.31 0.34 0.19
0.63 0.65 0.71 0.79 0.71 0.64 0.58 0.83 1.04 1.06 1.31 1.53 1.43 1.43 2.25 1.63 0.52 0.10 0.15 0.16 0.22 0.24 0.33 0.22 0.34 0.31 0.33 0.59 0.70 0.54 0.35 0.23 0.23 0.26 0.18 0.32 0.41 0.69 0.47 0.70 0.53 0.68 0.25 0.16 0.36 0.36 0.12
0.75 0.71 0.76 0.79 0.68 0.65 0.58 0.72 0.89 0.79 0.93 1.30 1.37 1.29 2.44 2.48 0.64 0.26 0.29 0.31 0.38 0.38 0.39 0.42 0.56 0.46 0.55 0.79 0.95 0.97 0.54 0.23 0.37 0.59 0.32 0.27 0.33 0.39 0.39 0.57 0.56 0.42 0.22 0.18 0.28 0.41 0.03
0.80 0.82 0.88 0.94 0.88 0.71 0.66 0.59 0.76 0.73 0.84 1.22 1.19 1.26 2.02 2.04 0.68 0.47 0.29 0.23 0.25 0.34 0.59 0.58 0.91 0.89 0.64 0.63 0.54 0.61 0.71 0.37 0.61 1.01 0.47 0.46 0.41 0.38 0.52 0.74 0.58 0.07 0.20 0.33 0.39 0.12 0.03
0.68 0.72 0.83 0.76 0.88 0.72 0.72 0.69 0.78 0.89 1.03 1.25 1.35 1.06 1.50 2.11 1.14 0.47 0.25 0.15 0.07 0.06 0.19 0.44 0.65 0.70 0.76 0.61 0.36 0.35 0.42 0.45 0.56 0.74 0.74 1.20 0.95 0.97 0.63 0.57 0.32 0.16 0.20 0.21 0.10 0.14 0.12

GFSGBSN_prec_precacc_093.txt.gz
Total_Precipitation_Accumulation
0.09 0.09 0.09 0.07 0.05 0.04 0.02 0.03 0.04 0.02 0.02 0.02 0.02 0.02 0.01 0.02 0.02 0.02 0.01 0.01 0.01 0.01 0.01 0.01 0.01 0.02 0.00 0.00 0.00 0.00 0.00 0.00 0.00 0.00 0.00 0.00 0.00 0.00 0.00 0.00 0.00 0.00 0.00 0.00 0.00 0.00 0.03
0.17 0.14 0.12 0.10 0.09 0.06 0.07 0.08 0.06 0.05 0.03 0.04 0.03 0.03 0.02 0.02 0.02 0.02 0.01 0.01 0.01 0.01 0.01 0.01 0.01 0.02 0.00 0.00 0.00 0.00 0.00 0.00 0.00 0.00 0.00 0.00 0.00 0.00 0.00 0.00 0.00 0.00 0.00 0.00 0.00 0.00 0.01
0.23 0.19 0.19 0.19 0.16 0.15 0.13 0.12 0.11 0.09 0.08 0.08 0.06 0.04 0.02 0.02 0.02 0.01 0.01 0.01 0.01 0.01 0.01 0.01 0.01 0.02 0.00 0.00 0.00 0.00 0.00 0.00 0.00 0.00 0.00 0.00 0.00 0.00 0.00 0.00 0.00 0.00 0.00 0.00 0.00 0.00 0.02
0.36 0.34 0.33 0.32 0.31 0.30 0.26 0.23 0.22 0.21 0.18 0.15 0.12 0.08 0.05 0.02 0.02 0.01 0.01 0.01 0.01 0.01 0.01 0.01 0.02 0.02 0.00 0.00 0.00 0.00 0.00 0.00 0.00 0.00 0.00 0.00 0.00 0.00 0.00 0.00 0.00 0.00 0.00 0.01 0.01 0.00 0.01
0.44 0.37 0.33 0.34 0.32 0.29 0.28 0.27 0.27 0.24 0.22 0.18 0.15 0.11 0.08 0.05 0.04 0.03 0.02 0.01 0.01 0.01 0.01 0.01 0.01 0.00 0.00 0.00 0.00 0.00 0.00 0.00 0.00 0.00 0.00 0.00 0.00 0.00 0.00 0.00 0.00 0.00 0.00 0.00 0.01 0.01 0.01
0.60 0.49 0.42 0.41 0.38 0.35 0.32 0.32 0.30 0.27 0.23 0.19 0.16 0.12 0.08 0.08 0.07 0.04 0.01 0.01 0.01 0.01 0.01 0.00 0.01 0.00 0.00 0.00 0.00 0.00 0.00 0.00 0.00 0.00 0.00 0.00 0.00 0.00 0.00 0.00 0.01 0.00 0.00 0.00 0.00 0.00 0.00
0.70 0.57 0.48 0.43 0.35 0.31 0.28 0.28 0.25 0.21 0.17 0.13 0.10 0.06 0.05 0.08 0.08 0.05 0.01 0.01 0.01 0.00 0.00 0.00 0.00 0.00 0.00 0.00 0.00 0.00 0.00 0.00 0.00 0.01 0.00 0.00 0.00 0.00 0.00 0.00 0.00 0.00 0.00 0.00 0.00 0.00 0.00
0.81 0.61 0.52 0.46 0.38 0.32 0.29 0.30 0.23 0.18 0.15 0.12 0.06 0.03 0.03 0.05 0.06 0.04 0.02 0.01 0.00 0.00 0.00 0.00 0.00 0.00 0.00 0.00 0.00 0.00 0.00 0.00 0.01 0.05 0.03 0.00 0.00 0.00 0.00 0.00 0.00 0.00 0.00 0.00 0.00 0.00 0.00
0.78 0.61 0.55 0.53 0.47 0.44 0.42 0.41 0.34 0.26 0.18 0.11 0.06 0.03 0.03 0.05 0.04 0.01 0.00 0.00 0.00 0.00 0.01 0.00 0.00 0.00 0.00 0.00 0.00 0.00 0.00 0.00 0.00 0.02 0.07 0.02 0.00 0.00 0.00 0.00 0.00 0.00 0.00 0.00 0.00 0.00 0.00
1.02 0.93 0.82 0.75 0.65 0.56 0.57 0.53 0.40 0.31 0.25 0.17 0.10 0.05 0.04 0.06 0.01 0.00 0.00 0.00 0.00 0.00 0.01 0.00 0.00 0.00 0.00 0.00 0.00 0.00 0.00 0.00 0.00 0.01 0.06 0.08 0.00 0.00 0.00 0.00 0.00 0.00 0.00 0.00 0.00 0.00 0.00
1.24 1.18 1.10 1.07 0.99 0.90 0.70 0.56 0.43 0.31 0.21 0.15 0.10 0.06 0.08 0.06 0.02 0.01 0.00 0.00 0.00 0.02 0.01 0.00 0.00 0.00 0.00 0.00 0.00 0.00 0.00 0.00 0.00 0.00 0.05 0.06 0.03 0.02 0.00 0.00 0.00 0.01 0.00 0.00 0.00 0.00 0.01
0.96 0.94 0.94 0.98 0.89 0.85 0.85 0.71 0.47 0.30 0.22 0.19 0.15 0.12 0.15 0.09 0.04 0.01 0.01 0.02 0.09 0.05 0.00 0.00 0.00 0.00 0.00 0.00 0.00 0.00 0.00 0.00 0.00 0.00 0.00 0.00 0.01 0.01 0.01 0.00 0.01 0.00 0.01 0.00 0.00 0.00 0.02
0.96 0.94 0.84 0.76 0.71 0.66 0.65 0.58 0.49 0.38 0.29 0.23 0.13 0.15 0.16 0.06 0.03 0.01 0.02 0.18 0.22 0.04 0.00 0.00 0.00 0.00 0.00 0.00 0.00 0.00 0.00 0.00 0.00 0.00 0.00 0.00 0.00 0.00 0.00 0.00 0.01 0.02 0.07 0.06 0.06 0.03 0.01
0.68 0.63 0.51 0.44 0.41 0.38 0.34 0.27 0.22 0.20 0.17 0.20 0.16 0.21 0.15 0.07 0.03 0.06 0.15 0.34 0.13 0.00 0.00 0.00 0.00 0.00 0.00 0.00 0.00 0.00 0.00 0.00 0.00 0.00 0.00 0.01 0.02 0.00 0.00 0.00 0.01 0.01 0.05 0.09 0.14 0.09 0.06
0.45 0.48 0.42 0.35 0.30 0.27 0.24 0.22 0.17 0.18 0.21 0.25 0.33 0.29 0.22 0.08 0.03 0.10 0.39 0.44 0.04 0.01 0.00 0.00 0.00 0.00 0.00 0.00 0.00 0.00 0.00 0.00 0.00 0.00 0.01 0.02 0.00 0.00 0.00 0.00 0.02 0.09 0.10 0.07 0.19 0.11 0.09
0.47 0.41 0.38 0.36 0.36 0.24 0.21 0.19 0.25 0.25 0.28 0.39 0.49 0.48 0.17 0.06 0.12 0.41 0.67 0.27 0.01 0.00 0.00 0.00 0.01 0.00 0.00 0.00 0.00 0.00 0.01 0.02 0.03 0.01 0.00 0.04 0.08 0.01 0.00 0.01 0.01 0.08 0.21 0.49 0.56 0.37 0.16
0.65 0.43 0.36 0.38 0.40 0.36 0.29 0.25 0.26 0.37 0.37 0.58 1.01 0.92 0.18 0.10 0.58 0.94 0.62 0.10 0.00 0.00 0.00 0.00 0.00 0.00 0.00 0.00 0.00 0.00 0.04 0.13 0.08 0.06 0.02 0.02 0.06 0.06 0.04 0.03 0.04 0.10 0.29 0.49 0.46 0.18 0.22
0.77 0.72 0.62 0.54 0.41 0.39 0.43 0.42 0.38 0.45 0.64 1.10 1.70 1.16 0.28 0.34 0.88 0.62 0.22 0.03 0.00 0.00 0.00 0.00 0.00 0.00 0.00 0.00 0.00 0.00 0.00 0.03 0.02 0.04 0.10 0.14 0.12 0.05 0.01 0.00 0.00 0.07 0.15 0.33 0.66 0.41 0.24
0.73 0.63 0.66 0.86 0.76 0.62 0.60 0.66 0.55 0.57 0.91 1.46 2.11 1.05 0.83 0.78 1.00 0.32 0.11 0.05 0.01 0.00 0.00 0.01 0.00 0.01 0.01 0.00 0.03 0.01 0.01 0.01 0.01 0.04 0.10 0.08 0.19 0.17 0.09 0.11 0.08 0.09 0.17 0.29 0.47 0.59 0.48
0.77 0.54 0.45 0.64 0.75 0.83 0.89 0.85 0.83 0.82 1.14 1.92 2.62 1.80 1.86 1.22 0.31 0.37 0.47 0.24 0.06 0.05 0.09 0.09 0.03 0.05 0.05 0.07 0.05 0.04 0.02 0.03 0.05 0.06 0.12 0.14 0.08 0.11 0.13 0.22 0.29 0.20 0.14 0.21 0.69 1.00 0.61
0.80 0.66 0.49 0.56 0.62 0.79 0.89 1.11 1.13 1.18 1.48 2.99 3.77 1.48 0.80 0.88 0.41 0.21 0.29 0.31 0.18 0.21 0.16 0.08 0.21 0.26 0.20 0.15 0.13 0.10 0.11 0.09 0.10 0.09 0.20 0.32 0.20 0.08 0.04 0.02 0.10 0.19 0.18 0.16 0.26 0.34 0.53
0.85 0.71 0.57 0.56 0.57 0.78 1.00 1.03 1.22 1.48 2.13 4.15 3.63 0.92 0.29 0.16 0.19 0.28 0.35 0.19 0.10 0.13 0.14 0.20 0.27 0.10 0.07 0.13 0.14 0.21 0.24 0.26 0.30 0.31 0.37 0.54 0.38 0.14 0.07 0.03 0.03 0.03 0.04 0.20 0.22 0.17 0.20
0.83 0.71 0.63 0.57 0.52 0.62 0.94 1.08 1.18 1.60 3.09 5.02 2.91 0.71 0.59 0.36 0.17 0.28 0.21 0.14 0.13 0.07 0.11 0.14 0.21 0.13 0.07 0.17 0.18 0.22 0.17 0.20 0.25 0.35 0.48 0.52 0.67 0.47 0.21 0.06 0.06 0.04 0.04 0.06 0.12 0.22 0.34
0.68 0.66 0.65 0.60 0.52 0.53 0.74 1.05 1.13 1.62 2.68 3.08 2.12 0.91 1.22 0.86 0.26 0.13 0.07 0.08 0.11 0.09 0.10 0.06 0.16 0.43 0.24 0.07 0.10 0.16 0.25 0.20 0.22 0.24 0.34 0.56 0.50 0.56 0.38 0.17 0.24 0.08 0.16 0.22 0.16 0.35 0.48
0.58 0.57 0.70 0.74 0.66 0.57 0.63 0.93 1.05 1.34 1.77 1.87 1.73 1.40 1.42 0.92 0.22 0.10 0.09 0.12 0.12 0.19 0.17 0.11 0.09 0.22 0.24 0.20 0.33 0.29 0.23 0.29 0.22 0.22 0.25 0.33 0.49 0.62 0.55 0.50 0.22 0.13 0.26 0.47 0.42 0.44 0.33
0.65 0.65 0.71 0.79 0.71 0.64 0.58 0.83 1.04 1.06 1.31 1.53 1.43 1.43 2.25 1.63 0.52 0.10 0.15 0.16 0.22 0.24 0.33 0.22 0.34 0.31 0.33 0.59 0.70 0.54 0.35 0.23 0.23 0.26 0.18 0.32 0.41 0.72 0.50 0.72 0.55 0.69 0.25 0.20 0.50 0.47 0.20
0.79 0.74 0.76 0.79 0.68 0.65 0.58 0.72 0.89 0.79 0.93 1.30 1.37 1.29 2.44 2.48 0.64 0.26 0.29 0.31 0.38 0.38 0.39 0.42 0.56 0.46 0.55 0.79 0.95 0.97 0.54 0.23 0.38 0.61 0.35 0.28 0.35 0.41 0.40 0.58 0.57 0.45 0.26 0.31 0.51 0.52 0.09
0.86 0.85 0.89 0.94 0.88 0.71 0.66 0.59 0.76 0.73 0.84 1.22 1.19 1.26 2.02 2.04 0.68 0.47 0.29 0.23 0.25 0.34 0.59 0.58 0.91 0.89 0.64 0.63 0.54 0.61 0.71 0.37 0.62 1.07 0.56 0.54 0.46 0.43 0.57 0.82 0.62 0.10 0.25 0.48 0.58 0.24 0.05
0.71 0.74 0.84 0.76 0.89 0.72 0.72 0.69 0.78 0.89 1.03 1.25 1.35 1.06 1.50 2.11 1.14 0.47 0.25 0.15 0.07 0.06 0.19 0.44 0.65 0.70 0.76 0.61 0.36 0.35 0.42 0.45 0.57 0.77 0.79 1.32 1.07 1.09 0.70 0.64 0.42 0.24 0.29 0.33 0.21 0.19 0.14

GFSGBSN_prec_precacc_096.txt.gz
Total_Precipitation_Accumulation
0.09 0.09 0.09 0.07 0.06 0.05 0.03 0.04 0.04 0.03 0.02 0.02 0.03 0.02 0.01 0.02 0.02 0.02 0.01 0.01 0.01 0.01 0.01 0.01 0.01 0.02 0.00 0.00 0.00 0.00 0.00 0.00 0.00 0.00 0.00 0.00 0.00 0.00 0.00 0.00 0.00 0.00 0.00 0.00 0.00 0.00 0.03
0.17 0.14 0.12 0.10 0.10 0.07 0.08 0.08 0.07 0.05 0.04 0.04 0.04 0.04 0.03 0.03 0.03 0.02 0.01 0.01 0.01 0.01 0.01 0.01 0.01 0.02 0.00 0.00 0.00 0.00 0.00 0.00 0.00 0.00 0.00 0.00 0.00 0.00 0.00 0.00 0.00 0.00 0.00 0.00 0.00 0.00 0.01
0.24 0.19 0.19 0.19 0.16 0.15 0.13 0.13 0.11 0.10 0.09 0.10 0.10 0.09 0.07 0.06 0.04 0.03 0.02 0.01 0.01 0.01 0.01 0.01 0.01 0.02 0.00 0.00 0.00 0.00 0.00 0.00 0.00 0.00 0.00 0.00 0.00 0.00 0.00 0.00 0.00 0.00 0.00 0.00 0.00 0.00 0.02
0.36 0.34 0.33 0.32 0.31 0.30 0.26 0.23 0.23 0.22 0.19 0.16 0.14 0.13 0.11 0.09 0.07 0.06 0.05 0.03 0.02 0.01 0.01 0.01 0.02 0.02 0.00 0.00 0.00 0.00 0.00 0.00 0.00 0.00 0.00 0.00 0.00 0.00 0.00 0.00 0.00 0.00 0.00 0.01 0.01 0.00 0.01
0.44 0.37 0.33 0.34 0.33 0.30 0.29 0.27 0.27 0.25 0.23 0.20 0.18 0.16 0.12 0.09 0.09 0.10 0.10 0.08 0.04 0.02 0.01 0.01 0.02 0.01 0.00 0.00 0.00 0.00 0.00 0.00 0.00 0.00 0.00 0.00 0.00 0.00 0.00 0.00 0.00 0.00 0.00 0.00 0.01 0.01 0.01
0.60 0.49 0.43 0.41 0.38 0.35 0.33 0.33 0.31 0.28 0.26 0.22 0.19 0.16 0.11 0.10 0.11 0.10 0.07 0.05 0.03 0.02 0.01 0.01 0.01 0.00 0.00 0.00 0.00 0.00 0.00 0.00 0.00 0.00 0.00 0.00 0.00 0.00 0.00 0.00 0.01 0.00 0.00 0.00 0.00 0.00 0.00
0.70 0.57 0.48 0.43 0.36 0.32 0.29 0.29 0.26 0.23 0.19 0.16 0.14 0.11 0.08 0.09 0.11 0.10 0.07 0.06 0.06 0.06 0.03 0.01 0.00 0.00 0.00 0.00 0.00 0.00 0.00 0.00 0.00 0.01 0.00 0.00 0.00 0.00 0.00 0.00 0.00 0.00 0.00 0.00 0.00 0.00 0.00
0.81 0.61 0.52 0.46 0.39 0.33 0.31 0.32 0.25 0.21 0.18 0.16 0.12 0.07 0.05 0.07 0.08 0.05 0.03 0.03 0.03 0.08 0.07 0.01 0.00 0.00 0.00 0.00 0.00 0.00 0.00 0.00 0.01 0.05 0.03 0.00 0.00 0.00 0.00 0.00 0.00 0.00 0.00 0.00 0.00 0.00 0.00
0.78 0.61 0.55 0.54 0.47 0.45 0.43 0.43 0.37 0.29 0.21 0.14 0.10 0.08 0.08 0.09 0.07 0.02 0.00 0.00 0.00 0.00 0.02 0.00 0.00 0.00 0.00 0.00 0.00 0.00 0.00 0.00 0.00 0.02 0.07 0.02 0.00 0.00 0.00 0.00 0.00 0.00 0.00 0.00 0.00 0.00 0.00
1.02 0.93 0.82 0.75 0.65 0.57 0.60 0.56 0.44 0.39 0.37 0.32 0.26 0.18 0.12 0.09 0.02 0.00 0.00 0.00 0.00 0.00 0.02 0.00 0.00 0.00 0.00 0.00 0.00 0.00 0.00 0.00 0.00 0.01 0.06 0.08 0.00 0.00 0.00 0.00 0.00 0.00 0.00 0.00 0.00 0.00 0.00
1.24 1.18 1.10 1.07 1.00 0.94 0.77 0.67 0.62 0.51 0.38 0.32 0.27 0.19 0.16 0.13 0.07 0.06 0.03 0.00 0.00 0.02 0.03 0.00 0.00 0.00 0.00 0.00 0.00 0.00 0.00 0.00 0.00 0.00 0.05 0.06 0.03 0.02 0.00 0.00 0.00 0.01 0.00 0.00 0.00 0.00 0.01
0.96 0.94 0.94 0.98 0.89 0.87 0.96 0.91 0.70 0.52 0.46 0.35 0.25 0.22 0.23 0.15 0.09 0.04 0.02 0.03 0.09 0.06 0.01 0.00 0.00 0.00 0.00 0.00 0.00 0.00 0.00 0.00 0.00 0.00 0.00 0.00 0.01 0.01 0.01 0.00 0.01 0.00 0.01 0.00 0.00 0.00 0.02
0.97 0.94 0.85 0.76 0.71 0.66 0.67 0.70 0.71 0.70 0.61 0.51 0.39 0.31 0.28 0.15 0.08 0.02 0.02 0.19 0.23 0.05 0.00 0.00 0.00 0.00 0.00 0.00 0.00 0.00 0.00 0.00 0.00 0.00 0.00 0.00 0.00 0.00 0.00 0.00 0.01 0.02 0.07 0.06 0.06 0.03 0.01
0.71 0.65 0.52 0.45 0.41 0.38 0.34 0.29 0.25 0.26 0.28 0.33 0.25 0.26 0.17 0.08 0.04 0.07 0.16 0.36 0.14 0.00 0.00 0.00 0.00 0.00 0.00 0.00 0.00 0.00 0.00 0.00 0.00 0.00 0.00 0.01 0.02 0.00 0.00 0.00 0.01 0.01 0.05 0.09 0.14 0.09 0.06
0.47 0.49 0.44 0.36 0.31 0.28 0.25 0.22 0.17 0.18 0.21 0.26 0.33 0.29 0.22 0.08 0.03 0.10 0.41 0.47 0.05 0.01 0.00 0.00 0.02 0.01 0.00 0.00 0.00 0.00 0.00 0.00 0.00 0.00 0.01 0.02 0.00 0.00 0.00 0.00 0.02 0.09 0.10 0.07 0.19 0.11 0.09
0.48 0.41 0.39 0.36 0.36 0.25 0.21 0.19 0.25 0.25 0.28 0.39 0.49 0.48 0.17 0.06 0.12 0.41 0.70 0.28 0.01 0.00 0.00 0.01 0.07 0.04 0.00 0.00 0.00 0.00 0.01 0.02 0.03 0.01 0.00 0.04 0.08 0.02 0.00 0.01 0.01 0.08 0.21 0.49 0.56 0.37 0.16
0.65 0.44 0.37 0.38 0.41 0.37 0.29 0.25 0.26 0.37 0.37 0.58 1.01 0.92 0.18 0.10 0.58 0.95 0.65 0.10 0.00 0.00 0.00 0.02 0.03 0.03 0.01 0.01 0.01 0.00 0.04 0.13 0.08 0.06 0.02 0.02 0.06 0.06 0.04 0.03 0.04 0.10 0.29 0.50 0.47 0.18 0.24
0.77 0.72 0.62 0.54 0.41 0.41 0.43 0.42 0.38 0.45 0.64 1.10 1.70 1.16 0.28 0.34 0.89 0.63 0.23 0.03 0.00 0.01 0.00 0.00 0.01 0.02 0.01 0.01 0.00 0.00 0.00 0.03 0.02 0.04 0.10 0.14 0.12 0.05 0.01 0.00 0.00 0.07 0.15 0.33 0.67 0.45 0.29
0.73 0.63 0.68 0.89 0.78 0.64 0.60 0.66 0.55 0.57 0.91 1.46 2.11 1.05 0.83 0.78 1.00 0.32 0.12 0.05 0.02 0.01 0.01 0.02 0.02 0.01 0.01 0.01 0.03 0.01 0.01 0.01 0.01 0.04 0.10 0.08 0.19 0.17 0.09 0.11 0.08 0.09 0.17 0.29 0.47 0.59 0.49
0.77 0.55 0.46 0.65 0.76 0.83 0.89 0.85 0.83 0.82 1.14 1.92 2.62 1.80 1.86 1.22 0.31 0.37 0.47 0.25 0.06 0.05 0.09 0.09 0.04 0.05 0.06 0.08 0.05 0.04 0.02 0.03 0.05 0.06 0.12 0.14 0.08 0.11 0.13 0.22 0.29 0.20 0.14 0.21 0.69 1.00 0.61
0.80 0.66 0.49 0.56 0.63 0.79 0.89 1.11 1.13 1.18 1.48 2.99 3.77 1.48 0.80 0.88 0.41 0.21 0.29 0.31 0.19 0.22 0.16 0.08 0.21 0.26 0.20 0.15 0.13 0.10 0.11 0.09 0.10 0.09 0.20 0.32 0.20 0.08 0.04 0.02 0.10 0.19 0.18 0.16 0.26 0.34 0.53
0.85 0.72 0.58 0.57 0.57 0.78 1.00 1.03 1.22 1.48 2.13 4.15 3.63 0.92 0.29 0.16 0.19 0.28 0.35 0.19 0.10 0.13 0.14 0.20 0.27 0.10 0.07 0.13 0.14 0.21 0.24 0.26 0.30 0.31 0.37 0.54 0.38 0.14 0.07 0.03 0.03 0.03 0.04 0.20 0.22 0.17 0.20
0.83 0.72 0.66 0.58 0.52 0.62 0.94 1.08 1.18 1.60 3.09 5.02 2.91 0.71 0.59 0.36 0.17 0.28 0.21 0.14 0.13 0.07 0.11 0.14 0.21 0.13 0.07 0.17 0.18 0.22 0.17 0.20 0.25 0.35 0.48 0.52 0.67 0.47 0.21 0.06 0.06 0.04 0.05 0.08 0.15 0.23 0.34
0.68 0.66 0.66 0.60 0.52 0.53 0.74 1.05 1.13 1.62 2.68 3.08 2.12 0.91 1.22 0.86 0.26 0.13 0.07 0.08 0.11 0.09 0.10 0.06 0.16 0.43 0.24 0.07 0.10 0.16 0.25 0.20 0.22 0.24 0.34 0.56 0.50 0.56 0.38 0.17 0.24 0.08 0.16 0.25 0.27 0.41 0.49
0.58 0.58 0.71 0.74 0.66 0.57 0.63 0.93 1.05 1.34 1.77 1.87 1.73 1.40 1.42 0.92 0.22 0.10 0.09 0.12 0.12 0.19 0.17 0.11 0.09 0.22 0.24 0.20 0.33 0.29 0.23 0.29 0.22 0.22 0.25 0.33 0.49 0.62 0.55 0.50 0.22 0.13 0.27 0.52 0.59 0.57 0.41
0.65 0.65 0.71 0.79 0.71 0.64 0.58 0.83 1.04 1.06 1.31 1.53 1.43 1.43 2.25 1.63 0.52 0.10 0.15 0.16 0.22 0.24 0.33 0.22 0.34 0.31 0.33 0.59 0.70 0.54 0.35 0.23 0.23 0.26 0.18 0.32 0.41 0.73 0.52 0.72 0.55 0.69 0.26 0.20 0.56 0.57 0.27
0.80 0.75 0.76 0.79 0.68 0.65 0.58 0.72 0.89 0.79 0.93 1.30 1.37 1.29 2.44 2.48 0.64 0.26 0.29 0.31 0.38 0.38 0.39 0.42 0.56 0.46 0.55 0.79 0.95 0.97 0.54 0.23 0.38 0.61 0.37 0.29 0.36 0.42 0.40 0.59 0.57 0.46 0.26 0.33 0.60 0.61 0.18
0.89 0.87 0.89 0.94 0.88 0.71 0.66 0.59 0.76 0.73 0.84 1.22 1.19 1.26 2.02 2.04 0.68 0.47 0.29 0.23 0.25 0.34 0.59 0.58 0.91 0.89 0.64 0.63 0.54 0.61 0.71 0.37 0.62 1.09 0.59 0.58 0.48 0.47 0.60 0.85 0.64 0.10 0.28 0.55 0.70 0.33 0.16
0.76 0.77 0.85 0.76 0.89 0.72 0.72 0.69 0.78 0.89 1.03 1.25 1.35 1.06 1.50 2.11 1.14 0.47 0.25 0.15 0.07 0.06 0.19 0.44 0.65 0.70 0.76 0.61 0.36 0.35 0.42 0.45 0.57 0.78 0.80 1.34 1.09 1.12 0.75 0.69 0.47 0.27 0.37 0.42 0.32 0.28 0.23

GFSGBSN_prec_precacc_099.txt.gz
Total_Precipitation_Accumulation
0.09 0.09 0.09 0.07 0.06 0.05 0.03 0.05 0.05 0.03 0.03 0.03 0.03 0.02 0.02 0.03 0.03 0.03 0.01 0.01 0.01 0.01 0.01 0.01 0.01 0.02 0.00 0.00 0.00 0.00 0.00 0.00 0.00 0.00 0.00 0.00 0.00 0.00 0.00 0.00 0.00 0.00 0.00 0.00 0.00 0.00 0.03
0.17 0.14 0.12 0.10 0.10 0.07 0.08 0.08 0.07 0.05 0.04 0.05 0.05 0.04 0.03 0.03 0.04 0.04 0.02 0.01 0.01 0.01 0.01 0.01 0.01 0.02 0.00 0.00 0.00 0.00 0.00 0.00 0.00 0.00 0.00 0.00 0.00 0.00 0.00 0.00 0.00 0.00 0.00 0.00 0.00 0.00 0.01
0.24 0.19 0.19 0.19 0.16 0.15 0.13 0.13 0.11 0.10 0.09 0.11 0.10 0.09 0.07 0.08 0.07 0.06 0.04 0.02 0.02 0.02 0.01 0.01 0.01 0.02 0.00 0.00 0.00 0.00 0.00 0.00 0.00 0.00 0.00 0.00 0.00 0.00 0.00 0.00 0.00 0.00 0.00 0.00 0.00 0.00 0.02
0.37 0.34 0.33 0.32 0.31 0.30 0.26 0.23 0.23 0.22 0.20 0.16 0.15 0.14 0.12 0.11 0.10 0.09 0.07 0.06 0.04 0.03 0.02 0.01 0.02 0.02 0.00 0.00 0.00 0.00 0.00 0.00 0.00 0.00 0.00 0.00 0.00 0.00 0.00 0.00 0.00 0.00 0.00 0.01 0.01 0.00 0.01
0.44 0.38 0.33 0.34 0.33 0.30 0.29 0.28 0.28 0.26 0.24 0.22 0.19 0.16 0.13 0.11 0.11 0.11 0.11 0.09 0.07 0.04 0.02 0.01 0.02 0.01 0.00 0.00 0.00 0.00 0.00 0.00 0.00 0.00 0.00 0.00 0.00 0.00 0.00 0.00 0.00 0.00 0.00 0.00 0.01 0.01 0.01
0.60 0.50 0.43 0.41 0.38 0.35 0.33 0.33 0.31 0.29 0.27 0.24 0.21 0.18 0.14 0.14 0.14 0.12 0.08 0.06 0.05 0.03 0.02 0.02 0.04 0.01 0.00 0.00 0.00 0.00 0.00 0.00 0.00 0.00 0.00 0.00 0.00 0.00 0.00 0.00 0.01 0.00 0.00 0.00 0.00 0.00 0.00
0.70 0.57 0.49 0.43 0.36 0.32 0.29 0.29 0.27 0.23 0.20 0.17 0.16 0.14 0.12 0.13 0.13 0.12 0.08 0.07 0.08 0.08 0.04 0.01 0.01 0.00 0.00 0.00 0.00 0.00 0.00 0.00 0.00 0.01 0.00 0.00 0.00 0.00 0.00 0.00 0.00 0.00 0.00 0.00 0.00 0.00 0.00
0.81 0.61 0.52 0.46 0.39 0.33 0.31 0.32 0.26 0.22 0.19 0.18 0.14 0.11 0.09 0.10 0.10 0.07 0.03 0.03 0.03 0.08 0.07 0.02 0.02 0.02 0.00 0.00 0.01 0.00 0.00 0.00 0.01 0.05 0.03 0.00 0.00 0.00 0.00 0.00 0.00 0.00 0.00 0.00 0.00 0.00 0.00
0.78 0.62 0.55 0.54 0.47 0.45 0.44 0.44 0.38 0.31 0.23 0.16 0.14 0.13 0.15 0.17 0.15 0.07 0.01 0.01 0.01 0.00 0.02 0.00 0.00 0.00 0.00 0.02 0.04 0.00 0.00 0.00 0.00 0.02 0.07 0.02 0.00 0.00 0.00 0.00 0.00 0.00 0.00 0.00 0.00 0.00 0.00
1.02 0.94 0.83 0.75 0.65 0.58 0.60 0.57 0.45 0.40 0.38 0.35 0.31 0.27 0.20 0.15 0.07 0.01 0.01 0.03 0.03 0.01 0.04 0.00 0.00 0.00 0.00 0.00 0.01 0.00 0.00 0.00 0.00 0.01 0.06 0.08 0.00 0.00 0.00 0.00 0.00 0.00 0.00 0.00 0.00 0.00 0.00
1.25 1.19 1.12 1.08 1.00 0.94 0.77 0.67 0.65 0.57 0.46 0.44 0.41 0.33 0.31 0.20 0.10 0.07 0.05 0.02 0.01 0.02 0.08 0.00 0.00 0.00 0.00 0.00 0.00 0.00 0.00 0.00 0.01 0.00 0.05 0.06 0.03 0.02 0.00 0.00 0.00 0.01 0.00 0.00 0.00 0.00 0.01
0.97 0.94 0.95 0.99 0.89 0.87 0.96 0.92 0.72 0.62 0.60 0.52 0.43 0.33 0.28 0.20 0.14 0.12 0.13 0.15 0.23 0.24 0.13 0.00 0.00 0.00 0.00 0.00 0.00 0.00 0.00 0.00 0.00 0.00 0.00 0.00 0.01 0.01 0.01 0.00 0.01 0.00 0.01 0.00 0.00 0.00 0.02
0.97 0.95 0.85 0.77 0.72 0.66 0.67 0.70 0.72 0.74 0.69 0.64 0.56 0.52 0.46 0.28 0.22 0.12 0.08 0.25 0.31 0.13 0.02 0.00 0.00 0.00 0.00 0.00 0.00 0.00 0.00 0.00 0.00 0.00 0.00 0.00 0.00 0.00 0.00 0.00 0.01 0.02 0.07 0.06 0.06 0.03 0.01
0.74 0.68 0.54 0.46 0.42 0.39 0.35 0.29 0.26 0.28 0.33 0.44 0.44 0.45 0.33 0.24 0.17 0.13 0.22 0.46 0.21 0.01 0.00 0.00 0.00 0.00 0.00 0.00 0.00 0.00 0.00 0.00 0.00 0.00 0.00 0.01 0.02 0.00 0.00 0.00 0.01 0.01 0.05 0.09 0.14 0.09 0.06
0.48 0.50 0.46 0.39 0.33 0.30 0.26 0.23 0.18 0.18 0.21 0.26 0.33 0.30 0.23 0.11 0.09 0.14 0.47 0.55 0.07 0.01 0.01 0.00 0.03 0.03 0.00 0.00 0.00 0.00 0.00 0.00 0.00 0.00 0.01 0.02 0.00 0.00 0.00 0.00 0.02 0.09 0.10 0.07 0.19 0.11 0.09
0.49 0.42 0.39 0.36 0.36 0.25 0.21 0.19 0.25 0.25 0.28 0.39 0.49 0.48 0.17 0.06 0.15 0.44 0.75 0.30 0.01 0.00 0.00 0.01 0.12 0.18 0.01 0.00 0.01 0.00 0.01 0.02 0.03 0.01 0.00 0.04 0.09 0.02 0.00 0.01 0.01 0.08 0.21 0.49 0.56 0.37 0.16
0.67 0.44 0.37 0.39 0.42 0.37 0.29 0.25 0.26 0.37 0.37 0.58 1.01 0.92 0.18 0.10 0.62 1.01 0.70 0.11 0.00 0.00 0.00 0.02 0.04 0.08 0.02 0.01 0.01 0.01 0.04 0.14 0.08 0.06 0.03 0.03 0.07 0.06 0.04 0.03 0.04 0.10 0.29 0.50 0.47 0.18 0.24
0.80 0.73 0.62 0.54 0.44 0.43 0.44 0.42 0.38 0.45 0.64 1.10 1.70 1.17 0.28 0.35 0.92 0.67 0.24 0.03 0.00 0.01 0.00 0.00 0.02 0.04 0.02 0.01 0.00 0.01 0.01 0.04 0.03 0.04 0.11 0.15 0.12 0.05 0.01 0.00 0.00 0.07 0.15 0.33 0.67 0.45 0.29
0.80 0.65 0.68 0.89 0.79 0.66 0.60 0.66 0.55 0.57 0.91 1.46 2.11 1.06 0.84 0.78 1.02 0.32 0.12 0.05 0.02 0.01 0.01 0.02 0.02 0.02 0.02 0.01 0.03 0.01 0.01 0.01 0.01 0.04 0.10 0.08 0.19 0.17 0.09 0.11 0.08 0.09 0.17 0.29 0.47 0.59 0.49
0.89 0.57 0.46 0.67 0.78 0.85 0.89 0.86 0.83 0.82 1.14 1.92 2.62 1.82 1.89 1.22 0.32 0.37 0.47 0.25 0.06 0.05 0.09 0.09 0.04 0.05 0.06 0.08 0.05 0.04 0.02 0.03 0.05 0.06 0.12 0.14 0.08 0.11 0.13 0.22 0.29 0.20 0.14 0.21 0.69 1.00 0.61
0.97 0.70 0.50 0.58 0.64 0.79 0.89 1.11 1.13 1.18 1.48 2.99 3.77 1.48 0.80 0.88 0.41 0.21 0.29 0.31 0.19 0.22 0.16 0.08 0.21 0.26 0.20 0.15 0.13 0.10 0.11 0.09 0.10 0.09 0.20 0.32 0.20 0.08 0.04 0.02 0.10 0.19 0.18 0.16 0.26 0.34 0.53
1.04 0.77 0.60 0.58 0.58 0.78 1.00 1.03 1.22 1.48 2.13 4.15 3.63 0.92 0.29 0.16 0.19 0.28 0.35 0.19 0.10 0.13 0.14 0.20 0.27 0.10 0.07 0.13 0.14 0.21 0.24 0.26 0.30 0.31 0.37 0.54 0.38 0.14 0.07 0.03 0.03 0.03 0.04 0.20 0.22 0.17 0.20
0.91 0.74 0.67 0.59 0.53 0.62 0.94 1.08 1.18 1.60 3.09 5.02 2.91 0.71 0.59 0.36 0.17 0.28 0.21 0.14 0.13 0.07 0.11 0.14 0.21 0.13 0.07 0.17 0.18 0.22 0.17 0.20 0.25 0.35 0.48 0.52 0.67 0.47 0.21 0.06 0.06 0.04 0.05 0.08 0.15 0.23 0.35
0.70 0.67 0.68 0.62 0.52 0.53 0.74 1.05 1.13 1.62 2.68 3.08 2.12 0.91 1.22 0.86 0.26 0.13 0.07 0.08 0.11 0.09 0.10 0.06 0.16 0.43 0.24 0.07 0.10 0.16 0.25 0.20 0.22 0.24 0.34 0.56 0.50 0.56 0.38 0.17 0.24 0.08 0.16 0.25 0.27 0.42 0.50
0.59 0.59 0.73 0.75 0.66 0.57 0.63 0.93 1.05 1.34 1.78 1.87 1.73 1.40 1.42 0.92 0.22 0.10 0.09 0.12 0.12 0.19 0.17 0.11 0.09 0.22 0.24 0.20 0.33 0.29 0.23 0.29 0.22 0.22 0.25 0.33 0.49 0.62 0.55 0.50 0.22 0.13 0.27 0.53 0.60 0.58 0.43
0.65 0.67 0.72 0.79 0.71 0.64 0.58 0.83 1.04 1.06 1.31 1.53 1.43 1.43 2.25 1.63 0.52 0.10 0.15 0.16 0.22 0.24 0.33 0.22 0.34 0.31 0.33 0.59 0.70 0.54 0.35 0.23 0.23 0.26 0.18 0.32 0.41 0.73 0.52 0.72 0.55 0.69 0.26 0.20 0.58 0.60 0.30
0.81 0.76 0.76 0.79 0.68 0.65 0.58 0.72 0.89 0.79 0.93 1.30 1.37 1.29 2.44 2.48 0.64 0.26 0.29 0.31 0.38 0.38 0.39 0.42 0.56 0.46 0.55 0.79 0.95 0.97 0.54 0.23 0.38 0.61 0.37 0.29 0.36 0.43 0.41 0.60 0.57 0.46 0.26 0.33 0.63 0.64 0.23
0.91 0.88 0.89 0.94 0.88 0.71 0.66 0.59 0.76 0.73 0.84 1.22 1.19 1.26 2.02 2.04 0.68 0.47 0.29 0.23 0.25 0.34 0.59 0.58 0.91 0.89 0.64 0.63 0.54 0.61 0.71 0.37 0.62 1.09 0.60 0.59 0.49 0.48 0.60 0.86 0.64 0.11 0.28 0.57 0.74 0.40 0.26
0.79 0.79 0.85 0.77 0.89 0.72 0.72 0.69 0.78 0.89 1.03 1.25 1.35 1.06 1.50 2.11 1.14 0.47 0.25 0.15 0.07 0.06 0.19 0.44 0.65 0.70 0.76 0.61 0.36 0.35 0.42 0.45 0.57 0.78 0.81 1.35 1.10 1.13 0.76 0.69 0.48 0.29 0.40 0.47 0.37 0.36 0.36

GFSGBSN_prec_precacc_105.txt.gz
Total_Precipitation_Accumulation
0.09 0.09 0.09 0.07 0.06 0.05 0.03 0.05 0.05 0.03 0.03 0.03 0.03 0.02 0.02 0.03 0.03 0.03 0.02 0.02 0.02 0.01 0.01 0.01 0.01 0.02 0.00 0.00 0.00 0.00 0.00 0.00 0.00 0.00 0.00 0.00 0.00 0.00 0.00 0.00 0.00 0.00 0.00 0.00 0.00 0.00 0.03
0.17 0.14 0.12 0.10 0.10 0.07 0.08 0.08 0.07 0.05 0.04 0.05 0.05 0.04 0.04 0.04 0.05 0.06 0.04 0.03 0.02 0.02 0.01 0.01 0.01 0.02 0.00 0.00 0.00 0.00 0.00 0.00 0.00 0.00 0.00 0.00 0.00 0.00 0.00 0.00 0.00 0.00 0.00 0.00 0.00 0.00 0.01
0.24 0.19 0.19 0.19 0.16 0.15 0.13 0.13 0.11 0.10 0.09 0.11 0.11 0.10 0.08 0.09 0.08 0.08 0.06 0.04 0.03 0.02 0.02 0.01 0.01 0.02 0.00 0.00 0.00 0.00 0.00 0.00 0.00 0.00 0.00 0.00 0.00 0.00 0.00 0.00 0.00 0.00 0.00 0.00 0.00 0.00 0.02
0.37 0.34 0.33 0.33 0.31 0.30 0.26 0.23 0.23 0.22 0.20 0.17 0.16 0.15 0.13 0.12 0.12 0.11 0.11 0.07 0.05 0.04 0.02 0.01 0.02 0.02 0.00 0.00 0.00 0.00 0.00 0.00 0.00 0.00 0.00 0.00 0.00 0.00 0.00 0.00 0.00 0.00 0.00 0.01 0.01 0.00 0.01
0.44 0.38 0.33 0.34 0.33 0.30 0.29 0.28 0.28 0.26 0.24 0.22 0.20 0.17 0.15 0.12 0.13 0.14 0.13 0.11 0.07 0.04 0.02 0.01 0.02 0.01 0.00 0.00 0.00 0.00 0.00 0.00 0.00 0.00 0.00 0.00 0.00 0.00 0.00 0.00 0.00 0.00 0.00 0.00 0.01 0.01 0.01
0.61 0.50 0.43 0.41 0.38 0.35 0.33 0.33 0.31 0.29 0.27 0.24 0.22 0.19 0.16 0.15 0.17 0.18 0.14 0.11 0.07 0.04 0.02 0.02 0.04 0.01 0.00 0.00 0.00 0.00 0.00 0.00 0.00 0.00 0.00 0.00 0.00 0.00 0.00 0.00 0.01 0.00 0.00 0.00 0.00 0.00 0.00
0.71 0.57 0.49 0.44 0.36 0.32 0.29 0.29 0.27 0.23 0.20 0.18 0.16 0.14 0.13 0.16 0.19 0.18 0.13 0.12 0.10 0.08 0.04 0.01 0.01 0.00 0.00 0.00 0.00 0.00 0.00 0.00 0.00 0.01 0.00 0.00 0.00 0.00 0.00 0.00 0.00 0.00 0.00 0.00 0.00 0.00 0.00
0.81 0.61 0.52 0.46 0.39 0.33 0.31 0.32 0.26 0.22 0.19 0.18 0.15 0.12 0.10 0.15 0.16 0.09 0.05 0.06 0.04 0.08 0.07 0.02 0.02 0.02 0.00 0.00 0.01 0.00 0.00 0.00 0.01 0.05 0.03 0.01 0.01 0.00 0.00 0.00 0.00 0.00 0.00 0.00 0.00 0.00 0.00
0.79 0.62 0.55 0.54 0.47 0.45 0.44 0.44 0.38 0.31 0.23 0.17 0.15 0.15 0.18 0.26 0.24 0.13 0.03 0.03 0.01 0.01 0.05 0.00 0.00 0.00 0.00 0.02 0.04 0.00 0.00 0.00 0.01 0.04 0.09 0.04 0.01 0.00 0.01 0.03 0.02 0.00 0.00 0.00 0.00 0.00 0.00
1.03 0.94 0.83 0.76 0.65 0.58 0.60 0.57 0.45 0.40 0.38 0.35 0.33 0.30 0.28 0.26 0.15 0.04 0.06 0.05 0.03 0.02 0.20 0.03 0.00 0.00 0.00 0.00 0.01 0.00 0.00 0.00 0.01 0.03 0.08 0.14 0.02 0.02 0.02 0.02 0.01 0.02 0.00 0.00 0.00 0.00 0.00
1.25 1.20 1.13 1.09 1.01 0.94 0.78 0.67 0.65 0.57 0.47 0.46 0.46 0.42 0.41 0.25 0.11 0.09 0.07 0.02 0.01 0.07 0.28 0.01 0.00 0.00 0.00 0.00 0.00 0.00 0.00 0.00 0.02 0.02 0.11 0.10 0.04 0.06 0.05 0.02 0.02 0.03 0.00 0.01 0.01 0.00 0.01
0.98 0.95 0.96 1.01 0.90 0.87 0.96 0.92 0.73 0.63 0.63 0.57 0.52 0.44 0.37 0.24 0.14 0.16 0.16 0.19 0.30 0.49 0.35 0.01 0.00 0.00 0.00 0.00 0.00 0.00 0.00 0.00 0.01 0.17 0.13 0.04 0.06 0.04 0.03 0.01 0.04 0.02 0.02 0.01 0.00 0.00 0.03
0.99 0.97 0.87 0.80 0.74 0.67 0.67 0.70 0.73 0.76 0.75 0.74 0.65 0.60 0.52 0.32 0.26 0.17 0.15 0.37 0.67 0.46 0.06 0.01 0.00 0.00 0.00 0.00 0.00 0.00 0.00 0.00 0.02 0.08 0.06 0.04 0.07 0.02 0.00 0.01 0.01 0.05 0.11 0.14 0.13 0.06 0.02
0.78 0.73 0.58 0.50 0.47 0.43 0.37 0.30 0.26 0.29 0.36 0.53 0.54 0.55 0.45 0.36 0.34 0.31 0.43 0.73 0.52 0.07 0.01 0.00 0.00 0.00 0.00 0.00 0.00 0.00 0.00 0.01 0.00 0.00 0.04 0.07 0.04 0.00 0.00 0.00 0.02 0.01 0.07 0.12 0.18 0.11 0.07
0.55 0.57 0.54 0.45 0.39 0.35 0.30 0.26 0.19 0.19 0.22 0.28 0.36 0.32 0.28 0.18 0.18 0.27 0.68 0.84 0.20 0.05 0.01 0.01 0.03 0.03 0.00 0.00 0.00 0.00 0.00 0.01 0.00 0.00 0.02 0.03 0.01 0.00 0.00 0.00 0.02 0.11 0.10 0.07 0.20 0.12 0.09
0.57 0.52 0.49 0.43 0.44 0.31 0.24 0.23 0.27 0.26 0.29 0.39 0.49 0.48 0.19 0.08 0.18 0.50 0.86 0.35 0.01 0.00 0.00 0.01 0.12 0.20 0.01 0.01 0.01 0.00 0.01 0.02 0.04 0.01 0.00 0.05 0.10 0.02 0.00 0.01 0.01 0.09 0.21 0.51 0.59 0.38 0.17
0.78 0.56 0.49 0.47 0.49 0.43 0.30 0.27 0.29 0.38 0.37 0.58 1.01 0.94 0.19 0.14 0.71 1.14 0.76 0.12 0.00 0.00 0.00 0.02 0.04 0.08 0.03 0.01 0.01 0.02 0.04 0.14 0.09 0.07 0.03 0.03 0.08 0.07 0.04 0.03 0.05 0.10 0.30 0.53 0.51 0.21 0.27
0.97 0.98 0.84 0.73 0.59 0.51 0.45 0.44 0.41 0.46 0.65 1.10 1.70 1.19 0.30 0.42 1.06 0.77 0.26 0.03 0.00 0.01 0.00 0.01 0.02 0.04 0.03 0.02 0.01 0.02 0.01 0.05 0.03 0.05 0.12 0.15 0.12 0.06 0.01 0.00 0.00 0.07 0.15 0.34 0.69 0.46 0.31
0.89 0.94 1.04 1.25 1.14 0.89 0.63 0.67 0.57 0.59 0.91 1.46 2.14 1.09 0.91 0.88 1.11 0.36 0.12 0.05 0.02 0.01 0.01 0.03 0.03 0.03 0.02 0.02 0.03 0.04 0.02 0.03 0.02 0.05 0.11 0.08 0.19 0.17 0.09 0.11 0.08 0.09 0.17 0.29 0.47 0.59 0.49
1.03 0.79 0.85 1.06 1.17 1.21 0.99 0.87 0.83 0.84 1.15 1.95 2.64 1.88 2.05 1.37 0.36 0.38 0.49 0.25 0.07 0.05 0.09 0.10 0.05 0.06 0.07 0.08 0.05 0.04 0.03 0.03 0.05 0.06 0.12 0.15 0.08 0.11 0.13 0.22 0.29 0.20 0.14 0.21 0.69 1.00 0.61
1.13 1.01 0.86 0.94 0.98 1.09 1.00 1.12 1.13 1.20 1.50 3.03 3.80 1.50 0.83 0.92 0.43 0.22 0.30 0.32 0.19 0.22 0.16 0.08 0.23 0.28 0.23 0.16 0.13 0.10 0.11 0.09 0.10 0.09 0.20 0.32 0.20 0.08 0.04 0.02 0.10 0.19 0.18 0.16 0.26 0.34 0.53
1.19 1.15 0.88 0.90 0.87 1.12 1.12 1.04 1.23 1.53 2.17 4.20 3.66 0.93 0.29 0.16 0.19 0.29 0.37 0.20 0.11 0.14 0.14 0.20 0.28 0.11 0.09 0.16 0.14 0.21 0.24 0.26 0.30 0.31 0.37 0.54 0.38 0.14 0.07 0.03 0.03 0.03 0.04 0.20 0.22 0.17 0.20
1.03 0.92 0.90 0.81 0.74 0.89 1.09 1.09 1.18 1.64 3.14 5.06 2.94 0.72 0.60 0.36 0.18 0.30 0.23 0.15 0.14 0.08 0.11 0.14 0.22 0.14 0.07 0.17 0.18 0.22 0.17 0.20 0.25 0.35 0.48 0.52 0.67 0.47 0.21 0.06 0.06 0.04 0.05 0.08 0.15 0.23 0.35
0.87 0.79 0.80 0.77 0.72 0.67 0.80 1.06 1.14 1.63 2.70 3.12 2.16 0.94 1.25 0.88 0.26 0.14 0.07 0.08 0.11 0.10 0.10 0.06 0.16 0.43 0.24 0.07 0.10 0.16 0.25 0.20 0.22 0.24 0.34 0.56 0.50 0.56 0.38 0.17 0.24 0.08 0.16 0.26 0.27 0.42 0.51
0.89 0.73 0.87 0.88 0.82 0.71 0.67 0.94 1.05 1.35 1.79 1.91 1.76 1.43 1.46 0.96 0.22 0.11 0.09 0.12 0.13 0.19 0.18 0.11 0.09 0.22 0.24 0.20 0.33 0.29 0.23 0.29 0.22 0.22 0.25 0.33 0.49 0.62 0.55 0.50 0.22 0.13 0.27 0.53 0.61 0.60 0.44
0.92 0.87 0.86 0.93 0.79 0.72 0.59 0.83 1.04 1.07 1.32 1.58 1.44 1.44 2.27 1.67 0.53 0.11 0.16 0.16 0.22 0.24 0.33 0.22 0.34 0.31 0.33 0.59 0.70 0.54 0.35 0.23 0.23 0.27 0.18 0.32 0.41 0.73 0.53 0.73 0.56 0.71 0.26 0.21 0.60 0.66 0.31
1.05 0.99 0.90 0.89 0.72 0.67 0.58 0.72 0.89 0.80 0.93 1.36 1.40 1.30 2.44 2.50 0.65 0.26 0.30 0.32 0.38 0.38 0.39 0.42 0.56 0.46 0.55 0.79 0.95 0.98 0.54 0.23 0.38 0.62 0.39 0.30 0.37 0.44 0.42 0.61 0.60 0.46 0.26 0.34 0.68 0.70 0.24
1.06 1.04 0.94 0.96 0.88 0.71 0.67 0.60 0.77 0.74 0.85 1.26 1.23 1.26 2.03 2.05 0.68 0.47 0.29 0.23 0.25 0.34 0.59 0.58 0.91 0.89 0.64 0.63 0.54 0.61 0.71 0.38 0.62 1.10 0.62 0.61 0.50 0.49 0.62 0.87 0.68 0.11 0.28 0.59 0.78 0.43 0.29
0.87 0.83 0.87 0.77 0.89 0.72 0.73 0.71 0.80 0.90 1.04 1.28 1.37 1.06 1.50 2.11 1.14 0.47 0.25 0.15 0.07 0.06 0.19 0.44 0.65 0.70 0.76 0.61 0.36 0.35 0.43 0.46 0.58 0.80 0.82 1.36 1.12 1.16 0.79 0.73 0.49 0.29 0.41 0.47 0.40 0.41 0.44

GFSGBSN_prec_precacc_111.txt.gz
Total_Precipitation_Accumulation
0.09 0.09 0.09 0.07 0.06 0.05 0.03 0.05 0.05 0.03 0.03 0.03 0.03 0.02 0.02 0.03 0.03 0.04 0.03 0.03 0.02 0.02 0.01 0.01 0.01 0.02 0.00 0.00 0.00 0.00 0.00 0.00 0.00 0.00 0.00 0.00 0.00 0.00 0.00 0.00 0.00 0.00 0.00 0.00 0.00 0.00 0.03
0.17 0.14 0.12 0.10 0.10 0.07 0.08 0.08 0.07 0.05 0.04 0.05 0.05 0.04 0.04 0.04 0.05 0.06 0.04 0.03 0.02 0.02 0.01 0.01 0.01 0.02 0.00 0.00 0.00 0.00 0.00 0.00 0.00 0.00 0.00 0.00 0.00 0.00 0.00 0.00 0.00 0.00 0.00 0.00 0.00 0.00 0.01
0.24 0.20 0.19 0.19 0.16 0.15 0.13 0.13 0.11 0.10 0.09 0.11 0.11 0.10 0.08 0.09 0.08 0.08 0.06 0.04 0.03 0.03 0.02 0.01 0.01 0.02 0.00 0.00 0.00 0.00 0.00 0.00 0.00 0.00 0.00 0.00 0.00 0.00 0.00 0.00 0.00 0.00 0.00 0.00 0.00 0.00 0.02
0.37 0.34 0.33 0.33 0.31 0.30 0.26 0.23 0.23 0.22 0.20 0.17 0.16 0.15 0.13 0.12 0.12 0.11 0.11 0.08 0.07 0.06 0.04 0.01 0.02 0.02 0.00 0.00 0.00 0.00 0.00 0.00 0.00 0.00 0.00 0.00 0.00 0.00 0.00 0.00 0.00 0.00 0.00 0.01 0.01 0.00 0.01
0.45 0.38 0.33 0.34 0.33 0.30 0.29 0.28 0.28 0.26 0.24 0.22 0.20 0.17 0.15 0.13 0.13 0.15 0.14 0.12 0.12 0.09 0.04 0.01 0.02 0.01 0.00 0.00 0.00 0.00 0.00 0.00 0.00 0.00 0.00 0.00 0.00 0.00 0.00 0.00 0.00 0.00 0.00 0.00 0.01 0.01 0.01
0.61 0.50 0.43 0.41 0.38 0.35 0.33 0.33 0.31 0.29 0.27 0.24 0.22 0.19 0.16 0.15 0.17 0.18 0.16 0.16 0.14 0.07 0.03 0.02 0.04 0.01 0.00 0.00 0.00 0.00 0.00 0.00 0.00 0.00 0.00 0.00 0.00 0.00 0.00 0.00 0.01 0.00 0.00 0.00 0.00 0.00 0.00
0.71 0.57 0.49 0.44 0.36 0.32 0.29 0.29 0.27 0.23 0.20 0.18 0.16 0.14 0.13 0.16 0.19 0.21 0.18 0.15 0.12 0.09 0.04 0.01 0.01 0.00 0.00 0.00 0.00 0.00 0.00 0.00 0.00 0.01 0.00 0.00 0.00 0.00 0.00 0.00 0.00 0.00 0.00 0.00 0.00 0.00 0.00
0.82 0.61 0.52 0.46 0.39 0.33 0.31 0.32 0.26 0.22 0.19 0.18 0.15 0.12 0.10 0.15 0.17 0.11 0.06 0.06 0.04 0.08 0.07 0.02 0.02 0.02 0.00 0.00 0.01 0.00 0.00 0.00 0.01 0.05 0.03 0.01 0.01 0.00 0.00 0.00 0.00 0.00 0.00 0.00 0.00 0.00 0.00
0.80 0.62 0.55 0.54 0.47 0.45 0.44 0.44 0.38 0.31 0.23 0.17 0.15 0.15 0.18 0.26 0.26 0.16 0.03 0.03 0.01 0.01 0.05 0.00 0.00 0.00 0.00 0.02 0.04 0.00 0.00 0.00 0.01 0.04 0.09 0.04 0.01 0.00 0.01 0.03 0.02 0.01 0.00 0.00 0.00 0.00 0.00
1.03 0.94 0.84 0.76 0.65 0.58 0.60 0.57 0.45 0.40 0.38 0.35 0.33 0.30 0.28 0.30 0.26 0.06 0.12 0.06 0.03 0.02 0.20 0.03 0.00 0.00 0.00 0.00 0.01 0.00 0.00 0.00 0.01 0.03 0.08 0.14 0.02 0.02 0.02 0.02 0.01 0.04 0.00 0.01 0.01 0.02 0.05
1.25 1.20 1.13 1.09 1.01 0.94 0.78 0.67 0.65 0.57 0.47 0.46 0.46 0.42 0.42 0.28 0.11 0.09 0.08 0.02 0.01 0.07 0.29 0.01 0.00 0.00 0.00 0.00 0.00 0.00 0.00 0.00 0.02 0.02 0.11 0.10 0.04 0.06 0.05 0.02 0.02 0.04 0.01 0.03 0.02 0.02 0.05
0.99 0.96 0.97 1.02 0.90 0.87 0.96 0.92 0.73 0.63 0.63 0.57 0.52 0.45 0.38 0.28 0.15 0.16 0.16 0.19 0.33 0.54 0.37 0.01 0.00 0.00 0.00 0.00 0.00 0.00 0.00 0.00 0.01 0.17 0.13 0.04 0.06 0.04 0.03 0.01 0.04 0.04 0.05 0.02 0.01 0.06 0.20
1.00 0.97 0.88 0.80 0.74 0.67 0.67 0.71 0.73 0.76 0.76 0.77 0.69 0.63 0.55 0.32 0.26 0.17 0.15 0.43 0.88 0.55 0.06 0.01 0.00 0.00 0.00 0.00 0.00 0.00 0.00 0.00 0.02 0.08 0.07 0.04 0.07 0.02 0.00 0.01 0.01 0.08 0.21 0.23 0.21 0.16 0.09
0.79 0.75 0.59 0.51 0.48 0.45 0.37 0.30 0.27 0.29 0.37 0.55 0.62 0.67 0.50 0.36 0.34 0.32 0.48 0.91 0.69 0.08 0.01 0.00 0.00 0.00 0.00 0.00 0.00 0.00 0.00 0.01 0.00 0.00 0.05 0.09 0.06 0.00 0.00 0.00 0.03 0.03 0.11 0.17 0.26 0.17 0.11
0.57 0.60 0.56 0.46 0.41 0.39 0.34 0.28 0.19 0.19 0.23 0.29 0.40 0.35 0.31 0.21 0.21 0.33 0.85 1.17 0.29 0.05 0.01 0.01 0.04 0.03 0.00 0.00 0.00 0.00 0.00 0.01 0.00 0.00 0.03 0.05 0.03 0.00 0.00 0.00 0.04 0.17 0.17 0.08 0.28 0.22 0.21
0.59 0.54 0.52 0.47 0.46 0.35 0.30 0.28 0.30 0.28 0.29 0.40 0.50 0.53 0.27 0.16 0.33 0.79 1.25 0.56 0.03 0.01 0.00 0.02 0.13 0.20 0.01 0.01 0.02 0.01 0.02 0.03 0.04 0.02 0.00 0.06 0.12 0.02 0.00 0.01 0.01 0.09 0.23 0.61 0.72 0.45 0.22
0.79 0.57 0.51 0.50 0.53 0.49 0.42 0.38 0.37 0.43 0.41 0.63 1.05 1.00 0.24 0.26 0.93 1.54 1.10 0.24 0.01 0.01 0.01 0.04 0.05 0.09 0.03 0.02 0.03 0.06 0.09 0.16 0.10 0.08 0.04 0.04 0.09 0.07 0.05 0.03 0.05 0.11 0.32 0.60 0.67 0.30 0.33
0.98 0.98 0.84 0.74 0.60 0.57 0.60 0.56 0.51 0.54 0.74 1.18 1.85 1.41 0.31 0.51 1.41 1.09 0.34 0.05 0.02 0.03 0.02 0.03 0.03 0.04 0.04 0.02 0.01 0.03 0.04 0.09 0.04 0.07 0.14 0.16 0.15 0.07 0.01 0.00 0.00 0.07 0.16 0.42 0.89 0.71 0.56
0.90 0.95 1.04 1.25 1.15 0.94 0.83 0.91 0.77 0.75 1.05 1.56 2.30 1.28 1.00 1.07 1.34 0.44 0.14 0.06 0.04 0.02 0.04 0.04 0.03 0.03 0.02 0.02 0.04 0.04 0.04 0.04 0.02 0.06 0.13 0.10 0.25 0.19 0.10 0.12 0.08 0.09 0.17 0.31 0.50 0.61 0.50
1.05 0.80 0.86 1.07 1.19 1.27 1.21 1.12 1.09 1.10 1.45 2.21 2.94 2.06 2.25 1.72 0.47 0.40 0.49 0.26 0.12 0.07 0.10 0.10 0.06 0.07 0.07 0.08 0.05 0.06 0.04 0.04 0.05 0.06 0.12 0.15 0.08 0.11 0.16 0.23 0.29 0.20 0.14 0.21 0.69 1.00 0.61
1.14 1.02 0.87 0.96 1.00 1.14 1.23 1.40 1.36 1.46 1.80 3.40 4.09 1.66 0.87 1.01 0.47 0.24 0.34 0.34 0.20 0.23 0.17 0.08 0.24 0.29 0.24 0.17 0.14 0.11 0.14 0.09 0.10 0.09 0.20 0.33 0.20 0.08 0.04 0.02 0.10 0.19 0.18 0.16 0.26 0.34 0.53
1.20 1.17 0.90 0.91 0.88 1.14 1.25 1.26 1.52 1.76 2.56 4.61 3.84 1.07 0.43 0.17 0.19 0.30 0.42 0.28 0.14 0.15 0.15 0.21 0.29 0.12 0.11 0.18 0.16 0.22 0.27 0.27 0.30 0.31 0.37 0.54 0.38 0.14 0.07 0.03 0.03 0.03 0.04 0.20 0.22 0.17 0.20
1.05 0.94 0.91 0.82 0.76 0.93 1.30 1.26 1.37 1.94 3.59 5.38 3.01 0.76 0.86 0.68 0.26 0.32 0.25 0.16 0.17 0.13 0.14 0.15 0.23 0.16 0.11 0.21 0.19 0.22 0.18 0.21 0.25 0.35 0.48 0.52 0.67 0.47 0.21 0.06 0.06 0.04 0.05 0.08 0.15 0.23 0.35
0.88 0.81 0.82 0.78 0.75 0.71 1.05 1.28 1.29 1.85 3.00 3.21 2.23 1.02 1.34 1.00 0.47 0.19 0.08 0.09 0.13 0.15 0.15 0.09 0.17 0.46 0.26 0.07 0.10 0.16 0.25 0.20 0.22 0.24 0.34 0.56 0.50 0.56 0.38 0.17 0.24 0.08 0.16 0.26 0.27 0.42 0.51
0.91 0.75 0.91 0.91 0.85 0.75 0.81 1.15 1.17 1.48 1.92 2.02 1.87 1.57 1.60 1.06 0.26 0.16 0.13 0.15 0.17 0.27 0.25 0.16 0.11 0.23 0.24 0.20 0.33 0.30 0.23 0.29 0.22 0.22 0.25 0.33 0.49 0.62 0.55 0.50 0.23 0.14 0.27 0.53 0.61 0.60 0.44
0.95 0.90 0.89 0.96 0.84 0.80 0.72 0.97 1.16 1.12 1.44 1.69 1.54 1.54 2.41 1.80 0.57 0.13 0.21 0.22 0.32 0.36 0.47 0.32 0.34 0.31 0.33 0.59 0.70 0.54 0.35 0.23 0.23 0.27 0.18 0.32 0.41 0.73 0.53 0.73 0.57 0.72 0.26 0.21 0.60 0.67 0.31
1.15 1.05 0.94 0.94 0.77 0.76 0.68 0.80 1.00 0.85 1.02 1.47 1.51 1.34 2.55 2.73 0.82 0.32 0.37 0.43 0.45 0.46 0.50 0.44 0.56 0.46 0.55 0.79 0.96 0.99 0.55 0.23 0.38 0.62 0.39 0.30 0.37 0.44 0.42 0.62 0.61 0.46 0.26 0.34 0.69 0.71 0.24
1.22 1.24 1.02 1.05 0.94 0.77 0.73 0.67 0.86 0.81 0.91 1.33 1.31 1.30 2.13 2.45 0.96 0.55 0.33 0.35 0.33 0.40 0.64 0.58 0.91 0.89 0.64 0.63 0.55 0.63 0.74 0.38 0.63 1.10 0.62 0.61 0.50 0.50 0.62 0.88 0.70 0.11 0.28 0.59 0.79 0.43 0.29
1.12 1.07 0.94 0.83 0.93 0.75 0.78 0.77 0.86 0.93 1.07 1.32 1.49 1.09 1.59 2.40 1.23 0.51 0.27 0.21 0.11 0.08 0.20 0.44 0.65 0.70 0.76 0.61 0.36 0.36 0.44 0.47 0.59 0.81 0.82 1.37 1.14 1.18 0.80 0.74 0.49 0.29 0.41 0.47 0.40 0.41 0.44

GFSGBSN_prec_precacc_114.txt.gz
Total_Precipitation_Accumulation
0.09 0.09 0.09 0.07 0.06 0.05 0.03 0.05 0.05 0.03 0.03 0.03 0.03 0.02 0.02 0.03 0.03 0.04 0.03 0.03 0.02 0.02 0.02 0.01 0.01 0.02 0.00 0.00 0.00 0.00 0.00 0.00 0.00 0.00 0.00 0.00 0.00 0.00 0.00 0.00 0.00 0.00 0.00 0.00 0.00 0.00 0.03
0.17 0.14 0.12 0.10 0.10 0.07 0.08 0.08 0.07 0.05 0.04 0.05 0.05 0.04 0.04 0.04 0.05 0.06 0.04 0.03 0.02 0.03 0.02 0.01 0.01 0.02 0.00 0.00 0.00 0.00 0.00 0.00 0.00 0.00 0.00 0.00 0.00 0.00 0.00 0.00 0.00 0.00 0.00 0.00 0.00 0.00 0.01
0.24 0.20 0.19 0.19 0.16 0.15 0.13 0.13 0.11 0.10 0.09 0.11 0.11 0.10 0.08 0.09 0.08 0.08 0.06 0.04 0.03 0.04 0.03 0.01 0.01 0.02 0.00 0.00 0.00 0.00 0.00 0.00 0.00 0.00 0.00 0.00 0.00 0.00 0.00 0.00 0.00 0.00 0.00 0.00 0.00 0.00 0.02
0.37 0.34 0.33 0.33 0.31 0.30 0.26 0.23 0.23 0.22 0.20 0.17 0.16 0.15 0.13 0.12 0.12 0.12 0.11 0.08 0.07 0.07 0.04 0.02 0.02 0.02 0.00 0.00 0.00 0.00 0.00 0.00 0.00 0.00 0.00 0.00 0.00 0.00 0.00 0.00 0.00 0.00 0.00 0.01 0.01 0.00 0.01
0.45 0.38 0.33 0.34 0.33 0.30 0.29 0.28 0.28 0.26 0.24 0.22 0.20 0.17 0.15 0.13 0.13 0.15 0.14 0.13 0.12 0.10 0.05 0.02 0.02 0.01 0.00 0.00 0.00 0.00 0.00 0.00 0.00 0.00 0.00 0.00 0.00 0.00 0.00 0.00 0.00 0.00 0.00 0.00 0.01 0.01 0.01
0.61 0.50 0.43 0.42 0.39 0.36 0.33 0.33 0.31 0.29 0.27 0.24 0.22 0.19 0.16 0.15 0.17 0.19 0.16 0.16 0.15 0.07 0.04 0.02 0.04 0.01 0.00 0.00 0.00 0.00 0.00 0.00 0.00 0.00 0.00 0.00 0.00 0.00 0.00 0.00 0.01 0.00 0.00 0.00 0.00 0.00 0.00
0.71 0.57 0.49 0.44 0.36 0.32 0.29 0.29 0.27 0.23 0.20 0.18 0.16 0.14 0.13 0.16 0.19 0.23 0.19 0.15 0.12 0.09 0.04 0.01 0.01 0.00 0.00 0.00 0.00 0.00 0.00 0.00 0.00 0.01 0.00 0.00 0.00 0.00 0.00 0.00 0.00 0.00 0.00 0.00 0.00 0.00 0.00
0.82 0.62 0.52 0.46 0.39 0.33 0.31 0.32 0.26 0.22 0.19 0.18 0.15 0.12 0.10 0.15 0.18 0.12 0.06 0.06 0.04 0.08 0.07 0.02 0.02 0.02 0.00 0.00 0.01 0.00 0.00 0.00 0.01 0.05 0.03 0.01 0.01 0.00 0.00 0.00 0.00 0.00 0.00 0.00 0.00 0.00 0.00
0.82 0.64 0.56 0.54 0.47 0.45 0.44 0.44 0.38 0.31 0.23 0.17 0.15 0.15 0.18 0.26 0.29 0.16 0.03 0.03 0.01 0.01 0.05 0.00 0.00 0.00 0.00 0.02 0.04 0.00 0.00 0.00 0.01 0.04 0.09 0.04 0.01 0.00 0.01 0.03 0.02 0.01 0.00 0.00 0.00 0.00 0.00
1.04 0.95 0.84 0.76 0.65 0.58 0.60 0.57 0.45 0.40 0.38 0.35 0.33 0.30 0.28 0.31 0.30 0.07 0.12 0.06 0.03 0.02 0.20 0.03 0.00 0.00 0.00 0.00 0.01 0.00 0.00 0.00 0.01 0.03 0.08 0.14 0.02 0.02 0.02 0.02 0.01 0.04 0.00 0.01 0.01 0.02 0.05
1.26 1.21 1.13 1.09 1.01 0.95 0.78 0.67 0.65 0.57 0.47 0.46 0.46 0.42 0.42 0.28 0.11 0.10 0.08 0.02 0.01 0.07 0.29 0.01 0.00 0.00 0.00 0.00 0.00 0.00 0.00 0.00 0.02 0.02 0.11 0.10 0.04 0.06 0.05 0.02 0.02 0.04 0.01 0.03 0.02 0.02 0.05
1.00 0.96 0.97 1.02 0.90 0.87 0.97 0.92 0.73 0.63 0.63 0.57 0.52 0.45 0.39 0.29 0.16 0.16 0.16 0.19 0.33 0.55 0.37 0.01 0.00 0.00 0.00 0.00 0.00 0.00 0.00 0.00 0.01 0.17 0.13 0.04 0.06 0.04 0.03 0.01 0.04 0.04 0.05 0.02 0.01 0.06 0.20
1.00 0.97 0.88 0.80 0.75 0.68 0.68 0.71 0.73 0.76 0.76 0.77 0.69 0.63 0.55 0.32 0.26 0.17 0.15 0.44 0.92 0.56 0.06 0.01 0.00 0.00 0.00 0.00 0.00 0.00 0.00 0.00 0.02 0.08 0.07 0.04 0.07 0.02 0.00 0.01 0.01 0.08 0.21 0.24 0.21 0.16 0.09
0.80 0.75 0.59 0.51 0.48 0.45 0.38 0.30 0.27 0.29 0.37 0.55 0.63 0.67 0.52 0.36 0.34 0.33 0.50 0.94 0.71 0.08 0.01 0.00 0.00 0.00 0.00 0.00 0.00 0.00 0.00 0.01 0.00 0.00 0.05 0.09 0.06 0.00 0.00 0.00 0.03 0.03 0.11 0.17 0.26 0.17 0.11
0.59 0.60 0.57 0.47 0.41 0.39 0.34 0.28 0.19 0.19 0.23 0.29 0.40 0.35 0.31 0.21 0.22 0.36 0.92 1.23 0.30 0.05 0.01 0.01 0.04 0.03 0.00 0.00 0.00 0.00 0.00 0.01 0.00 0.00 0.03 0.05 0.03 0.00 0.00 0.00 0.04 0.17 0.17 0.08 0.28 0.22 0.21
0.60 0.55 0.52 0.47 0.47 0.36 0.31 0.29 0.31 0.28 0.29 0.40 0.50 0.53 0.27 0.17 0.36 0.94 1.40 0.62 0.03 0.01 0.00 0.03 0.13 0.20 0.01 0.01 0.02 0.01 0.02 0.03 0.04 0.02 0.00 0.06 0.13 0.02 0.00 0.01 0.01 0.09 0.23 0.62 0.73 0.46 0.23
0.80 0.57 0.51 0.51 0.54 0.51 0.43 0.39 0.38 0.43 0.42 0.63 1.06 1.00 0.24 0.27 1.05 1.74 1.29 0.28 0.02 0.01 0.01 0.04 0.05 0.10 0.03 0.02 0.03 0.06 0.09 0.16 0.11 0.09 0.05 0.05 0.10 0.08 0.05 0.03 0.05 0.11 0.32 0.60 0.67 0.31 0.35
0.99 0.99 0.84 0.74 0.61 0.59 0.62 0.57 0.52 0.56 0.81 1.25 1.90 1.47 0.31 0.53 1.58 1.32 0.43 0.07 0.02 0.03 0.03 0.04 0.04 0.05 0.04 0.02 0.02 0.03 0.04 0.09 0.04 0.07 0.16 0.19 0.17 0.07 0.01 0.00 0.00 0.07 0.16 0.42 0.90 0.72 0.61
0.90 0.96 1.06 1.26 1.16 0.95 0.85 0.94 0.79 0.78 1.12 1.60 2.44 1.34 1.03 1.10 1.46 0.53 0.17 0.06 0.05 0.03 0.05 0.07 0.05 0.03 0.02 0.02 0.04 0.04 0.04 0.04 0.02 0.06 0.17 0.19 0.38 0.29 0.15 0.13 0.08 0.09 0.17 0.31 0.52 0.64 0.52
1.05 0.80 0.86 1.08 1.19 1.28 1.22 1.13 1.10 1.11 1.51 2.29 3.13 2.20 2.33 1.83 0.52 0.44 0.50 0.28 0.15 0.08 0.11 0.13 0.07 0.08 0.07 0.08 0.05 0.06 0.04 0.04 0.05 0.07 0.13 0.18 0.17 0.18 0.19 0.24 0.29 0.20 0.14 0.21 0.70 1.01 0.62
1.15 1.04 0.90 0.98 1.01 1.15 1.24 1.41 1.39 1.49 1.84 3.55 4.41 1.88 0.89 1.03 0.49 0.25 0.34 0.35 0.21 0.25 0.21 0.12 0.28 0.29 0.24 0.17 0.14 0.11 0.14 0.09 0.10 0.09 0.20 0.33 0.21 0.10 0.05 0.02 0.10 0.19 0.18 0.16 0.27 0.34 0.53
1.21 1.19 0.92 0.93 0.90 1.15 1.25 1.27 1.54 1.80 2.64 4.70 4.07 1.23 0.46 0.17 0.19 0.30 0.44 0.34 0.15 0.15 0.18 0.24 0.37 0.16 0.11 0.18 0.16 0.22 0.27 0.27 0.31 0.31 0.37 0.55 0.40 0.16 0.09 0.03 0.03 0.03 0.04 0.20 0.22 0.17 0.20
1.06 0.95 0.93 0.83 0.76 0.93 1.30 1.26 1.38 1.97 3.69 5.57 3.11 0.82 0.90 0.72 0.28 0.34 0.26 0.17 0.19 0.20 0.18 0.16 0.24 0.17 0.12 0.21 0.19 0.22 0.18 0.21 0.25 0.35 0.48 0.52 0.69 0.51 0.25 0.07 0.08 0.04 0.05 0.08 0.15 0.23 0.35
0.90 0.83 0.83 0.79 0.75 0.72 1.05 1.28 1.30 1.88 3.05 3.23 2.28 1.08 1.41 1.07 0.63 0.31 0.09 0.09 0.14 0.19 0.22 0.14 0.22 0.46 0.26 0.08 0.11 0.16 0.25 0.21 0.22 0.24 0.34 0.56 0.50 0.57 0.38 0.18 0.29 0.09 0.16 0.26 0.27 0.42 0.51
0.92 0.76 0.91 0.93 0.87 0.77 0.81 1.17 1.19 1.51 1.97 2.06 1.95 1.60 1.65 1.10 0.28 0.29 0.26 0.18 0.18 0.30 0.30 0.23 0.17 0.25 0.26 0.22 0.35 0.33 0.25 0.30 0.23 0.22 0.25 0.33 0.50 0.63 0.55 0.50 0.23 0.14 0.27 0.53 0.61 0.60 0.44
0.95 0.91 0.90 0.96 0.85 0.81 0.73 0.99 1.19 1.17 1.51 1.76 1.66 1.60 2.44 1.85 0.58 0.13 0.23 0.29 0.35 0.37 0.50 0.36 0.43 0.35 0.33 0.60 0.71 0.56 0.36 0.24 0.23 0.27 0.18 0.32 0.41 0.73 0.53 0.73 0.57 0.72 0.26 0.21 0.60 0.67 0.31
1.17 1.08 0.96 0.95 0.78 0.77 0.69 0.82 1.04 0.89 1.09 1.62 1.58 1.40 2.60 2.78 0.82 0.32 0.37 0.45 0.47 0.47 0.55 0.50 0.66 0.58 0.55 0.80 0.97 0.99 0.55 0.23 0.38 0.62 0.39 0.30 0.37 0.44 0.42 0.62 0.61 0.46 0.26 0.34 0.69 0.71 0.24
1.26 1.28 1.07 1.08 0.97 0.80 0.76 0.69 0.89 0.87 0.96 1.47 1.36 1.31 2.14 2.48 1.01 0.73 0.36 0.36 0.36 0.42 0.67 0.62 0.97 0.92 0.64 0.63 0.55 0.63 0.75 0.39 0.63 1.10 0.62 0.61 0.50 0.50 0.62 0.88 0.70 0.11 0.28 0.59 0.79 0.43 0.29
1.15 1.10 0.96 0.84 0.94 0.77 0.79 0.79 0.94 1.09 1.16 1.38 1.54 1.13 1.61 2.43 1.35 0.72 0.40 0.23 0.13 0.12 0.21 0.44 0.65 0.70 0.76 0.61 0.36 0.36 0.45 0.47 0.59 0.81 0.82 1.37 1.14 1.18 0.80 0.74 0.49 0.29 0.41 0.47 0.40 0.41 0.44

GFSGBSN_prec_precacc_117.txt.gz
Total_Precipitation_Accumulation
0.10 0.09 0.09 0.07 0.06 0.05 0.03 0.05 0.05 0.03 0.03 0.03 0.03 0.02 0.02 0.03 0.03 0.04 0.03 0.03 0.02 0.02 0.02 0.01 0.01 0.02 0.00 0.00 0.00 0.00 0.00 0.00 0.00 0.00 0.00 0.00 0.00 0.00 0.00 0.00 0.00 0.00 0.00 0.00 0.00 0.00 0.03
0.17 0.14 0.12 0.10 0.10 0.07 0.08 0.08 0.07 0.05 0.04 0.05 0.05 0.04 0.04 0.04 0.05 0.06 0.04 0.03 0.02 0.03 0.02 0.02 0.01 0.02 0.00 0.00 0.00 0.00 0.00 0.00 0.00 0.00 0.00 0.00 0.00 0.00 0.00 0.00 0.00 0.00 0.00 0.00 0.00 0.00 0.01
0.24 0.20 0.19 0.19 0.16 0.15 0.13 0.13 0.11 0.10 0.09 0.11 0.11 0.10 0.08 0.09 0.08 0.08 0.07 0.04 0.03 0.04 0.03 0.02 0.02 0.02 0.00 0.00 0.00 0.00 0.00 0.00 0.00 0.00 0.00 0.00 0.00 0.00 0.00 0.00 0.00 0.00 0.00 0.00 0.00 0.00 0.02
0.37 0.34 0.33 0.33 0.31 0.30 0.26 0.23 0.23 0.22 0.20 0.17 0.16 0.15 0.13 0.12 0.12 0.12 0.12 0.08 0.07 0.07 0.05 0.02 0.02 0.02 0.00 0.00 0.00 0.00 0.00 0.00 0.00 0.00 0.00 0.00 0.00 0.00 0.00 0.00 0.00 0.00 0.00 0.01 0.01 0.00 0.01
0.45 0.38 0.33 0.34 0.33 0.30 0.29 0.28 0.28 0.26 0.24 0.22 0.20 0.17 0.15 0.13 0.13 0.15 0.14 0.13 0.13 0.11 0.06 0.03 0.02 0.01 0.00 0.00 0.00 0.00 0.00 0.00 0.00 0.00 0.00 0.00 0.00 0.00 0.00 0.00 0.00 0.00 0.00 0.00 0.01 0.01 0.01
0.61 0.50 0.43 0.42 0.39 0.36 0.34 0.34 0.31 0.29 0.27 0.24 0.22 0.19 0.16 0.15 0.17 0.19 0.17 0.17 0.15 0.08 0.04 0.02 0.04 0.01 0.00 0.00 0.00 0.00 0.00 0.00 0.00 0.00 0.00 0.00 0.00 0.00 0.00 0.00 0.01 0.00 0.00 0.00 0.00 0.00 0.00
0.71 0.57 0.49 0.44 0.36 0.32 0.29 0.29 0.27 0.24 0.20 0.18 0.16 0.14 0.13 0.16 0.19 0.23 0.19 0.15 0.12 0.09 0.04 0.01 0.01 0.00 0.00 0.00 0.00 0.00 0.00 0.00 0.00 0.01 0.00 0.00 0.00 0.00 0.00 0.00 0.00 0.00 0.00 0.00 0.00 0.00 0.00
0.82 0.62 0.52 0.47 0.39 0.33 0.31 0.32 0.26 0.22 0.19 0.18 0.15 0.12 0.10 0.15 0.18 0.13 0.06 0.06 0.04 0.08 0.07 0.02 0.02 0.02 0.00 0.00 0.01 0.00 0.00 0.00 0.01 0.05 0.03 0.01 0.01 0.00 0.00 0.00 0.00 0.00 0.00 0.00 0.00 0.00 0.00
0.84 0.65 0.57 0.55 0.47 0.45 0.44 0.44 0.38 0.31 0.23 0.17 0.15 0.15 0.18 0.26 0.29 0.17 0.03 0.03 0.01 0.01 0.05 0.00 0.00 0.00 0.00 0.02 0.04 0.00 0.00 0.00 0.01 0.04 0.09 0.04 0.01 0.00 0.01 0.03 0.02 0.01 0.00 0.00 0.00 0.00 0.00
1.07 0.96 0.86 0.78 0.68 0.58 0.60 0.57 0.45 0.40 0.38 0.35 0.33 0.30 0.28 0.31 0.31 0.07 0.12 0.06 0.03 0.02 0.20 0.03 0.00 0.00 0.00 0.00 0.01 0.00 0.00 0.00 0.01 0.03 0.08 0.14 0.02 0.02 0.02 0.02 0.01 0.04 0.00 0.01 0.01 0.02 0.05
1.27 1.21 1.14 1.09 1.02 0.96 0.78 0.68 0.65 0.57 0.47 0.46 0.46 0.42 0.42 0.29 0.11 0.10 0.08 0.02 0.01 0.07 0.29 0.01 0.00 0.00 0.00 0.00 0.00 0.00 0.00 0.00 0.02 0.02 0.11 0.10 0.04 0.06 0.05 0.02 0.02 0.04 0.01 0.03 0.02 0.02 0.05
1.02 0.98 0.98 1.03 0.91 0.88 0.97 0.93 0.73 0.63 0.63 0.57 0.52 0.45 0.39 0.29 0.17 0.16 0.16 0.19 0.33 0.55 0.37 0.01 0.00 0.00 0.00 0.00 0.00 0.00 0.00 0.00 0.01 0.17 0.13 0.04 0.06 0.04 0.03 0.01 0.04 0.04 0.05 0.02 0.01 0.06 0.20
1.03 1.00 0.90 0.82 0.76 0.68 0.68 0.71 0.73 0.76 0.76 0.77 0.69 0.63 0.55 0.33 0.26 0.17 0.16 0.44 0.92 0.56 0.06 0.01 0.00 0.00 0.00 0.00 0.00 0.00 0.00 0.00 0.02 0.08 0.07 0.04 0.07 0.02 0.00 0.01 0.01 0.08 0.21 0.25 0.21 0.16 0.09
0.83 0.77 0.61 0.53 0.50 0.46 0.38 0.31 0.27 0.30 0.37 0.55 0.63 0.67 0.52 0.36 0.34 0.33 0.52 0.97 0.71 0.08 0.01 0.00 0.00 0.00 0.00 0.00 0.00 0.00 0.00 0.01 0.00 0.00 0.05 0.09 0.06 0.00 0.00 0.00 0.03 0.03 0.11 0.18 0.26 0.17 0.11
0.64 0.64 0.59 0.48 0.43 0.40 0.35 0.29 0.20 0.19 0.23 0.29 0.40 0.35 0.32 0.22 0.23 0.40 0.97 1.29 0.31 0.05 0.01 0.01 0.04 0.03 0.00 0.00 0.00 0.00 0.00 0.01 0.00 0.00 0.03 0.05 0.03 0.00 0.00 0.00 0.04 0.17 0.17 0.08 0.29 0.22 0.21
0.64 0.59 0.56 0.50 0.49 0.38 0.32 0.30 0.31 0.28 0.29 0.40 0.50 0.53 0.27 0.18 0.38 1.01 1.49 0.66 0.03 0.01 0.00 0.03 0.13 0.20 0.01 0.01 0.02 0.01 0.02 0.03 0.04 0.02 0.00 0.06 0.13 0.02 0.00 0.01 0.01 0.09 0.23 0.62 0.74 0.46 0.23
0.83 0.61 0.54 0.53 0.55 0.53 0.45 0.41 0.40 0.45 0.43 0.63 1.06 1.00 0.24 0.28 1.13 1.91 1.44 0.31 0.02 0.01 0.01 0.04 0.05 0.10 0.03 0.02 0.03 0.06 0.09 0.16 0.11 0.09 0.05 0.05 0.10 0.08 0.05 0.03 0.05 0.11 0.32 0.60 0.67 0.31 0.35
1.02 1.03 0.87 0.76 0.63 0.60 0.64 0.60 0.54 0.59 0.87 1.27 1.93 1.47 0.31 0.54 1.71 1.44 0.48 0.08 0.02 0.03 0.03 0.04 0.04 0.05 0.04 0.02 0.02 0.03 0.04 0.09 0.04 0.07 0.17 0.22 0.20 0.08 0.01 0.00 0.01 0.07 0.16 0.42 0.90 0.72 0.61
0.92 0.97 1.07 1.27 1.17 0.96 0.86 0.95 0.81 0.81 1.19 1.63 2.49 1.40 1.04 1.16 1.50 0.59 0.19 0.07 0.05 0.03 0.05 0.07 0.05 0.03 0.02 0.02 0.05 0.04 0.04 0.04 0.02 0.06 0.18 0.22 0.42 0.32 0.19 0.16 0.10 0.11 0.17 0.31 0.52 0.65 0.53
1.08 0.82 0.87 1.09 1.20 1.28 1.22 1.15 1.13 1.15 1.57 2.33 3.19 2.27 2.45 1.92 0.54 0.44 0.52 0.31 0.18 0.08 0.11 0.14 0.08 0.09 0.08 0.08 0.06 0.06 0.04 0.04 0.05 0.07 0.15 0.23 0.18 0.18 0.20 0.26 0.30 0.21 0.15 0.21 0.70 1.02 0.62
1.17 1.06 0.91 0.99 1.02 1.16 1.24 1.42 1.41 1.53 1.90 3.65 4.55 1.97 0.90 1.10 0.51 0.25 0.35 0.36 0.22 0.26 0.22 0.13 0.31 0.31 0.25 0.17 0.14 0.12 0.14 0.09 0.10 0.09 0.20 0.34 0.21 0.10 0.07 0.07 0.15 0.23 0.20 0.17 0.27 0.34 0.54
1.24 1.20 0.93 0.94 0.92 1.18 1.27 1.29 1.56 1.84 2.69 4.80 4.20 1.28 0.49 0.18 0.19 0.30 0.46 0.35 0.15 0.15 0.19 0.26 0.38 0.17 0.15 0.19 0.16 0.22 0.27 0.28 0.31 0.31 0.37 0.55 0.40 0.16 0.09 0.03 0.03 0.04 0.05 0.20 0.22 0.17 0.20
1.10 0.98 0.94 0.84 0.78 0.96 1.33 1.28 1.40 2.00 3.76 5.68 3.12 0.83 0.98 0.77 0.28 0.35 0.27 0.17 0.20 0.22 0.18 0.16 0.24 0.20 0.19 0.29 0.22 0.23 0.18 0.21 0.26 0.36 0.48 0.52 0.69 0.52 0.27 0.09 0.22 0.16 0.05 0.08 0.15 0.23 0.35
0.93 0.85 0.86 0.81 0.77 0.73 1.07 1.29 1.31 1.90 3.08 3.26 2.29 1.09 1.46 1.14 0.68 0.32 0.09 0.09 0.14 0.19 0.23 0.15 0.28 0.49 0.28 0.11 0.19 0.24 0.26 0.21 0.22 0.24 0.34 0.56 0.50 0.59 0.40 0.20 0.37 0.12 0.16 0.26 0.27 0.42 0.51
0.94 0.78 0.94 0.95 0.90 0.78 0.83 1.17 1.19 1.52 2.00 2.06 1.96 1.65 1.73 1.18 0.31 0.31 0.27 0.18 0.18 0.30 0.30 0.24 0.21 0.30 0.30 0.26 0.42 0.42 0.30 0.32 0.24 0.22 0.25 0.33 0.50 0.64 0.56 0.52 0.24 0.14 0.27 0.53 0.61 0.60 0.44
0.95 0.91 0.91 0.97 0.86 0.83 0.75 1.00 1.19 1.18 1.54 1.78 1.67 1.63 2.50 1.90 0.62 0.15 0.24 0.30 0.37 0.37 0.51 0.37 0.46 0.42 0.42 0.64 0.76 0.61 0.38 0.25 0.24 0.27 0.18 0.32 0.41 0.74 0.54 0.74 0.57 0.72 0.26 0.21 0.60 0.67 0.31
1.19 1.08 0.97 0.95 0.79 0.78 0.69 0.83 1.05 0.91 1.13 1.66 1.60 1.46 2.73 2.86 0.83 0.32 0.37 0.45 0.47 0.47 0.55 0.50 0.67 0.72 0.77 0.90 1.01 1.00 0.55 0.23 0.38 0.62 0.39 0.30 0.38 0.44 0.42 0.62 0.61 0.46 0.26 0.34 0.69 0.71 0.24
1.34 1.31 1.09 1.09 0.97 0.80 0.76 0.69 0.90 0.89 1.02 1.53 1.40 1.35 2.26 2.60 1.02 0.73 0.36 0.37 0.36 0.42 0.67 0.62 0.99 1.02 0.84 0.81 0.58 0.65 0.75 0.39 0.63 1.10 0.62 0.61 0.50 0.50 0.62 0.88 0.70 0.11 0.28 0.59 0.79 0.43 0.29
1.22 1.15 1.02 0.87 0.96 0.79 0.81 0.79 0.95 1.12 1.21 1.47 1.63 1.18 1.68 2.50 1.36 0.73 0.42 0.25 0.13 0.12 0.21 0.44 0.67 0.71 0.80 0.65 0.37 0.37 0.45 0.47 0.59 0.81 0.82 1.37 1.14 1.18 0.80 0.74 0.49 0.29 0.41 0.47 0.40 0.41 0.44

GFSGBSN_prec_precacc_123.txt.gz
Total_Precipitation_Accumulation
0.21 0.17 0.14 0.10 0.07 0.05 0.03 0.05 0.05 0.03 0.03 0.03 0.03 0.02 0.02 0.03 0.03 0.04 0.03 0.03 0.02 0.02 0.02 0.01 0.01 0.02 0.00 0.00 0.00 0.00 0.00 0.00 0.00 0.00 0.00 0.00 0.00 0.00 0.00 0.00 0.00 0.00 0.00 0.00 0.00 0.00 0.03
0.44 0.35 0.28 0.21 0.17 0.10 0.08 0.08 0.07 0.05 0.04 0.05 0.05 0.04 0.04 0.04 0.05 0.06 0.04 0.03 0.02 0.03 0.02 0.02 0.01 0.02 0.00 0.00 0.00 0.00 0.00 0.00 0.00 0.00 0.00 0.00 0.00 0.00 0.00 0.00 0.00 0.00 0.00 0.00 0.00 0.00 0.01
0.43 0.32 0.28 0.26 0.20 0.19 0.15 0.13 0.12 0.10 0.09 0.11 0.11 0.10 0.08 0.09 0.08 0.08 0.07 0.04 0.03 0.04 0.03 0.02 0.02 0.02 0.00 0.00 0.00 0.00 0.00 0.00 0.00 0.00 0.00 0.00 0.00 0.00 0.00 0.00 0.00 0.00 0.00 0.00 0.00 0.00 0.02
0.59 0.56 0.51 0.45 0.38 0.32 0.26 0.24 0.23 0.22 0.20 0.17 0.16 0.15 0.13 0.12 0.12 0.12 0.12 0.08 0.07 0.07 0.05 0.04 0.02 0.02 0.00 0.00 0.00 0.00 0.00 0.00 0.00 0.00 0.00 0.00 0.00 0.00 0.00 0.00 0.00 0.00 0.00 0.01 0.01 0.00 0.01
0.52 0.48 0.45 0.45 0.41 0.35 0.31 0.28 0.28 0.26 0.24 0.22 0.20 0.17 0.15 0.13 0.13 0.15 0.14 0.13 0.13 0.11 0.07 0.03 0.02 0.01 0.00 0.00 0.00 0.00 0.00 0.00 0.00 0.00 0.00 0.00 0.00 0.00 0.00 0.00 0.00 0.00 0.00 0.00 0.01 0.01 0.01
0.63 0.52 0.47 0.47 0.43 0.40 0.37 0.36 0.33 0.30 0.28 0.25 0.22 0.19 0.16 0.15 0.17 0.19 0.17 0.17 0.16 0.08 0.04 0.02 0.04 0.01 0.00 0.00 0.00 0.00 0.00 0.00 0.00 0.00 0.00 0.00 0.00 0.00 0.00 0.00 0.01 0.00 0.00 0.00 0.00 0.00 0.00
0.78 0.60 0.51 0.46 0.38 0.33 0.30 0.30 0.28 0.24 0.21 0.18 0.16 0.14 0.13 0.16 0.19 0.23 0.19 0.15 0.12 0.09 0.04 0.01 0.01 0.00 0.00 0.00 0.00 0.00 0.00 0.00 0.00 0.01 0.00 0.00 0.00 0.00 0.00 0.00 0.00 0.00 0.00 0.00 0.00 0.00 0.00
0.92 0.69 0.56 0.49 0.42 0.35 0.31 0.33 0.27 0.23 0.20 0.18 0.15 0.12 0.10 0.15 0.18 0.13 0.06 0.06 0.04 0.08 0.07 0.02 0.02 0.02 0.00 0.00 0.01 0.00 0.00 0.00 0.01 0.05 0.03 0.01 0.01 0.00 0.00 0.00 0.00 0.00 0.00 0.00 0.00 0.00 0.00
0.93 0.74 0.62 0.59 0.50 0.47 0.45 0.45 0.39 0.31 0.24 0.17 0.15 0.15 0.18 0.26 0.30 0.19 0.04 0.03 0.01 0.01 0.05 0.00 0.00 0.00 0.00 0.02 0.04 0.00 0.00 0.00 0.01 0.04 0.09 0.04 0.01 0.00 0.01 0.03 0.02 0.01 0.00 0.00 0.00 0.00 0.00
1.15 1.05 0.94 0.84 0.73 0.62 0.61 0.57 0.45 0.40 0.39 0.36 0.33 0.30 0.28 0.31 0.31 0.08 0.12 0.06 0.03 0.02 0.20 0.03 0.00 0.00 0.00 0.00 0.01 0.00 0.00 0.00 0.01 0.03 0.08 0.14 0.02 0.02 0.02 0.02 0.01 0.04 0.00 0.01 0.01 0.02 0.05
1.31 1.27 1.21 1.16 1.08 1.02 0.84 0.70 0.66 0.57 0.47 0.46 0.46 0.42 0.42 0.29 0.11 0.10 0.08 0.02 0.01 0.07 0.29 0.01 0.00 0.00 0.00 0.00 0.00 0.00 0.00 0.00 0.02 0.02 0.11 0.10 0.04 0.06 0.05 0.02 0.02 0.04 0.01 0.03 0.02 0.02 0.05
1.10 1.03 1.03 1.09 0.97 0.94 1.03 0.98 0.77 0.65 0.64 0.57 0.52 0.45 0.39 0.29 0.17 0.16 0.16 0.19 0.33 0.55 0.37 0.01 0.00 0.00 0.00 0.00 0.00 0.00 0.00 0.00 0.01 0.17 0.13 0.04 0.06 0.04 0.03 0.01 0.04 0.04 0.05 0.02 0.01 0.06 0.20
1.26 1.15 0.99 0.88 0.81 0.75 0.75 0.77 0.77 0.79 0.78 0.77 0.69 0.63 0.55 0.33 0.26 0.17 0.16 0.46 0.92 0.56 0.06 0.01 0.00 0.00 0.00 0.00 0.00 0.00 0.00 0.00 0.02 0.08 0.07 0.04 0.07 0.02 0.00 0.01 0.01 0.08 0.21 0.27 0.22 0.16 0.09
0.96 1.02 0.85 0.65 0.57 0.51 0.46 0.37 0.32 0.33 0.39 0.57 0.64 0.68 0.52 0.36 0.34 0.33 0.55 1.01 0.71 0.08 0.01 0.00 0.00 0.00 0.00 0.00 0.00 0.00 0.00 0.01 0.00 0.00 0.05 0.09 0.06 0.00 0.00 0.00 0.03 0.03 0.11 0.20 0.27 0.17 0.11
0.71 0.75 0.80 0.79 0.62 0.50 0.43 0.42 0.26 0.24 0.26 0.32 0.43 0.36 0.32 0.22 0.23 0.41 1.05 1.34 0.31 0.05 0.01 0.01 0.04 0.03 0.00 0.00 0.00 0.00 0.00 0.01 0.00 0.00 0.03 0.05 0.03 0.00 0.00 0.00 0.04 0.17 0.17 0.09 0.33 0.26 0.23
0.72 0.67 0.68 0.67 0.83 0.62 0.44 0.36 0.36 0.32 0.34 0.43 0.50 0.53 0.28 0.18 0.39 1.08 1.64 0.68 0.03 0.01 0.00 0.03 0.13 0.20 0.01 0.01 0.02 0.01 0.02 0.03 0.04 0.02 0.00 0.06 0.13 0.02 0.00 0.01 0.01 0.09 0.23 0.63 0.79 0.50 0.23
0.96 0.72 0.62 0.61 0.69 0.82 0.75 0.61 0.49 0.50 0.49 0.66 1.06 1.01 0.24 0.29 1.23 2.05 1.56 0.33 0.02 0.01 0.01 0.04 0.05 0.10 0.03 0.02 0.03 0.06 0.09 0.16 0.11 0.09 0.05 0.05 0.10 0.08 0.05 0.03 0.05 0.11 0.32 0.60 0.69 0.32 0.35
1.24 1.23 1.04 0.86 0.70 0.73 0.89 0.95 0.76 0.73 1.01 1.33 1.95 1.49 0.31 0.60 1.89 1.57 0.56 0.08 0.02 0.03 0.03 0.04 0.04 0.05 0.04 0.02 0.02 0.03 0.04 0.09 0.04 0.07 0.17 0.22 0.23 0.09 0.02 0.00 0.02 0.09 0.17 0.45 0.97 0.78 0.64
1.06 1.20 1.29 1.48 1.25 1.03 0.99 1.14 1.06 1.01 1.43 1.79 2.55 1.41 1.06 1.35 1.58 0.68 0.23 0.08 0.06 0.03 0.05 0.08 0.05 0.03 0.02 0.02 0.05 0.04 0.04 0.04 0.02 0.07 0.20 0.30 0.50 0.38 0.23 0.19 0.11 0.11 0.17 0.33 0.57 0.72 0.57
1.18 0.94 1.07 1.31 1.44 1.38 1.30 1.26 1.22 1.24 1.71 2.48 3.36 2.38 2.55 2.10 0.60 0.46 0.54 0.33 0.19 0.09 0.11 0.15 0.09 0.09 0.08 0.09 0.06 0.06 0.04 0.04 0.06 0.08 0.17 0.30 0.23 0.22 0.24 0.28 0.30 0.21 0.15 0.25 0.81 1.18 0.67
1.28 1.24 1.09 1.14 1.25 1.41 1.39 1.49 1.46 1.59 2.00 3.79 4.81 2.13 0.95 1.23 0.60 0.26 0.36 0.37 0.22 0.27 0.24 0.15 0.33 0.31 0.26 0.19 0.15 0.12 0.14 0.10 0.11 0.10 0.22 0.41 0.25 0.12 0.07 0.08 0.16 0.24 0.21 0.21 0.38 0.43 0.62
1.43 1.30 1.13 1.19 1.06 1.42 1.50 1.43 1.60 1.91 2.81 5.04 4.53 1.38 0.51 0.19 0.20 0.33 0.49 0.36 0.15 0.15 0.21 0.28 0.40 0.17 0.18 0.22 0.16 0.22 0.28 0.29 0.32 0.31 0.38 0.58 0.44 0.17 0.09 0.04 0.05 0.05 0.05 0.21 0.25 0.22 0.28
1.31 1.22 1.11 0.99 0.99 1.11 1.58 1.43 1.46 2.07 3.90 6.06 3.52 0.95 0.99 0.78 0.29 0.40 0.34 0.18 0.20 0.22 0.19 0.16 0.25 0.22 0.21 0.29 0.23 0.24 0.20 0.23 0.28 0.38 0.51 0.56 0.71 0.55 0.29 0.09 0.25 0.22 0.05 0.08 0.15 0.23 0.35
1.22 1.07 1.15 1.04 0.86 0.87 1.19 1.43 1.38 1.97 3.13 3.38 2.44 1.26 1.55 1.17 0.70 0.32 0.09 0.09 0.14 0.19 0.23 0.16 0.28 0.49 0.28 0.11 0.20 0.30 0.35 0.24 0.24 0.25 0.35 0.59 0.56 0.69 0.47 0.26 0.48 0.13 0.16 0.26 0.27 0.42 0.51
1.16 1.12 1.12 1.29 1.14 0.88 0.90 1.25 1.26 1.57 2.04 2.06 2.03 1.81 1.86 1.25 0.32 0.33 0.27 0.18 0.18 0.30 0.30 0.24 0.21 0.31 0.34 0.33 0.48 0.51 0.43 0.52 0.37 0.29 0.29 0.34 0.52 0.73 0.64 0.59 0.26 0.14 0.27 0.53 0.61 0.60 0.44
1.05 1.09 1.20 1.12 1.22 0.95 0.79 1.04 1.25 1.24 1.59 1.79 1.67 1.70 2.65 1.98 0.64 0.15 0.25 0.30 0.37 0.37 0.51 0.37 0.46 0.42 0.45 0.73 0.89 0.70 0.47 0.37 0.33 0.36 0.24 0.43 0.53 0.87 0.65 0.76 0.58 0.72 0.26 0.21 0.60 0.67 0.31
1.21 1.14 1.09 1.05 0.88 0.86 0.72 0.85 1.08 0.96 1.20 1.69 1.60 1.46 2.81 3.02 0.84 0.34 0.41 0.47 0.47 0.47 0.56 0.50 0.68 0.74 0.80 1.06 1.20 1.09 0.57 0.24 0.44 0.70 0.49 0.42 0.54 0.64 0.52 0.64 0.61 0.46 0.26 0.34 0.69 0.71 0.24
1.35 1.32 1.09 1.10 0.98 0.81 0.78 0.72 0.94 0.93 1.10 1.59 1.40 1.35 2.27 2.67 1.04 0.75 0.37 0.38 0.39 0.44 0.68 0.63 1.04 1.07 0.93 0.97 0.78 0.79 0.82 0.40 0.64 1.10 0.63 0.63 0.52 0.52 0.64 0.91 0.70 0.11 0.28 0.59 0.79 0.43 0.29
1.37 1.23 1.04 0.89 0.97 0.79 0.81 0.81 0.98 1.17 1.30 1.56 1.64 1.19 1.72 2.57 1.41 0.74 0.42 0.25 0.15 0.15 0.24 0.45 0.69 0.73 0.83 0.69 0.48 0.49 0.58 0.53 0.61 0.82 0.82 1.37 1.14 1.18 0.80 0.74 0.49 0.29 0.41 0.47 0.40 0.41 0.44